<?xml version="1.0" encoding="UTF-8" standalone="no" ?><gpx xmlns="http://www.topografix.com/GPX/1/1" xmlns:gpxx="http://www.garmin.com/xmlschemas/GpxExtensions/v3" xmlns:wptx1="http://www.garmin.com/xmlschemas/WaypointExtension/v1" xmlns:gpxtpx="http://www.garmin.com/xmlschemas/TrackPointExtension/v1" creator="GuideVTT.com" version="1.1" xmlns:xsi="http://www.w3.org/2001/XMLSchema-instance" xsi:schemaLocation="http://www.topografix.com/GPX/1/1 http://www.topografix.com/GPX/1/1/gpx.xsd http://www.garmin.com/xmlschemas/GpxExtensions/v3 http://www8.garmin.com/xmlschemas/GpxExtensionsv3.xsd http://www.garmin.com/xmlschemas/WaypointExtension/v1 http://www8.garmin.com/xmlschemas/WaypointExtensionv1.xsd http://www.garmin.com/xmlschemas/TrackPointExtension/v1 http://www.garmin.com/xmlschemas/TrackPointExtensionv1.xsd">
<metadata><link href="http://www.garmin.com"><text>Garmin International</text></link><time>2013-06-22T15:13:50Z</time></metadata>
<trk><name>00000_20110516.gpx</name><extensions><gpxx:TrackExtension><gpxx:DisplayColor>Cyan</gpxx:DisplayColor></gpxx:TrackExtension></extensions><trkseg>
<trkpt lat="42.288753" lon="3.280550"><ele>3.9</ele><time>2011-05-16T08:29:22Z</time></trkpt>
<trkpt lat="42.288795" lon="3.280752"><ele>4</ele><time>2011-05-16T08:29:26Z</time></trkpt>
<trkpt lat="42.288682" lon="3.280980"><ele>4.4</ele><time>2011-05-16T08:29:31Z</time></trkpt>
<trkpt lat="42.288440" lon="3.280923"><ele>10.4</ele><time>2011-05-16T08:29:36Z</time></trkpt>
<trkpt lat="42.288205" lon="3.280897"><ele>11.1</ele><time>2011-05-16T08:29:41Z</time></trkpt>
<trkpt lat="42.287998" lon="3.281062"><ele>12.9</ele><time>2011-05-16T08:29:46Z</time></trkpt>
<trkpt lat="42.287872" lon="3.281350"><ele>17.4</ele><time>2011-05-16T08:29:51Z</time></trkpt>
<trkpt lat="42.287792" lon="3.281682"><ele>17.3</ele><time>2011-05-16T08:29:56Z</time></trkpt>
<trkpt lat="42.287590" lon="3.281820"><ele>15.8</ele><time>2011-05-16T08:30:01Z</time></trkpt>
<trkpt lat="42.287437" lon="3.281622"><ele>15.1</ele><time>2011-05-16T08:30:06Z</time></trkpt>
<trkpt lat="42.287270" lon="3.281617"><ele>14.9</ele><time>2011-05-16T08:30:11Z</time></trkpt>
<trkpt lat="42.287137" lon="3.281685"><ele>15.4</ele><time>2011-05-16T08:30:16Z</time></trkpt>
<trkpt lat="42.287007" lon="3.281755"><ele>15.1</ele><time>2011-05-16T08:30:21Z</time></trkpt>
<trkpt lat="42.286868" lon="3.281838"><ele>14.6</ele><time>2011-05-16T08:30:26Z</time></trkpt>
<trkpt lat="42.286770" lon="3.281955"><ele>13.7</ele><time>2011-05-16T08:30:31Z</time></trkpt>
<trkpt lat="42.286812" lon="3.282127"><ele>14</ele><time>2011-05-16T08:30:36Z</time></trkpt>
<trkpt lat="42.286895" lon="3.282258"><ele>14.5</ele><time>2011-05-16T08:30:41Z</time></trkpt>
<trkpt lat="42.286987" lon="3.282398"><ele>15.3</ele><time>2011-05-16T08:30:46Z</time></trkpt>
<trkpt lat="42.287067" lon="3.282542"><ele>16</ele><time>2011-05-16T08:30:51Z</time></trkpt>
<trkpt lat="42.287125" lon="3.282708"><ele>16.6</ele><time>2011-05-16T08:30:56Z</time></trkpt>
<trkpt lat="42.287185" lon="3.282872"><ele>17.1</ele><time>2011-05-16T08:31:01Z</time></trkpt>
<trkpt lat="42.287205" lon="3.283028"><ele>16.4</ele><time>2011-05-16T08:31:06Z</time></trkpt>
<trkpt lat="42.287152" lon="3.283160"><ele>17.9</ele><time>2011-05-16T08:31:11Z</time></trkpt>
<trkpt lat="42.287220" lon="3.283262"><ele>19.4</ele><time>2011-05-16T08:31:16Z</time></trkpt>
<trkpt lat="42.287315" lon="3.283350"><ele>20.4</ele><time>2011-05-16T08:31:21Z</time></trkpt>
<trkpt lat="42.287403" lon="3.283440"><ele>21.3</ele><time>2011-05-16T08:31:26Z</time></trkpt>
<trkpt lat="42.287495" lon="3.283537"><ele>21.6</ele><time>2011-05-16T08:31:31Z</time></trkpt>
<trkpt lat="42.287587" lon="3.283632"><ele>22.5</ele><time>2011-05-16T08:31:36Z</time></trkpt>
<trkpt lat="42.287613" lon="3.283783"><ele>23</ele><time>2011-05-16T08:31:41Z</time></trkpt>
<trkpt lat="42.287525" lon="3.284035"><ele>21.7</ele><time>2011-05-16T08:31:46Z</time></trkpt>
<trkpt lat="42.287445" lon="3.284290"><ele>20.5</ele><time>2011-05-16T08:31:51Z</time></trkpt>
<trkpt lat="42.287365" lon="3.284570"><ele>19.1</ele><time>2011-05-16T08:31:56Z</time></trkpt>
<trkpt lat="42.287315" lon="3.284833"><ele>17.9</ele><time>2011-05-16T08:32:01Z</time></trkpt>
<trkpt lat="42.287338" lon="3.285103"><ele>16.2</ele><time>2011-05-16T08:32:06Z</time></trkpt>
<trkpt lat="42.287422" lon="3.285393"><ele>13.3</ele><time>2011-05-16T08:32:11Z</time></trkpt>
<trkpt lat="42.287437" lon="3.285693"><ele>11.8</ele><time>2011-05-16T08:32:16Z</time></trkpt>
<trkpt lat="42.287510" lon="3.285803"><ele>12.7</ele><time>2011-05-16T08:32:21Z</time></trkpt>
<trkpt lat="42.287495" lon="3.285907"><ele>14.3</ele><time>2011-05-16T08:32:26Z</time></trkpt>
<trkpt lat="42.287460" lon="3.285998"><ele>16.4</ele><time>2011-05-16T08:32:31Z</time></trkpt>
<trkpt lat="42.287442" lon="3.286090"><ele>18</ele><time>2011-05-16T08:32:36Z</time></trkpt>
<trkpt lat="42.287415" lon="3.286185"><ele>19.3</ele><time>2011-05-16T08:32:41Z</time></trkpt>
<trkpt lat="42.287383" lon="3.286280"><ele>20.8</ele><time>2011-05-16T08:32:46Z</time></trkpt>
<trkpt lat="42.287347" lon="3.286385"><ele>21.4</ele><time>2011-05-16T08:32:51Z</time></trkpt>
<trkpt lat="42.287265" lon="3.286508"><ele>21.7</ele><time>2011-05-16T08:32:56Z</time></trkpt>
<trkpt lat="42.287175" lon="3.286687"><ele>21.2</ele><time>2011-05-16T08:33:01Z</time></trkpt>
<trkpt lat="42.287025" lon="3.286920"><ele>18.9</ele><time>2011-05-16T08:33:06Z</time></trkpt>
<trkpt lat="42.286808" lon="3.287175"><ele>15.7</ele><time>2011-05-16T08:33:11Z</time></trkpt>
<trkpt lat="42.286728" lon="3.287473"><ele>15.1</ele><time>2011-05-16T08:33:16Z</time></trkpt>
<trkpt lat="42.286717" lon="3.287707"><ele>16.3</ele><time>2011-05-16T08:33:21Z</time></trkpt>
<trkpt lat="42.286697" lon="3.287923"><ele>17.4</ele><time>2011-05-16T08:33:26Z</time></trkpt>
<trkpt lat="42.286693" lon="3.288127"><ele>17.9</ele><time>2011-05-16T08:33:31Z</time></trkpt>
<trkpt lat="42.286740" lon="3.288327"><ele>17.2</ele><time>2011-05-16T08:33:36Z</time></trkpt>
<trkpt lat="42.286880" lon="3.288282"><ele>16.7</ele><time>2011-05-16T08:33:40Z</time></trkpt>
<trkpt lat="42.286977" lon="3.288132"><ele>17.6</ele><time>2011-05-16T08:33:45Z</time></trkpt>
<trkpt lat="42.287052" lon="3.287985"><ele>17.8</ele><time>2011-05-16T08:33:50Z</time></trkpt>
<trkpt lat="42.287125" lon="3.287830"><ele>17.8</ele><time>2011-05-16T08:33:55Z</time></trkpt>
<trkpt lat="42.287217" lon="3.287693"><ele>17.6</ele><time>2011-05-16T08:34:00Z</time></trkpt>
<trkpt lat="42.287315" lon="3.287577"><ele>17.5</ele><time>2011-05-16T08:34:05Z</time></trkpt>
<trkpt lat="42.287395" lon="3.287440"><ele>17.6</ele><time>2011-05-16T08:34:10Z</time></trkpt>
<trkpt lat="42.287487" lon="3.287315"><ele>18.1</ele><time>2011-05-16T08:34:15Z</time></trkpt>
<trkpt lat="42.287575" lon="3.287192"><ele>18.9</ele><time>2011-05-16T08:34:20Z</time></trkpt>
<trkpt lat="42.287655" lon="3.287055"><ele>19.6</ele><time>2011-05-16T08:34:25Z</time></trkpt>
<trkpt lat="42.287732" lon="3.286917"><ele>20.3</ele><time>2011-05-16T08:34:30Z</time></trkpt>
<trkpt lat="42.287823" lon="3.286798"><ele>21</ele><time>2011-05-16T08:34:35Z</time></trkpt>
<trkpt lat="42.287907" lon="3.286687"><ele>22.3</ele><time>2011-05-16T08:34:40Z</time></trkpt>
<trkpt lat="42.287987" lon="3.286548"><ele>22</ele><time>2011-05-16T08:34:45Z</time></trkpt>
<trkpt lat="42.288097" lon="3.286432"><ele>22.1</ele><time>2011-05-16T08:34:50Z</time></trkpt>
<trkpt lat="42.288200" lon="3.286320"><ele>22.5</ele><time>2011-05-16T08:34:55Z</time></trkpt>
<trkpt lat="42.288295" lon="3.286212"><ele>22.9</ele><time>2011-05-16T08:35:00Z</time></trkpt>
<trkpt lat="42.288398" lon="3.286137"><ele>23.4</ele><time>2011-05-16T08:35:05Z</time></trkpt>
<trkpt lat="42.288502" lon="3.286067"><ele>24</ele><time>2011-05-16T08:35:10Z</time></trkpt>
<trkpt lat="42.288617" lon="3.286028"><ele>24.7</ele><time>2011-05-16T08:35:15Z</time></trkpt>
<trkpt lat="42.288715" lon="3.285958"><ele>25.5</ele><time>2011-05-16T08:35:20Z</time></trkpt>
<trkpt lat="42.288803" lon="3.285860"><ele>26.3</ele><time>2011-05-16T08:35:25Z</time></trkpt>
<trkpt lat="42.288895" lon="3.285777"><ele>27.4</ele><time>2011-05-16T08:35:30Z</time></trkpt>
<trkpt lat="42.289002" lon="3.285750"><ele>28.2</ele><time>2011-05-16T08:35:35Z</time></trkpt>
<trkpt lat="42.289093" lon="3.285698"><ele>29.2</ele><time>2011-05-16T08:35:40Z</time></trkpt>
<trkpt lat="42.289173" lon="3.285602"><ele>30.1</ele><time>2011-05-16T08:35:45Z</time></trkpt>
<trkpt lat="42.289253" lon="3.285515"><ele>30.8</ele><time>2011-05-16T08:35:50Z</time></trkpt>
<trkpt lat="42.289330" lon="3.285443"><ele>31.5</ele><time>2011-05-16T08:35:55Z</time></trkpt>
<trkpt lat="42.289402" lon="3.285378"><ele>32.4</ele><time>2011-05-16T08:36:00Z</time></trkpt>
<trkpt lat="42.289475" lon="3.285320"><ele>33.4</ele><time>2011-05-16T08:36:05Z</time></trkpt>
<trkpt lat="42.289543" lon="3.285253"><ele>34.1</ele><time>2011-05-16T08:36:10Z</time></trkpt>
<trkpt lat="42.289620" lon="3.285195"><ele>34.8</ele><time>2011-05-16T08:36:15Z</time></trkpt>
<trkpt lat="42.289668" lon="3.285087"><ele>35.6</ele><time>2011-05-16T08:36:20Z</time></trkpt>
<trkpt lat="42.289765" lon="3.285047"><ele>36.3</ele><time>2011-05-16T08:36:25Z</time></trkpt>
<trkpt lat="42.289875" lon="3.285088"><ele>36.5</ele><time>2011-05-16T08:36:30Z</time></trkpt>
<trkpt lat="42.289967" lon="3.285168"><ele>37.1</ele><time>2011-05-16T08:36:35Z</time></trkpt>
<trkpt lat="42.290082" lon="3.285218"><ele>37.6</ele><time>2011-05-16T08:36:40Z</time></trkpt>
<trkpt lat="42.290215" lon="3.285208"><ele>37.2</ele><time>2011-05-16T08:36:45Z</time></trkpt>
<trkpt lat="42.290360" lon="3.285188"><ele>36.6</ele><time>2011-05-16T08:36:50Z</time></trkpt>
<trkpt lat="42.290485" lon="3.285120"><ele>36.6</ele><time>2011-05-16T08:36:55Z</time></trkpt>
<trkpt lat="42.290618" lon="3.285093"><ele>37.1</ele><time>2011-05-16T08:37:00Z</time></trkpt>
<trkpt lat="42.290742" lon="3.285043"><ele>37.7</ele><time>2011-05-16T08:37:05Z</time></trkpt>
<trkpt lat="42.290837" lon="3.284928"><ele>39</ele><time>2011-05-16T08:37:10Z</time></trkpt>
<trkpt lat="42.290947" lon="3.284825"><ele>39.6</ele><time>2011-05-16T08:37:15Z</time></trkpt>
<trkpt lat="42.291092" lon="3.284735"><ele>39</ele><time>2011-05-16T08:37:20Z</time></trkpt>
<trkpt lat="42.291213" lon="3.284667"><ele>39.2</ele><time>2011-05-16T08:37:25Z</time></trkpt>
<trkpt lat="42.291313" lon="3.284527"><ele>39.5</ele><time>2011-05-16T08:37:30Z</time></trkpt>
<trkpt lat="42.291412" lon="3.284360"><ele>39.8</ele><time>2011-05-16T08:37:35Z</time></trkpt>
<trkpt lat="42.291527" lon="3.284203"><ele>40</ele><time>2011-05-16T08:37:40Z</time></trkpt>
<trkpt lat="42.291642" lon="3.284058"><ele>40.4</ele><time>2011-05-16T08:37:45Z</time></trkpt>
<trkpt lat="42.291772" lon="3.283913"><ele>40.4</ele><time>2011-05-16T08:37:50Z</time></trkpt>
<trkpt lat="42.291923" lon="3.283785"><ele>40.1</ele><time>2011-05-16T08:37:55Z</time></trkpt>
<trkpt lat="42.292077" lon="3.283860"><ele>40</ele><time>2011-05-16T08:38:00Z</time></trkpt>
<trkpt lat="42.292267" lon="3.284032"><ele>38.5</ele><time>2011-05-16T08:38:05Z</time></trkpt>
<trkpt lat="42.292548" lon="3.284202"><ele>33.7</ele><time>2011-05-16T08:38:10Z</time></trkpt>
<trkpt lat="42.292758" lon="3.284442"><ele>30.9</ele><time>2011-05-16T08:38:15Z</time></trkpt>
<trkpt lat="42.292980" lon="3.284593"><ele>28.3</ele><time>2011-05-16T08:38:20Z</time></trkpt>
<trkpt lat="42.293308" lon="3.284768"><ele>22.9</ele><time>2011-05-16T08:38:25Z</time></trkpt>
<trkpt lat="42.293587" lon="3.285025"><ele>19.5</ele><time>2011-05-16T08:38:30Z</time></trkpt>
<trkpt lat="42.293793" lon="3.285233"><ele>18.2</ele><time>2011-05-16T08:38:35Z</time></trkpt>
<trkpt lat="42.293998" lon="3.285180"><ele>17.9</ele><time>2011-05-16T08:38:40Z</time></trkpt>
<trkpt lat="42.294170" lon="3.285032"><ele>17.3</ele><time>2011-05-16T08:38:45Z</time></trkpt>
<trkpt lat="42.294338" lon="3.284862"><ele>16.6</ele><time>2011-05-16T08:38:50Z</time></trkpt>
<trkpt lat="42.294480" lon="3.284895"><ele>14.4</ele><time>2011-05-16T08:38:55Z</time></trkpt>
<trkpt lat="42.294347" lon="3.285190"><ele>12.7</ele><time>2011-05-16T08:39:00Z</time></trkpt>
<trkpt lat="42.294158" lon="3.285510"><ele>10.6</ele><time>2011-05-16T08:39:05Z</time></trkpt>
<trkpt lat="42.293965" lon="3.285805"><ele>7.2</ele><time>2011-05-16T08:39:10Z</time></trkpt>
<trkpt lat="42.293812" lon="3.286048"><ele>4.2</ele><time>2011-05-16T08:39:15Z</time></trkpt>
<trkpt lat="42.293853" lon="3.286375"><ele>1.7</ele><time>2011-05-16T08:39:20Z</time></trkpt>
<trkpt lat="42.294010" lon="3.286577"><ele>1.2</ele><time>2011-05-16T08:39:25Z</time></trkpt>
<trkpt lat="42.294202" lon="3.286660"><ele>1.1</ele><time>2011-05-16T08:39:30Z</time></trkpt>
<trkpt lat="42.294270" lon="3.286760"><ele>0.9</ele><time>2011-05-16T08:39:35Z</time></trkpt>
<trkpt lat="42.294350" lon="3.286910"><ele>1.1</ele><time>2011-05-16T08:39:40Z</time></trkpt>
<trkpt lat="42.294475" lon="3.287078"><ele>1</ele><time>2011-05-16T08:39:45Z</time></trkpt>
<trkpt lat="42.294620" lon="3.287233"><ele>1</ele><time>2011-05-16T08:39:50Z</time></trkpt>
<trkpt lat="42.294670" lon="3.287432"><ele>1.9</ele><time>2011-05-16T08:39:55Z</time></trkpt>
<trkpt lat="42.294617" lon="3.287610"><ele>3.2</ele><time>2011-05-16T08:40:00Z</time></trkpt>
<trkpt lat="42.294548" lon="3.287743"><ele>5.2</ele><time>2011-05-16T08:40:05Z</time></trkpt>
<trkpt lat="42.294445" lon="3.287835"><ele>6.5</ele><time>2011-05-16T08:40:10Z</time></trkpt>
<trkpt lat="42.294338" lon="3.287923"><ele>7</ele><time>2011-05-16T08:40:15Z</time></trkpt>
<trkpt lat="42.294232" lon="3.288043"><ele>6.8</ele><time>2011-05-16T08:40:20Z</time></trkpt>
<trkpt lat="42.294208" lon="3.288242"><ele>6.7</ele><time>2011-05-16T08:40:25Z</time></trkpt>
<trkpt lat="42.294223" lon="3.288463"><ele>6.9</ele><time>2011-05-16T08:40:30Z</time></trkpt>
<trkpt lat="42.294238" lon="3.288690"><ele>7.2</ele><time>2011-05-16T08:40:35Z</time></trkpt>
<trkpt lat="42.294323" lon="3.288880"><ele>7.8</ele><time>2011-05-16T08:40:40Z</time></trkpt>
<trkpt lat="42.294487" lon="3.288893"><ele>8.3</ele><time>2011-05-16T08:40:45Z</time></trkpt>
<trkpt lat="42.294625" lon="3.288770"><ele>8.6</ele><time>2011-05-16T08:40:50Z</time></trkpt>
<trkpt lat="42.294765" lon="3.288673"><ele>9.3</ele><time>2011-05-16T08:40:55Z</time></trkpt>
<trkpt lat="42.294903" lon="3.288608"><ele>10</ele><time>2011-05-16T08:41:00Z</time></trkpt>
<trkpt lat="42.295033" lon="3.288545"><ele>10.8</ele><time>2011-05-16T08:41:05Z</time></trkpt>
<trkpt lat="42.295167" lon="3.288487"><ele>11.7</ele><time>2011-05-16T08:41:10Z</time></trkpt>
<trkpt lat="42.295300" lon="3.288425"><ele>12.6</ele><time>2011-05-16T08:41:15Z</time></trkpt>
<trkpt lat="42.295422" lon="3.288365"><ele>13.6</ele><time>2011-05-16T08:41:20Z</time></trkpt>
<trkpt lat="42.295540" lon="3.288315"><ele>14.5</ele><time>2011-05-16T08:41:25Z</time></trkpt>
<trkpt lat="42.295662" lon="3.288270"><ele>15.3</ele><time>2011-05-16T08:41:30Z</time></trkpt>
<trkpt lat="42.295792" lon="3.288293"><ele>16.2</ele><time>2011-05-16T08:41:35Z</time></trkpt>
<trkpt lat="42.295922" lon="3.288233"><ele>16.8</ele><time>2011-05-16T08:41:40Z</time></trkpt>
<trkpt lat="42.296085" lon="3.288217"><ele>16.1</ele><time>2011-05-16T08:41:45Z</time></trkpt>
<trkpt lat="42.296283" lon="3.288245"><ele>14.2</ele><time>2011-05-16T08:41:50Z</time></trkpt>
<trkpt lat="42.296558" lon="3.288267"><ele>11.7</ele><time>2011-05-16T08:41:55Z</time></trkpt>
<trkpt lat="42.296887" lon="3.288242"><ele>8.5</ele><time>2011-05-16T08:42:00Z</time></trkpt>
<trkpt lat="42.297245" lon="3.288192"><ele>6.2</ele><time>2011-05-16T08:42:05Z</time></trkpt>
<trkpt lat="42.297543" lon="3.288207"><ele>6.3</ele><time>2011-05-16T08:42:10Z</time></trkpt>
<trkpt lat="42.297695" lon="3.288130"><ele>7.2</ele><time>2011-05-16T08:42:15Z</time></trkpt>
<trkpt lat="42.297817" lon="3.288048"><ele>8.7</ele><time>2011-05-16T08:42:20Z</time></trkpt>
<trkpt lat="42.297935" lon="3.287968"><ele>9.7</ele><time>2011-05-16T08:42:25Z</time></trkpt>
<trkpt lat="42.298038" lon="3.287877"><ele>10.3</ele><time>2011-05-16T08:42:30Z</time></trkpt>
<trkpt lat="42.298153" lon="3.287777"><ele>11.5</ele><time>2011-05-16T08:42:35Z</time></trkpt>
<trkpt lat="42.298267" lon="3.287675"><ele>12.6</ele><time>2011-05-16T08:42:40Z</time></trkpt>
<trkpt lat="42.298385" lon="3.287572"><ele>13.7</ele><time>2011-05-16T08:42:45Z</time></trkpt>
<trkpt lat="42.298515" lon="3.287512"><ele>14.5</ele><time>2011-05-16T08:42:50Z</time></trkpt>
<trkpt lat="42.298653" lon="3.287490"><ele>15.5</ele><time>2011-05-16T08:42:55Z</time></trkpt>
<trkpt lat="42.298790" lon="3.287465"><ele>16.5</ele><time>2011-05-16T08:43:00Z</time></trkpt>
<trkpt lat="42.298927" lon="3.287438"><ele>17.2</ele><time>2011-05-16T08:43:05Z</time></trkpt>
<trkpt lat="42.299065" lon="3.287410"><ele>17.4</ele><time>2011-05-16T08:43:10Z</time></trkpt>
<trkpt lat="42.299205" lon="3.287388"><ele>17.5</ele><time>2011-05-16T08:43:15Z</time></trkpt>
<trkpt lat="42.299355" lon="3.287353"><ele>17.4</ele><time>2011-05-16T08:43:20Z</time></trkpt>
<trkpt lat="42.299515" lon="3.287322"><ele>17.5</ele><time>2011-05-16T08:43:25Z</time></trkpt>
<trkpt lat="42.299675" lon="3.287290"><ele>17.4</ele><time>2011-05-16T08:43:30Z</time></trkpt>
<trkpt lat="42.299835" lon="3.287333"><ele>17.3</ele><time>2011-05-16T08:43:35Z</time></trkpt>
<trkpt lat="42.299968" lon="3.287310"><ele>17.8</ele><time>2011-05-16T08:43:40Z</time></trkpt>
<trkpt lat="42.300075" lon="3.287232"><ele>18.7</ele><time>2011-05-16T08:43:45Z</time></trkpt>
<trkpt lat="42.300175" lon="3.287152"><ele>19.7</ele><time>2011-05-16T08:43:50Z</time></trkpt>
<trkpt lat="42.300273" lon="3.287068"><ele>20.6</ele><time>2011-05-16T08:43:55Z</time></trkpt>
<trkpt lat="42.300377" lon="3.286983"><ele>21.5</ele><time>2011-05-16T08:44:00Z</time></trkpt>
<trkpt lat="42.300480" lon="3.286910"><ele>22.3</ele><time>2011-05-16T08:44:05Z</time></trkpt>
<trkpt lat="42.300578" lon="3.286827"><ele>23.1</ele><time>2011-05-16T08:44:10Z</time></trkpt>
<trkpt lat="42.300682" lon="3.286750"><ele>23.9</ele><time>2011-05-16T08:44:15Z</time></trkpt>
<trkpt lat="42.300782" lon="3.286667"><ele>24.9</ele><time>2011-05-16T08:44:20Z</time></trkpt>
<trkpt lat="42.300880" lon="3.286593"><ele>26.2</ele><time>2011-05-16T08:44:25Z</time></trkpt>
<trkpt lat="42.300972" lon="3.286515"><ele>27.4</ele><time>2011-05-16T08:44:30Z</time></trkpt>
<trkpt lat="42.301040" lon="3.286463"><ele>28.4</ele><time>2011-05-16T08:44:35Z</time></trkpt>
<trkpt lat="42.301105" lon="3.286407"><ele>29.4</ele><time>2011-05-16T08:44:40Z</time></trkpt>
<trkpt lat="42.301170" lon="3.286358"><ele>30.5</ele><time>2011-05-16T08:44:45Z</time></trkpt>
<trkpt lat="42.301235" lon="3.286315"><ele>31.5</ele><time>2011-05-16T08:44:50Z</time></trkpt>
<trkpt lat="42.301300" lon="3.286263"><ele>32.6</ele><time>2011-05-16T08:44:55Z</time></trkpt>
<trkpt lat="42.301365" lon="3.286213"><ele>33.9</ele><time>2011-05-16T08:45:00Z</time></trkpt>
<trkpt lat="42.301430" lon="3.286158"><ele>35.2</ele><time>2011-05-16T08:45:05Z</time></trkpt>
<trkpt lat="42.301498" lon="3.286100"><ele>36.5</ele><time>2011-05-16T08:45:10Z</time></trkpt>
<trkpt lat="42.301572" lon="3.286045"><ele>37.6</ele><time>2011-05-16T08:45:15Z</time></trkpt>
<trkpt lat="42.301647" lon="3.285993"><ele>38.7</ele><time>2011-05-16T08:45:20Z</time></trkpt>
<trkpt lat="42.301723" lon="3.285935"><ele>39.7</ele><time>2011-05-16T08:45:25Z</time></trkpt>
<trkpt lat="42.301788" lon="3.285873"><ele>40.6</ele><time>2011-05-16T08:45:30Z</time></trkpt>
<trkpt lat="42.301850" lon="3.285793"><ele>41.2</ele><time>2011-05-16T08:45:35Z</time></trkpt>
<trkpt lat="42.301918" lon="3.285710"><ele>42</ele><time>2011-05-16T08:45:40Z</time></trkpt>
<trkpt lat="42.301975" lon="3.285597"><ele>42.6</ele><time>2011-05-16T08:45:45Z</time></trkpt>
<trkpt lat="42.302032" lon="3.285473"><ele>42.9</ele><time>2011-05-16T08:45:50Z</time></trkpt>
<trkpt lat="42.302082" lon="3.285352"><ele>43.1</ele><time>2011-05-16T08:45:55Z</time></trkpt>
<trkpt lat="42.302132" lon="3.285225"><ele>43.1</ele><time>2011-05-16T08:46:00Z</time></trkpt>
<trkpt lat="42.302147" lon="3.285077"><ele>43.3</ele><time>2011-05-16T08:46:05Z</time></trkpt>
<trkpt lat="42.302128" lon="3.284933"><ele>43.4</ele><time>2011-05-16T08:46:10Z</time></trkpt>
<trkpt lat="42.302070" lon="3.284840"><ele>43.7</ele><time>2011-05-16T08:46:15Z</time></trkpt>
<trkpt lat="42.302032" lon="3.284762"><ele>44.3</ele><time>2011-05-16T08:46:20Z</time></trkpt>
<trkpt lat="42.302055" lon="3.284668"><ele>45.5</ele><time>2011-05-16T08:46:25Z</time></trkpt>
<trkpt lat="42.302013" lon="3.284593"><ele>46.4</ele><time>2011-05-16T08:46:30Z</time></trkpt>
<trkpt lat="42.301942" lon="3.284555"><ele>46.9</ele><time>2011-05-16T08:46:35Z</time></trkpt>
<trkpt lat="42.301880" lon="3.284493"><ele>48</ele><time>2011-05-16T08:46:40Z</time></trkpt>
<trkpt lat="42.301818" lon="3.284418"><ele>49.3</ele><time>2011-05-16T08:46:45Z</time></trkpt>
<trkpt lat="42.301753" lon="3.284367"><ele>50.2</ele><time>2011-05-16T08:46:50Z</time></trkpt>
<trkpt lat="42.301688" lon="3.284308"><ele>51</ele><time>2011-05-16T08:46:55Z</time></trkpt>
<trkpt lat="42.301628" lon="3.284237"><ele>51.5</ele><time>2011-05-16T08:47:00Z</time></trkpt>
<trkpt lat="42.301555" lon="3.284170"><ele>52</ele><time>2011-05-16T08:47:05Z</time></trkpt>
<trkpt lat="42.301495" lon="3.284102"><ele>52.8</ele><time>2011-05-16T08:47:10Z</time></trkpt>
<trkpt lat="42.301437" lon="3.284030"><ele>53.7</ele><time>2011-05-16T08:47:15Z</time></trkpt>
<trkpt lat="42.301407" lon="3.283943"><ele>55.1</ele><time>2011-05-16T08:47:20Z</time></trkpt>
<trkpt lat="42.301400" lon="3.283852"><ele>56.2</ele><time>2011-05-16T08:47:25Z</time></trkpt>
<trkpt lat="42.301442" lon="3.283778"><ele>57.2</ele><time>2011-05-16T08:47:30Z</time></trkpt>
<trkpt lat="42.301498" lon="3.283720"><ele>58.3</ele><time>2011-05-16T08:47:35Z</time></trkpt>
<trkpt lat="42.301563" lon="3.283687"><ele>59.3</ele><time>2011-05-16T08:47:40Z</time></trkpt>
<trkpt lat="42.301632" lon="3.283668"><ele>60.4</ele><time>2011-05-16T08:47:45Z</time></trkpt>
<trkpt lat="42.301700" lon="3.283668"><ele>61.5</ele><time>2011-05-16T08:47:50Z</time></trkpt>
<trkpt lat="42.301765" lon="3.283650"><ele>62.6</ele><time>2011-05-16T08:47:55Z</time></trkpt>
<trkpt lat="42.301838" lon="3.283620"><ele>63.4</ele><time>2011-05-16T08:48:00Z</time></trkpt>
<trkpt lat="42.301898" lon="3.283582"><ele>64.2</ele><time>2011-05-16T08:48:05Z</time></trkpt>
<trkpt lat="42.301968" lon="3.283563"><ele>65.1</ele><time>2011-05-16T08:48:10Z</time></trkpt>
<trkpt lat="42.302032" lon="3.283537"><ele>65.9</ele><time>2011-05-16T08:48:15Z</time></trkpt>
<trkpt lat="42.302102" lon="3.283512"><ele>66.6</ele><time>2011-05-16T08:48:20Z</time></trkpt>
<trkpt lat="42.302167" lon="3.283487"><ele>67.4</ele><time>2011-05-16T08:48:25Z</time></trkpt>
<trkpt lat="42.302242" lon="3.283477"><ele>68.1</ele><time>2011-05-16T08:48:30Z</time></trkpt>
<trkpt lat="42.302312" lon="3.283463"><ele>68.8</ele><time>2011-05-16T08:48:35Z</time></trkpt>
<trkpt lat="42.302375" lon="3.283425"><ele>69.6</ele><time>2011-05-16T08:48:40Z</time></trkpt>
<trkpt lat="42.302440" lon="3.283357"><ele>70.2</ele><time>2011-05-16T08:48:45Z</time></trkpt>
<trkpt lat="42.302505" lon="3.283320"><ele>71</ele><time>2011-05-16T08:48:50Z</time></trkpt>
<trkpt lat="42.302582" lon="3.283288"><ele>71.7</ele><time>2011-05-16T08:48:55Z</time></trkpt>
<trkpt lat="42.302662" lon="3.283252"><ele>72.1</ele><time>2011-05-16T08:49:00Z</time></trkpt>
<trkpt lat="42.302745" lon="3.283232"><ele>72.2</ele><time>2011-05-16T08:49:05Z</time></trkpt>
<trkpt lat="42.302837" lon="3.283213"><ele>72.3</ele><time>2011-05-16T08:49:10Z</time></trkpt>
<trkpt lat="42.302928" lon="3.283200"><ele>72.6</ele><time>2011-05-16T08:49:15Z</time></trkpt>
<trkpt lat="42.303028" lon="3.283160"><ele>72.7</ele><time>2011-05-16T08:49:20Z</time></trkpt>
<trkpt lat="42.303123" lon="3.283082"><ele>72.5</ele><time>2011-05-16T08:49:25Z</time></trkpt>
<trkpt lat="42.303223" lon="3.283028"><ele>72.7</ele><time>2011-05-16T08:49:30Z</time></trkpt>
<trkpt lat="42.303322" lon="3.282983"><ele>73</ele><time>2011-05-16T08:49:35Z</time></trkpt>
<trkpt lat="42.303422" lon="3.282935"><ele>73.5</ele><time>2011-05-16T08:49:40Z</time></trkpt>
<trkpt lat="42.303520" lon="3.282890"><ele>73.7</ele><time>2011-05-16T08:49:45Z</time></trkpt>
<trkpt lat="42.303608" lon="3.282830"><ele>73.8</ele><time>2011-05-16T08:49:50Z</time></trkpt>
<trkpt lat="42.303692" lon="3.282755"><ele>73</ele><time>2011-05-16T08:49:55Z</time></trkpt>
<trkpt lat="42.303780" lon="3.282682"><ele>72.9</ele><time>2011-05-16T08:50:00Z</time></trkpt>
<trkpt lat="42.303863" lon="3.282567"><ele>73.3</ele><time>2011-05-16T08:50:05Z</time></trkpt>
<trkpt lat="42.303943" lon="3.282438"><ele>73.5</ele><time>2011-05-16T08:50:10Z</time></trkpt>
<trkpt lat="42.304028" lon="3.282298"><ele>74</ele><time>2011-05-16T08:50:15Z</time></trkpt>
<trkpt lat="42.304112" lon="3.282167"><ele>74.7</ele><time>2011-05-16T08:50:20Z</time></trkpt>
<trkpt lat="42.304200" lon="3.282035"><ele>75.3</ele><time>2011-05-16T08:50:25Z</time></trkpt>
<trkpt lat="42.304310" lon="3.281928"><ele>75.5</ele><time>2011-05-16T08:50:30Z</time></trkpt>
<trkpt lat="42.304440" lon="3.281895"><ele>76</ele><time>2011-05-16T08:50:35Z</time></trkpt>
<trkpt lat="42.304565" lon="3.281847"><ele>76.4</ele><time>2011-05-16T08:50:40Z</time></trkpt>
<trkpt lat="42.304672" lon="3.281758"><ele>76.9</ele><time>2011-05-16T08:50:45Z</time></trkpt>
<trkpt lat="42.304757" lon="3.281655"><ele>77.6</ele><time>2011-05-16T08:50:50Z</time></trkpt>
<trkpt lat="42.304822" lon="3.281547"><ele>78.5</ele><time>2011-05-16T08:50:55Z</time></trkpt>
<trkpt lat="42.304878" lon="3.281435"><ele>79.6</ele><time>2011-05-16T08:51:00Z</time></trkpt>
<trkpt lat="42.304935" lon="3.281335"><ele>80.6</ele><time>2011-05-16T08:51:05Z</time></trkpt>
<trkpt lat="42.304985" lon="3.281237"><ele>81.5</ele><time>2011-05-16T08:51:10Z</time></trkpt>
<trkpt lat="42.305038" lon="3.281137"><ele>82.4</ele><time>2011-05-16T08:51:15Z</time></trkpt>
<trkpt lat="42.305092" lon="3.281025"><ele>83.2</ele><time>2011-05-16T08:51:20Z</time></trkpt>
<trkpt lat="42.305165" lon="3.280927"><ele>83.8</ele><time>2011-05-16T08:51:25Z</time></trkpt>
<trkpt lat="42.305245" lon="3.280845"><ele>84.2</ele><time>2011-05-16T08:51:30Z</time></trkpt>
<trkpt lat="42.305337" lon="3.280802"><ele>84.7</ele><time>2011-05-16T08:51:35Z</time></trkpt>
<trkpt lat="42.305423" lon="3.280715"><ele>84.8</ele><time>2011-05-16T08:51:40Z</time></trkpt>
<trkpt lat="42.305503" lon="3.280613"><ele>84.9</ele><time>2011-05-16T08:51:45Z</time></trkpt>
<trkpt lat="42.305580" lon="3.280498"><ele>84.9</ele><time>2011-05-16T08:51:50Z</time></trkpt>
<trkpt lat="42.305660" lon="3.280385"><ele>85.1</ele><time>2011-05-16T08:51:55Z</time></trkpt>
<trkpt lat="42.305733" lon="3.280265"><ele>85.3</ele><time>2011-05-16T08:52:00Z</time></trkpt>
<trkpt lat="42.305798" lon="3.280130"><ele>85.7</ele><time>2011-05-16T08:52:05Z</time></trkpt>
<trkpt lat="42.305840" lon="3.279977"><ele>86.4</ele><time>2011-05-16T08:52:10Z</time></trkpt>
<trkpt lat="42.305870" lon="3.279827"><ele>87.1</ele><time>2011-05-16T08:52:15Z</time></trkpt>
<trkpt lat="42.305888" lon="3.279657"><ele>87.4</ele><time>2011-05-16T08:52:20Z</time></trkpt>
<trkpt lat="42.305882" lon="3.279482"><ele>87.5</ele><time>2011-05-16T08:52:25Z</time></trkpt>
<trkpt lat="42.305858" lon="3.279240"><ele>85.5</ele><time>2011-05-16T08:52:30Z</time></trkpt>
<trkpt lat="42.305717" lon="3.278887"><ele>82.3</ele><time>2011-05-16T08:52:35Z</time></trkpt>
<trkpt lat="42.305672" lon="3.278573"><ele>82.6</ele><time>2011-05-16T08:52:40Z</time></trkpt>
<trkpt lat="42.305687" lon="3.278373"><ele>82.9</ele><time>2011-05-16T08:52:45Z</time></trkpt>
<trkpt lat="42.305680" lon="3.278178"><ele>83.6</ele><time>2011-05-16T08:52:50Z</time></trkpt>
<trkpt lat="42.305668" lon="3.278002"><ele>84.6</ele><time>2011-05-16T08:52:55Z</time></trkpt>
<trkpt lat="42.305657" lon="3.277830"><ele>85.7</ele><time>2011-05-16T08:53:00Z</time></trkpt>
<trkpt lat="42.305542" lon="3.277755"><ele>85.9</ele><time>2011-05-16T08:53:05Z</time></trkpt>
<trkpt lat="42.305390" lon="3.277793"><ele>85.4</ele><time>2011-05-16T08:53:10Z</time></trkpt>
<trkpt lat="42.305172" lon="3.277778"><ele>84</ele><time>2011-05-16T08:53:15Z</time></trkpt>
<trkpt lat="42.305038" lon="3.277580"><ele>83.7</ele><time>2011-05-16T08:53:20Z</time></trkpt>
<trkpt lat="42.304967" lon="3.277347"><ele>83.3</ele><time>2011-05-16T08:53:25Z</time></trkpt>
<trkpt lat="42.304897" lon="3.277163"><ele>83.5</ele><time>2011-05-16T08:53:30Z</time></trkpt>
<trkpt lat="42.304852" lon="3.276973"><ele>83.7</ele><time>2011-05-16T08:53:35Z</time></trkpt>
<trkpt lat="42.304825" lon="3.276742"><ele>83.5</ele><time>2011-05-16T08:53:40Z</time></trkpt>
<trkpt lat="42.304890" lon="3.276497"><ele>82.7</ele><time>2011-05-16T08:53:45Z</time></trkpt>
<trkpt lat="42.304982" lon="3.276170"><ele>80.1</ele><time>2011-05-16T08:53:50Z</time></trkpt>
<trkpt lat="42.305085" lon="3.275978"><ele>79.7</ele><time>2011-05-16T08:53:55Z</time></trkpt>
<trkpt lat="42.305198" lon="3.275847"><ele>80.3</ele><time>2011-05-16T08:54:00Z</time></trkpt>
<trkpt lat="42.305257" lon="3.275697"><ele>81.3</ele><time>2011-05-16T08:54:05Z</time></trkpt>
<trkpt lat="42.305245" lon="3.275562"><ele>82.8</ele><time>2011-05-16T08:54:10Z</time></trkpt>
<trkpt lat="42.305202" lon="3.275463"><ele>84</ele><time>2011-05-16T08:54:15Z</time></trkpt>
<trkpt lat="42.305210" lon="3.275333"><ele>84.8</ele><time>2011-05-16T08:54:20Z</time></trkpt>
<trkpt lat="42.305230" lon="3.275215"><ele>85.9</ele><time>2011-05-16T08:54:25Z</time></trkpt>
<trkpt lat="42.305257" lon="3.275103"><ele>87.2</ele><time>2011-05-16T08:54:30Z</time></trkpt>
<trkpt lat="42.305293" lon="3.274990"><ele>88.5</ele><time>2011-05-16T08:54:35Z</time></trkpt>
<trkpt lat="42.305305" lon="3.274870"><ele>88.8</ele><time>2011-05-16T08:54:40Z</time></trkpt>
<trkpt lat="42.305233" lon="3.274807"><ele>89.6</ele><time>2011-05-16T08:54:45Z</time></trkpt>
<trkpt lat="42.305160" lon="3.274868"><ele>91</ele><time>2011-05-16T08:54:50Z</time></trkpt>
<trkpt lat="42.305107" lon="3.274970"><ele>91.7</ele><time>2011-05-16T08:54:55Z</time></trkpt>
<trkpt lat="42.305047" lon="3.275065"><ele>92.4</ele><time>2011-05-16T08:55:00Z</time></trkpt>
<trkpt lat="42.304977" lon="3.275158"><ele>92.6</ele><time>2011-05-16T08:55:05Z</time></trkpt>
<trkpt lat="42.304913" lon="3.275255"><ele>93.3</ele><time>2011-05-16T08:55:10Z</time></trkpt>
<trkpt lat="42.304852" lon="3.275348"><ele>94.7</ele><time>2011-05-16T08:55:15Z</time></trkpt>
<trkpt lat="42.304787" lon="3.275433"><ele>95.7</ele><time>2011-05-16T08:55:20Z</time></trkpt>
<trkpt lat="42.304718" lon="3.275505"><ele>96.5</ele><time>2011-05-16T08:55:25Z</time></trkpt>
<trkpt lat="42.304642" lon="3.275565"><ele>97.2</ele><time>2011-05-16T08:55:30Z</time></trkpt>
<trkpt lat="42.304562" lon="3.275622"><ele>97.8</ele><time>2011-05-16T08:55:35Z</time></trkpt>
<trkpt lat="42.304482" lon="3.275640"><ele>99.6</ele><time>2011-05-16T08:55:40Z</time></trkpt>
<trkpt lat="42.304393" lon="3.275672"><ele>100.5</ele><time>2011-05-16T08:55:45Z</time></trkpt>
<trkpt lat="42.304307" lon="3.275742"><ele>100.4</ele><time>2011-05-16T08:55:50Z</time></trkpt>
<trkpt lat="42.304230" lon="3.275813"><ele>100.9</ele><time>2011-05-16T08:55:55Z</time></trkpt>
<trkpt lat="42.304165" lon="3.275898"><ele>101.9</ele><time>2011-05-16T08:56:00Z</time></trkpt>
<trkpt lat="42.304097" lon="3.275977"><ele>102.9</ele><time>2011-05-16T08:56:05Z</time></trkpt>
<trkpt lat="42.304008" lon="3.276048"><ele>103.8</ele><time>2011-05-16T08:56:10Z</time></trkpt>
<trkpt lat="42.303910" lon="3.276067"><ele>104.1</ele><time>2011-05-16T08:56:15Z</time></trkpt>
<trkpt lat="42.303818" lon="3.276052"><ele>104.8</ele><time>2011-05-16T08:56:20Z</time></trkpt>
<trkpt lat="42.303748" lon="3.275962"><ele>105.3</ele><time>2011-05-16T08:56:25Z</time></trkpt>
<trkpt lat="42.303680" lon="3.275862"><ele>105.6</ele><time>2011-05-16T08:56:30Z</time></trkpt>
<trkpt lat="42.303612" lon="3.275763"><ele>106</ele><time>2011-05-16T08:56:35Z</time></trkpt>
<trkpt lat="42.303535" lon="3.275652"><ele>106.4</ele><time>2011-05-16T08:56:40Z</time></trkpt>
<trkpt lat="42.303487" lon="3.275573"><ele>106.5</ele><time>2011-05-16T08:56:45Z</time></trkpt>
<trkpt lat="42.303487" lon="3.275577"><ele>106.5</ele><time>2011-05-16T08:56:50Z</time></trkpt>
<trkpt lat="42.303487" lon="3.275572"><ele>106.4</ele><time>2011-05-16T08:56:55Z</time></trkpt>
<trkpt lat="42.303487" lon="3.275580"><ele>107</ele><time>2011-05-16T08:57:00Z</time></trkpt>
<trkpt lat="42.303487" lon="3.275580"><ele>106.9</ele><time>2011-05-16T08:57:05Z</time></trkpt>
<trkpt lat="42.303490" lon="3.275582"><ele>106.8</ele><time>2011-05-16T08:57:10Z</time></trkpt>
<trkpt lat="42.303490" lon="3.275583"><ele>106.7</ele><time>2011-05-16T08:57:15Z</time></trkpt>
<trkpt lat="42.303482" lon="3.275575"><ele>106.5</ele><time>2011-05-16T08:57:20Z</time></trkpt>
<trkpt lat="42.303387" lon="3.275555"><ele>106.3</ele><time>2011-05-16T08:57:25Z</time></trkpt>
<trkpt lat="42.303372" lon="3.275540"><ele>106.2</ele><time>2011-05-16T08:57:30Z</time></trkpt>
<trkpt lat="42.303372" lon="3.275545"><ele>106.4</ele><time>2011-05-16T08:57:35Z</time></trkpt>
<trkpt lat="42.303375" lon="3.275542"><ele>106.4</ele><time>2011-05-16T08:57:40Z</time></trkpt>
<trkpt lat="42.303375" lon="3.275538"><ele>106.4</ele><time>2011-05-16T08:57:45Z</time></trkpt>
<trkpt lat="42.303368" lon="3.275533"><ele>106.5</ele><time>2011-05-16T08:57:50Z</time></trkpt>
<trkpt lat="42.303268" lon="3.275500"><ele>106.5</ele><time>2011-05-16T08:57:55Z</time></trkpt>
<trkpt lat="42.303203" lon="3.275387"><ele>106.5</ele><time>2011-05-16T08:58:00Z</time></trkpt>
<trkpt lat="42.303227" lon="3.275235"><ele>106.8</ele><time>2011-05-16T08:58:05Z</time></trkpt>
<trkpt lat="42.303207" lon="3.275065"><ele>107.1</ele><time>2011-05-16T08:58:10Z</time></trkpt>
<trkpt lat="42.303123" lon="3.274938"><ele>107.4</ele><time>2011-05-16T08:58:15Z</time></trkpt>
<trkpt lat="42.303105" lon="3.274768"><ele>107.7</ele><time>2011-05-16T08:58:20Z</time></trkpt>
<trkpt lat="42.303158" lon="3.274595"><ele>107.8</ele><time>2011-05-16T08:58:25Z</time></trkpt>
<trkpt lat="42.303185" lon="3.274357"><ele>106.7</ele><time>2011-05-16T08:58:30Z</time></trkpt>
<trkpt lat="42.303288" lon="3.274207"><ele>107</ele><time>2011-05-16T08:58:35Z</time></trkpt>
<trkpt lat="42.303383" lon="3.274098"><ele>107.6</ele><time>2011-05-16T08:58:40Z</time></trkpt>
<trkpt lat="42.303478" lon="3.274008"><ele>108.2</ele><time>2011-05-16T08:58:45Z</time></trkpt>
<trkpt lat="42.303577" lon="3.273942"><ele>109.1</ele><time>2011-05-16T08:58:50Z</time></trkpt>
<trkpt lat="42.303677" lon="3.273907"><ele>110.2</ele><time>2011-05-16T08:58:55Z</time></trkpt>
<trkpt lat="42.303768" lon="3.273898"><ele>111.5</ele><time>2011-05-16T08:59:00Z</time></trkpt>
<trkpt lat="42.303860" lon="3.273902"><ele>112.8</ele><time>2011-05-16T08:59:05Z</time></trkpt>
<trkpt lat="42.303943" lon="3.273903"><ele>114.1</ele><time>2011-05-16T08:59:10Z</time></trkpt>
<trkpt lat="42.304023" lon="3.273880"><ele>115.4</ele><time>2011-05-16T08:59:15Z</time></trkpt>
<trkpt lat="42.304103" lon="3.273853"><ele>116.7</ele><time>2011-05-16T08:59:20Z</time></trkpt>
<trkpt lat="42.304177" lon="3.273817"><ele>117.6</ele><time>2011-05-16T08:59:25Z</time></trkpt>
<trkpt lat="42.304248" lon="3.273777"><ele>118.5</ele><time>2011-05-16T08:59:30Z</time></trkpt>
<trkpt lat="42.304325" lon="3.273758"><ele>119.8</ele><time>2011-05-16T08:59:35Z</time></trkpt>
<trkpt lat="42.304402" lon="3.273760"><ele>120.8</ele><time>2011-05-16T08:59:40Z</time></trkpt>
<trkpt lat="42.304485" lon="3.273740"><ele>121.2</ele><time>2011-05-16T08:59:45Z</time></trkpt>
<trkpt lat="42.304553" lon="3.273680"><ele>121.6</ele><time>2011-05-16T08:59:50Z</time></trkpt>
<trkpt lat="42.304600" lon="3.273588"><ele>121.9</ele><time>2011-05-16T08:59:55Z</time></trkpt>
<trkpt lat="42.304615" lon="3.273477"><ele>122.4</ele><time>2011-05-16T09:00:00Z</time></trkpt>
<trkpt lat="42.304597" lon="3.273363"><ele>123</ele><time>2011-05-16T09:00:05Z</time></trkpt>
<trkpt lat="42.304565" lon="3.273260"><ele>123.5</ele><time>2011-05-16T09:00:10Z</time></trkpt>
<trkpt lat="42.304535" lon="3.273150"><ele>124</ele><time>2011-05-16T09:00:15Z</time></trkpt>
<trkpt lat="42.304512" lon="3.273028"><ele>124.6</ele><time>2011-05-16T09:00:20Z</time></trkpt>
<trkpt lat="42.304500" lon="3.272902"><ele>125.3</ele><time>2011-05-16T09:00:25Z</time></trkpt>
<trkpt lat="42.304517" lon="3.272775"><ele>126.2</ele><time>2011-05-16T09:00:30Z</time></trkpt>
<trkpt lat="42.304547" lon="3.272657"><ele>127.1</ele><time>2011-05-16T09:00:35Z</time></trkpt>
<trkpt lat="42.304588" lon="3.272543"><ele>127.9</ele><time>2011-05-16T09:00:40Z</time></trkpt>
<trkpt lat="42.304627" lon="3.272428"><ele>128.9</ele><time>2011-05-16T09:00:45Z</time></trkpt>
<trkpt lat="42.304668" lon="3.272317"><ele>130</ele><time>2011-05-16T09:00:50Z</time></trkpt>
<trkpt lat="42.304725" lon="3.272218"><ele>131.1</ele><time>2011-05-16T09:00:55Z</time></trkpt>
<trkpt lat="42.304790" lon="3.272128"><ele>132.3</ele><time>2011-05-16T09:01:00Z</time></trkpt>
<trkpt lat="42.304858" lon="3.272052"><ele>133.3</ele><time>2011-05-16T09:01:05Z</time></trkpt>
<trkpt lat="42.304935" lon="3.271987"><ele>134</ele><time>2011-05-16T09:01:10Z</time></trkpt>
<trkpt lat="42.305008" lon="3.271913"><ele>134.7</ele><time>2011-05-16T09:01:15Z</time></trkpt>
<trkpt lat="42.305085" lon="3.271838"><ele>135.3</ele><time>2011-05-16T09:01:20Z</time></trkpt>
<trkpt lat="42.305165" lon="3.271757"><ele>135.8</ele><time>2011-05-16T09:01:25Z</time></trkpt>
<trkpt lat="42.305245" lon="3.271672"><ele>136.3</ele><time>2011-05-16T09:01:30Z</time></trkpt>
<trkpt lat="42.305337" lon="3.271585"><ele>136.5</ele><time>2011-05-16T09:01:35Z</time></trkpt>
<trkpt lat="42.305428" lon="3.271483"><ele>136.5</ele><time>2011-05-16T09:01:40Z</time></trkpt>
<trkpt lat="42.305508" lon="3.271352"><ele>136.6</ele><time>2011-05-16T09:01:45Z</time></trkpt>
<trkpt lat="42.305550" lon="3.271183"><ele>136.9</ele><time>2011-05-16T09:01:50Z</time></trkpt>
<trkpt lat="42.305545" lon="3.271022"><ele>137.4</ele><time>2011-05-16T09:01:55Z</time></trkpt>
<trkpt lat="42.305512" lon="3.270875"><ele>138.3</ele><time>2011-05-16T09:02:00Z</time></trkpt>
<trkpt lat="42.305473" lon="3.270740"><ele>139.6</ele><time>2011-05-16T09:02:05Z</time></trkpt>
<trkpt lat="42.305450" lon="3.270603"><ele>140.7</ele><time>2011-05-16T09:02:10Z</time></trkpt>
<trkpt lat="42.305447" lon="3.270485"><ele>142</ele><time>2011-05-16T09:02:15Z</time></trkpt>
<trkpt lat="42.305455" lon="3.270380"><ele>143.4</ele><time>2011-05-16T09:02:20Z</time></trkpt>
<trkpt lat="42.305482" lon="3.270277"><ele>144.6</ele><time>2011-05-16T09:02:25Z</time></trkpt>
<trkpt lat="42.305512" lon="3.270178"><ele>145.5</ele><time>2011-05-16T09:02:30Z</time></trkpt>
<trkpt lat="42.305550" lon="3.270075"><ele>146.1</ele><time>2011-05-16T09:02:35Z</time></trkpt>
<trkpt lat="42.305595" lon="3.269977"><ele>146.9</ele><time>2011-05-16T09:02:40Z</time></trkpt>
<trkpt lat="42.305637" lon="3.269882"><ele>148</ele><time>2011-05-16T09:02:45Z</time></trkpt>
<trkpt lat="42.305675" lon="3.269785"><ele>149.1</ele><time>2011-05-16T09:02:50Z</time></trkpt>
<trkpt lat="42.305717" lon="3.269673"><ele>149.8</ele><time>2011-05-16T09:02:55Z</time></trkpt>
<trkpt lat="42.305745" lon="3.269553"><ele>150.3</ele><time>2011-05-16T09:03:00Z</time></trkpt>
<trkpt lat="42.305772" lon="3.269398"><ele>150.2</ele><time>2011-05-16T09:03:05Z</time></trkpt>
<trkpt lat="42.305813" lon="3.269247"><ele>150.7</ele><time>2011-05-16T09:03:10Z</time></trkpt>
<trkpt lat="42.305878" lon="3.269152"><ele>151.5</ele><time>2011-05-16T09:03:15Z</time></trkpt>
<trkpt lat="42.305947" lon="3.269062"><ele>152.1</ele><time>2011-05-16T09:03:20Z</time></trkpt>
<trkpt lat="42.305992" lon="3.268962"><ele>153.2</ele><time>2011-05-16T09:03:25Z</time></trkpt>
<trkpt lat="42.306030" lon="3.268872"><ele>154.4</ele><time>2011-05-16T09:03:30Z</time></trkpt>
<trkpt lat="42.306065" lon="3.268768"><ele>155.4</ele><time>2011-05-16T09:03:35Z</time></trkpt>
<trkpt lat="42.306068" lon="3.268653"><ele>156.2</ele><time>2011-05-16T09:03:40Z</time></trkpt>
<trkpt lat="42.306053" lon="3.268550"><ele>157.1</ele><time>2011-05-16T09:03:45Z</time></trkpt>
<trkpt lat="42.306042" lon="3.268435"><ele>158.1</ele><time>2011-05-16T09:03:50Z</time></trkpt>
<trkpt lat="42.306057" lon="3.268322"><ele>159.1</ele><time>2011-05-16T09:03:55Z</time></trkpt>
<trkpt lat="42.306087" lon="3.268215"><ele>160</ele><time>2011-05-16T09:04:00Z</time></trkpt>
<trkpt lat="42.306133" lon="3.268127"><ele>161</ele><time>2011-05-16T09:04:05Z</time></trkpt>
<trkpt lat="42.306175" lon="3.268022"><ele>161.7</ele><time>2011-05-16T09:04:10Z</time></trkpt>
<trkpt lat="42.306225" lon="3.267910"><ele>162.3</ele><time>2011-05-16T09:04:15Z</time></trkpt>
<trkpt lat="42.306270" lon="3.267803"><ele>163</ele><time>2011-05-16T09:04:20Z</time></trkpt>
<trkpt lat="42.306328" lon="3.267690"><ele>163.6</ele><time>2011-05-16T09:04:25Z</time></trkpt>
<trkpt lat="42.306358" lon="3.267550"><ele>164</ele><time>2011-05-16T09:04:30Z</time></trkpt>
<trkpt lat="42.306320" lon="3.267410"><ele>164</ele><time>2011-05-16T09:04:35Z</time></trkpt>
<trkpt lat="42.306290" lon="3.267282"><ele>164.9</ele><time>2011-05-16T09:04:40Z</time></trkpt>
<trkpt lat="42.306340" lon="3.267167"><ele>164.9</ele><time>2011-05-16T09:04:45Z</time></trkpt>
<trkpt lat="42.306420" lon="3.267080"><ele>164.9</ele><time>2011-05-16T09:04:50Z</time></trkpt>
<trkpt lat="42.306462" lon="3.266940"><ele>164.9</ele><time>2011-05-16T09:04:55Z</time></trkpt>
<trkpt lat="42.306420" lon="3.266800"><ele>165.3</ele><time>2011-05-16T09:05:00Z</time></trkpt>
<trkpt lat="42.306373" lon="3.266645"><ele>165.6</ele><time>2011-05-16T09:05:05Z</time></trkpt>
<trkpt lat="42.306377" lon="3.266495"><ele>166.2</ele><time>2011-05-16T09:05:10Z</time></trkpt>
<trkpt lat="42.306408" lon="3.266358"><ele>166.9</ele><time>2011-05-16T09:05:15Z</time></trkpt>
<trkpt lat="42.306350" lon="3.266255"><ele>167.5</ele><time>2011-05-16T09:05:20Z</time></trkpt>
<trkpt lat="42.306237" lon="3.266272"><ele>168.2</ele><time>2011-05-16T09:05:25Z</time></trkpt>
<trkpt lat="42.306130" lon="3.266338"><ele>168.9</ele><time>2011-05-16T09:05:30Z</time></trkpt>
<trkpt lat="42.306015" lon="3.266307"><ele>169</ele><time>2011-05-16T09:05:35Z</time></trkpt>
<trkpt lat="42.305900" lon="3.266262"><ele>169.5</ele><time>2011-05-16T09:05:40Z</time></trkpt>
<trkpt lat="42.305778" lon="3.266183"><ele>169</ele><time>2011-05-16T09:05:45Z</time></trkpt>
<trkpt lat="42.305680" lon="3.266063"><ele>169.4</ele><time>2011-05-16T09:05:50Z</time></trkpt>
<trkpt lat="42.305642" lon="3.265932"><ele>170.8</ele><time>2011-05-16T09:05:55Z</time></trkpt>
<trkpt lat="42.305710" lon="3.265823"><ele>171.8</ele><time>2011-05-16T09:06:00Z</time></trkpt>
<trkpt lat="42.305802" lon="3.265747"><ele>172.8</ele><time>2011-05-16T09:06:05Z</time></trkpt>
<trkpt lat="42.305920" lon="3.265722"><ele>173.3</ele><time>2011-05-16T09:06:10Z</time></trkpt>
<trkpt lat="42.306027" lon="3.265708"><ele>174.1</ele><time>2011-05-16T09:06:15Z</time></trkpt>
<trkpt lat="42.306095" lon="3.265620"><ele>175.2</ele><time>2011-05-16T09:06:20Z</time></trkpt>
<trkpt lat="42.306087" lon="3.265502"><ele>175.8</ele><time>2011-05-16T09:06:25Z</time></trkpt>
<trkpt lat="42.305997" lon="3.265445"><ele>176.4</ele><time>2011-05-16T09:06:30Z</time></trkpt>
<trkpt lat="42.305885" lon="3.265480"><ele>177</ele><time>2011-05-16T09:06:35Z</time></trkpt>
<trkpt lat="42.305763" lon="3.265488"><ele>177.5</ele><time>2011-05-16T09:06:40Z</time></trkpt>
<trkpt lat="42.305633" lon="3.265508"><ele>177.6</ele><time>2011-05-16T09:06:45Z</time></trkpt>
<trkpt lat="42.305500" lon="3.265553"><ele>177.6</ele><time>2011-05-16T09:06:50Z</time></trkpt>
<trkpt lat="42.305373" lon="3.265640"><ele>178.5</ele><time>2011-05-16T09:06:55Z</time></trkpt>
<trkpt lat="42.305257" lon="3.265650"><ele>179.3</ele><time>2011-05-16T09:07:00Z</time></trkpt>
<trkpt lat="42.305165" lon="3.265637"><ele>179.6</ele><time>2011-05-16T09:07:05Z</time></trkpt>
<trkpt lat="42.305148" lon="3.265690"><ele>179.8</ele><time>2011-05-16T09:07:10Z</time></trkpt>
<trkpt lat="42.305145" lon="3.265707"><ele>180.1</ele><time>2011-05-16T09:07:15Z</time></trkpt>
<trkpt lat="42.305145" lon="3.265723"><ele>180.5</ele><time>2011-05-16T09:07:20Z</time></trkpt>
<trkpt lat="42.305145" lon="3.265723"><ele>180.7</ele><time>2011-05-16T09:07:25Z</time></trkpt>
<trkpt lat="42.305145" lon="3.265722"><ele>180.8</ele><time>2011-05-16T09:07:30Z</time></trkpt>
<trkpt lat="42.305145" lon="3.265720"><ele>180.9</ele><time>2011-05-16T09:07:35Z</time></trkpt>
<trkpt lat="42.305145" lon="3.265720"><ele>180.9</ele><time>2011-05-16T09:07:40Z</time></trkpt>
<trkpt lat="42.305145" lon="3.265718"><ele>180.8</ele><time>2011-05-16T09:07:45Z</time></trkpt>
<trkpt lat="42.305145" lon="3.265718"><ele>180.8</ele><time>2011-05-16T09:07:50Z</time></trkpt>
<trkpt lat="42.305145" lon="3.265717"><ele>180.7</ele><time>2011-05-16T09:07:55Z</time></trkpt>
<trkpt lat="42.305145" lon="3.265717"><ele>180.7</ele><time>2011-05-16T09:08:00Z</time></trkpt>
<trkpt lat="42.305145" lon="3.265717"><ele>180.7</ele><time>2011-05-16T09:08:05Z</time></trkpt>
<trkpt lat="42.305148" lon="3.265718"><ele>180.6</ele><time>2011-05-16T09:08:10Z</time></trkpt>
<trkpt lat="42.305142" lon="3.265698"><ele>180.6</ele><time>2011-05-16T09:08:15Z</time></trkpt>
<trkpt lat="42.305160" lon="3.265668"><ele>180.6</ele><time>2011-05-16T09:08:20Z</time></trkpt>
<trkpt lat="42.305157" lon="3.265590"><ele>180.6</ele><time>2011-05-16T09:08:25Z</time></trkpt>
<trkpt lat="42.305065" lon="3.265523"><ele>180.7</ele><time>2011-05-16T09:08:30Z</time></trkpt>
<trkpt lat="42.305020" lon="3.265425"><ele>181.2</ele><time>2011-05-16T09:08:35Z</time></trkpt>
<trkpt lat="42.304993" lon="3.265333"><ele>181.7</ele><time>2011-05-16T09:08:40Z</time></trkpt>
<trkpt lat="42.305003" lon="3.265245"><ele>182.3</ele><time>2011-05-16T09:08:45Z</time></trkpt>
<trkpt lat="42.304997" lon="3.265152"><ele>183.4</ele><time>2011-05-16T09:08:50Z</time></trkpt>
<trkpt lat="42.304988" lon="3.265067"><ele>184.6</ele><time>2011-05-16T09:08:55Z</time></trkpt>
<trkpt lat="42.304985" lon="3.264963"><ele>185.9</ele><time>2011-05-16T09:09:00Z</time></trkpt>
<trkpt lat="42.304993" lon="3.264900"><ele>186.9</ele><time>2011-05-16T09:09:05Z</time></trkpt>
<trkpt lat="42.304985" lon="3.264888"><ele>187</ele><time>2011-05-16T09:09:10Z</time></trkpt>
<trkpt lat="42.304982" lon="3.264857"><ele>187.6</ele><time>2011-05-16T09:09:15Z</time></trkpt>
<trkpt lat="42.304982" lon="3.264858"><ele>187.6</ele><time>2011-05-16T09:09:20Z</time></trkpt>
<trkpt lat="42.304973" lon="3.264847"><ele>187.7</ele><time>2011-05-16T09:09:25Z</time></trkpt>
<trkpt lat="42.304955" lon="3.264807"><ele>188.7</ele><time>2011-05-16T09:09:30Z</time></trkpt>
<trkpt lat="42.304950" lon="3.264790"><ele>189.1</ele><time>2011-05-16T09:09:35Z</time></trkpt>
<trkpt lat="42.304943" lon="3.264790"><ele>189.1</ele><time>2011-05-16T09:09:40Z</time></trkpt>
<trkpt lat="42.304878" lon="3.264772"><ele>190</ele><time>2011-05-16T09:09:45Z</time></trkpt>
<trkpt lat="42.304822" lon="3.264738"><ele>191</ele><time>2011-05-16T09:09:50Z</time></trkpt>
<trkpt lat="42.304757" lon="3.264728"><ele>192</ele><time>2011-05-16T09:09:55Z</time></trkpt>
<trkpt lat="42.304677" lon="3.264732"><ele>192.4</ele><time>2011-05-16T09:10:00Z</time></trkpt>
<trkpt lat="42.304585" lon="3.264740"><ele>192.4</ele><time>2011-05-16T09:10:05Z</time></trkpt>
<trkpt lat="42.304482" lon="3.264742"><ele>192.2</ele><time>2011-05-16T09:10:10Z</time></trkpt>
<trkpt lat="42.304408" lon="3.264700"><ele>192.6</ele><time>2011-05-16T09:10:15Z</time></trkpt>
<trkpt lat="42.304333" lon="3.264683"><ele>193.4</ele><time>2011-05-16T09:10:20Z</time></trkpt>
<trkpt lat="42.304257" lon="3.264655"><ele>194.4</ele><time>2011-05-16T09:10:25Z</time></trkpt>
<trkpt lat="42.304200" lon="3.264595"><ele>195.8</ele><time>2011-05-16T09:10:30Z</time></trkpt>
<trkpt lat="42.304123" lon="3.264588"><ele>197.3</ele><time>2011-05-16T09:10:35Z</time></trkpt>
<trkpt lat="42.304050" lon="3.264570"><ele>198.5</ele><time>2011-05-16T09:10:40Z</time></trkpt>
<trkpt lat="42.304012" lon="3.264547"><ele>199.4</ele><time>2011-05-16T09:10:45Z</time></trkpt>
<trkpt lat="42.303993" lon="3.264535"><ele>199.9</ele><time>2011-05-16T09:10:50Z</time></trkpt>
<trkpt lat="42.303958" lon="3.264527"><ele>200.9</ele><time>2011-05-16T09:10:55Z</time></trkpt>
<trkpt lat="42.303920" lon="3.264538"><ele>201.9</ele><time>2011-05-16T09:11:00Z</time></trkpt>
<trkpt lat="42.303887" lon="3.264527"><ele>202.8</ele><time>2011-05-16T09:11:05Z</time></trkpt>
<trkpt lat="42.303848" lon="3.264512"><ele>203.7</ele><time>2011-05-16T09:11:10Z</time></trkpt>
<trkpt lat="42.303810" lon="3.264512"><ele>204.6</ele><time>2011-05-16T09:11:15Z</time></trkpt>
<trkpt lat="42.303810" lon="3.264507"><ele>204.8</ele><time>2011-05-16T09:11:20Z</time></trkpt>
<trkpt lat="42.303810" lon="3.264508"><ele>204.8</ele><time>2011-05-16T09:11:25Z</time></trkpt>
<trkpt lat="42.303772" lon="3.264525"><ele>205.5</ele><time>2011-05-16T09:11:30Z</time></trkpt>
<trkpt lat="42.303715" lon="3.264510"><ele>206.9</ele><time>2011-05-16T09:11:35Z</time></trkpt>
<trkpt lat="42.303662" lon="3.264455"><ele>208.4</ele><time>2011-05-16T09:11:40Z</time></trkpt>
<trkpt lat="42.303582" lon="3.264458"><ele>209</ele><time>2011-05-16T09:11:45Z</time></trkpt>
<trkpt lat="42.303478" lon="3.264437"><ele>208.9</ele><time>2011-05-16T09:11:50Z</time></trkpt>
<trkpt lat="42.303390" lon="3.264375"><ele>209.1</ele><time>2011-05-16T09:11:55Z</time></trkpt>
<trkpt lat="42.303342" lon="3.264257"><ele>209.4</ele><time>2011-05-16T09:12:00Z</time></trkpt>
<trkpt lat="42.303398" lon="3.264185"><ele>210.9</ele><time>2011-05-16T09:12:05Z</time></trkpt>
<trkpt lat="42.303437" lon="3.264083"><ele>212.2</ele><time>2011-05-16T09:12:10Z</time></trkpt>
<trkpt lat="42.303475" lon="3.263975"><ele>213.1</ele><time>2011-05-16T09:12:15Z</time></trkpt>
<trkpt lat="42.303513" lon="3.263858"><ele>214</ele><time>2011-05-16T09:12:20Z</time></trkpt>
<trkpt lat="42.303532" lon="3.263723"><ele>214.4</ele><time>2011-05-16T09:12:25Z</time></trkpt>
<trkpt lat="42.303562" lon="3.263600"><ele>215</ele><time>2011-05-16T09:12:30Z</time></trkpt>
<trkpt lat="42.303597" lon="3.263483"><ele>216.2</ele><time>2011-05-16T09:12:35Z</time></trkpt>
<trkpt lat="42.303620" lon="3.263382"><ele>218</ele><time>2011-05-16T09:12:40Z</time></trkpt>
<trkpt lat="42.303673" lon="3.263303"><ele>219.5</ele><time>2011-05-16T09:12:45Z</time></trkpt>
<trkpt lat="42.303700" lon="3.263203"><ele>220.4</ele><time>2011-05-16T09:12:50Z</time></trkpt>
<trkpt lat="42.303733" lon="3.263098"><ele>220.6</ele><time>2011-05-16T09:12:55Z</time></trkpt>
<trkpt lat="42.303748" lon="3.262977"><ele>220.8</ele><time>2011-05-16T09:13:00Z</time></trkpt>
<trkpt lat="42.303760" lon="3.262863"><ele>221.4</ele><time>2011-05-16T09:13:05Z</time></trkpt>
<trkpt lat="42.303753" lon="3.262760"><ele>222.6</ele><time>2011-05-16T09:13:10Z</time></trkpt>
<trkpt lat="42.303787" lon="3.262660"><ele>223.8</ele><time>2011-05-16T09:13:15Z</time></trkpt>
<trkpt lat="42.303830" lon="3.262563"><ele>224.6</ele><time>2011-05-16T09:13:20Z</time></trkpt>
<trkpt lat="42.303902" lon="3.262500"><ele>225.3</ele><time>2011-05-16T09:13:25Z</time></trkpt>
<trkpt lat="42.303958" lon="3.262440"><ele>225.8</ele><time>2011-05-16T09:13:30Z</time></trkpt>
<trkpt lat="42.303963" lon="3.262432"><ele>225.9</ele><time>2011-05-16T09:13:35Z</time></trkpt>
<trkpt lat="42.303967" lon="3.262435"><ele>226.2</ele><time>2011-05-16T09:13:40Z</time></trkpt>
<trkpt lat="42.303973" lon="3.262432"><ele>226.5</ele><time>2011-05-16T09:13:45Z</time></trkpt>
<trkpt lat="42.303973" lon="3.262435"><ele>226.5</ele><time>2011-05-16T09:13:50Z</time></trkpt>
<trkpt lat="42.303990" lon="3.262432"><ele>226.7</ele><time>2011-05-16T09:13:55Z</time></trkpt>
<trkpt lat="42.304038" lon="3.262402"><ele>227</ele><time>2011-05-16T09:14:00Z</time></trkpt>
<trkpt lat="42.304123" lon="3.262338"><ele>226.8</ele><time>2011-05-16T09:14:05Z</time></trkpt>
<trkpt lat="42.304203" lon="3.262253"><ele>226.7</ele><time>2011-05-16T09:14:10Z</time></trkpt>
<trkpt lat="42.304298" lon="3.262157"><ele>226.7</ele><time>2011-05-16T09:14:15Z</time></trkpt>
<trkpt lat="42.304398" lon="3.262057"><ele>226.8</ele><time>2011-05-16T09:14:20Z</time></trkpt>
<trkpt lat="42.304488" lon="3.261965"><ele>227.1</ele><time>2011-05-16T09:14:25Z</time></trkpt>
<trkpt lat="42.304585" lon="3.261873"><ele>227.7</ele><time>2011-05-16T09:14:30Z</time></trkpt>
<trkpt lat="42.304680" lon="3.261758"><ele>227.8</ele><time>2011-05-16T09:14:35Z</time></trkpt>
<trkpt lat="42.304757" lon="3.261633"><ele>227.9</ele><time>2011-05-16T09:14:40Z</time></trkpt>
<trkpt lat="42.304742" lon="3.261477"><ele>227.2</ele><time>2011-05-16T09:14:45Z</time></trkpt>
<trkpt lat="42.304783" lon="3.261297"><ele>226.1</ele><time>2011-05-16T09:14:50Z</time></trkpt>
<trkpt lat="42.304798" lon="3.261088"><ele>224.4</ele><time>2011-05-16T09:14:55Z</time></trkpt>
<trkpt lat="42.304790" lon="3.260815"><ele>223.3</ele><time>2011-05-16T09:15:00Z</time></trkpt>
<trkpt lat="42.304852" lon="3.260635"><ele>223.5</ele><time>2011-05-16T09:15:05Z</time></trkpt>
<trkpt lat="42.304950" lon="3.260490"><ele>223.1</ele><time>2011-05-16T09:15:10Z</time></trkpt>
<trkpt lat="42.305085" lon="3.260358"><ele>222.5</ele><time>2011-05-16T09:15:15Z</time></trkpt>
<trkpt lat="42.305183" lon="3.260183"><ele>221.9</ele><time>2011-05-16T09:15:20Z</time></trkpt>
<trkpt lat="42.305180" lon="3.259977"><ele>221.4</ele><time>2011-05-16T09:15:25Z</time></trkpt>
<trkpt lat="42.305160" lon="3.259842"><ele>221.3</ele><time>2011-05-16T09:15:30Z</time></trkpt>
<trkpt lat="42.305180" lon="3.259723"><ele>221.5</ele><time>2011-05-16T09:15:35Z</time></trkpt>
<trkpt lat="42.305278" lon="3.259632"><ele>221.4</ele><time>2011-05-16T09:15:40Z</time></trkpt>
<trkpt lat="42.305402" lon="3.259613"><ele>221.7</ele><time>2011-05-16T09:15:45Z</time></trkpt>
<trkpt lat="42.305538" lon="3.259582"><ele>221.8</ele><time>2011-05-16T09:15:50Z</time></trkpt>
<trkpt lat="42.305663" lon="3.259493"><ele>221.3</ele><time>2011-05-16T09:15:55Z</time></trkpt>
<trkpt lat="42.305798" lon="3.259368"><ele>220.4</ele><time>2011-05-16T09:16:00Z</time></trkpt>
<trkpt lat="42.305923" lon="3.259230"><ele>219.2</ele><time>2011-05-16T09:16:05Z</time></trkpt>
<trkpt lat="42.306057" lon="3.259095"><ele>218</ele><time>2011-05-16T09:16:10Z</time></trkpt>
<trkpt lat="42.306202" lon="3.258995"><ele>217.6</ele><time>2011-05-16T09:16:15Z</time></trkpt>
<trkpt lat="42.306350" lon="3.258887"><ele>216.9</ele><time>2011-05-16T09:16:20Z</time></trkpt>
<trkpt lat="42.306495" lon="3.258743"><ele>215.8</ele><time>2011-05-16T09:16:25Z</time></trkpt>
<trkpt lat="42.306610" lon="3.258565"><ele>214.7</ele><time>2011-05-16T09:16:30Z</time></trkpt>
<trkpt lat="42.306725" lon="3.258388"><ele>214.2</ele><time>2011-05-16T09:16:35Z</time></trkpt>
<trkpt lat="42.306888" lon="3.258250"><ele>214.5</ele><time>2011-05-16T09:16:40Z</time></trkpt>
<trkpt lat="42.307063" lon="3.258098"><ele>214.3</ele><time>2011-05-16T09:16:45Z</time></trkpt>
<trkpt lat="42.307208" lon="3.257933"><ele>214.2</ele><time>2011-05-16T09:16:50Z</time></trkpt>
<trkpt lat="42.307332" lon="3.257728"><ele>213.4</ele><time>2011-05-16T09:16:55Z</time></trkpt>
<trkpt lat="42.307460" lon="3.257523"><ele>212.5</ele><time>2011-05-16T09:17:00Z</time></trkpt>
<trkpt lat="42.307563" lon="3.257307"><ele>211.6</ele><time>2011-05-16T09:17:05Z</time></trkpt>
<trkpt lat="42.307652" lon="3.257080"><ele>210.8</ele><time>2011-05-16T09:17:10Z</time></trkpt>
<trkpt lat="42.307568" lon="3.256885"><ele>210.3</ele><time>2011-05-16T09:17:15Z</time></trkpt>
<trkpt lat="42.307400" lon="3.256742"><ele>209.3</ele><time>2011-05-16T09:17:20Z</time></trkpt>
<trkpt lat="42.307232" lon="3.256585"><ele>208.9</ele><time>2011-05-16T09:17:25Z</time></trkpt>
<trkpt lat="42.307072" lon="3.256417"><ele>209</ele><time>2011-05-16T09:17:30Z</time></trkpt>
<trkpt lat="42.306950" lon="3.256265"><ele>209.5</ele><time>2011-05-16T09:17:35Z</time></trkpt>
<trkpt lat="42.306790" lon="3.256163"><ele>210.3</ele><time>2011-05-16T09:17:40Z</time></trkpt>
<trkpt lat="42.306633" lon="3.256132"><ele>210.9</ele><time>2011-05-16T09:17:45Z</time></trkpt>
<trkpt lat="42.306458" lon="3.256105"><ele>211.5</ele><time>2011-05-16T09:17:50Z</time></trkpt>
<trkpt lat="42.306367" lon="3.256100"><ele>212.6</ele><time>2011-05-16T09:17:55Z</time></trkpt>
<trkpt lat="42.306290" lon="3.256072"><ele>213.6</ele><time>2011-05-16T09:18:00Z</time></trkpt>
<trkpt lat="42.306198" lon="3.256055"><ele>214.8</ele><time>2011-05-16T09:18:05Z</time></trkpt>
<trkpt lat="42.306118" lon="3.256087"><ele>215.5</ele><time>2011-05-16T09:18:10Z</time></trkpt>
<trkpt lat="42.306023" lon="3.256098"><ele>216.2</ele><time>2011-05-16T09:18:15Z</time></trkpt>
<trkpt lat="42.305932" lon="3.256103"><ele>216.7</ele><time>2011-05-16T09:18:20Z</time></trkpt>
<trkpt lat="42.305832" lon="3.256103"><ele>217.4</ele><time>2011-05-16T09:18:25Z</time></trkpt>
<trkpt lat="42.305733" lon="3.256115"><ele>218.4</ele><time>2011-05-16T09:18:30Z</time></trkpt>
<trkpt lat="42.305633" lon="3.256140"><ele>219.5</ele><time>2011-05-16T09:18:35Z</time></trkpt>
<trkpt lat="42.305523" lon="3.256217"><ele>220</ele><time>2011-05-16T09:18:40Z</time></trkpt>
<trkpt lat="42.305423" lon="3.256315"><ele>219.7</ele><time>2011-05-16T09:18:45Z</time></trkpt>
<trkpt lat="42.305310" lon="3.256270"><ele>219.2</ele><time>2011-05-16T09:18:50Z</time></trkpt>
<trkpt lat="42.305180" lon="3.256158"><ele>219</ele><time>2011-05-16T09:18:55Z</time></trkpt>
<trkpt lat="42.305030" lon="3.256017"><ele>219.3</ele><time>2011-05-16T09:19:00Z</time></trkpt>
<trkpt lat="42.304852" lon="3.255963"><ele>218.4</ele><time>2011-05-16T09:19:05Z</time></trkpt>
<trkpt lat="42.304795" lon="3.255883"><ele>217.7</ele><time>2011-05-16T09:19:10Z</time></trkpt>
<trkpt lat="42.304852" lon="3.255797"><ele>217.3</ele><time>2011-05-16T09:19:15Z</time></trkpt>
<trkpt lat="42.304913" lon="3.255675"><ele>216.3</ele><time>2011-05-16T09:19:20Z</time></trkpt>
<trkpt lat="42.304825" lon="3.255490"><ele>215.1</ele><time>2011-05-16T09:19:25Z</time></trkpt>
<trkpt lat="42.304668" lon="3.255345"><ele>214.6</ele><time>2011-05-16T09:19:30Z</time></trkpt>
<trkpt lat="42.304570" lon="3.255257"><ele>215</ele><time>2011-05-16T09:19:35Z</time></trkpt>
<trkpt lat="42.304585" lon="3.255150"><ele>215.8</ele><time>2011-05-16T09:19:40Z</time></trkpt>
<trkpt lat="42.304722" lon="3.255167"><ele>216.2</ele><time>2011-05-16T09:19:45Z</time></trkpt>
<trkpt lat="42.304870" lon="3.255222"><ele>216.1</ele><time>2011-05-16T09:19:50Z</time></trkpt>
<trkpt lat="42.305035" lon="3.255290"><ele>215.9</ele><time>2011-05-16T09:19:55Z</time></trkpt>
<trkpt lat="42.305180" lon="3.255372"><ele>216.1</ele><time>2011-05-16T09:20:00Z</time></trkpt>
<trkpt lat="42.305337" lon="3.255380"><ele>216.3</ele><time>2011-05-16T09:20:05Z</time></trkpt>
<trkpt lat="42.305477" lon="3.255295"><ele>216.6</ele><time>2011-05-16T09:20:10Z</time></trkpt>
<trkpt lat="42.305603" lon="3.255172"><ele>216.7</ele><time>2011-05-16T09:20:15Z</time></trkpt>
<trkpt lat="42.305710" lon="3.255028"><ele>216.9</ele><time>2011-05-16T09:20:20Z</time></trkpt>
<trkpt lat="42.305798" lon="3.254858"><ele>217.5</ele><time>2011-05-16T09:20:25Z</time></trkpt>
<trkpt lat="42.305867" lon="3.254718"><ele>218.8</ele><time>2011-05-16T09:20:30Z</time></trkpt>
<trkpt lat="42.305893" lon="3.254570"><ele>219.6</ele><time>2011-05-16T09:20:35Z</time></trkpt>
<trkpt lat="42.305920" lon="3.254405"><ele>220.1</ele><time>2011-05-16T09:20:40Z</time></trkpt>
<trkpt lat="42.305988" lon="3.254323"><ele>220.8</ele><time>2011-05-16T09:20:45Z</time></trkpt>
<trkpt lat="42.306107" lon="3.254305"><ele>221.5</ele><time>2011-05-16T09:20:50Z</time></trkpt>
<trkpt lat="42.306248" lon="3.254268"><ele>222.2</ele><time>2011-05-16T09:20:55Z</time></trkpt>
<trkpt lat="42.306367" lon="3.254197"><ele>222.8</ele><time>2011-05-16T09:21:00Z</time></trkpt>
<trkpt lat="42.306450" lon="3.254030"><ele>222.5</ele><time>2011-05-16T09:21:05Z</time></trkpt>
<trkpt lat="42.306515" lon="3.253880"><ele>223.2</ele><time>2011-05-16T09:21:10Z</time></trkpt>
<trkpt lat="42.306560" lon="3.253717"><ele>223.1</ele><time>2011-05-16T09:21:15Z</time></trkpt>
<trkpt lat="42.306657" lon="3.253617"><ele>223.9</ele><time>2011-05-16T09:21:20Z</time></trkpt>
<trkpt lat="42.306790" lon="3.253635"><ele>224.5</ele><time>2011-05-16T09:21:25Z</time></trkpt>
<trkpt lat="42.306908" lon="3.253658"><ele>225.2</ele><time>2011-05-16T09:21:30Z</time></trkpt>
<trkpt lat="42.307030" lon="3.253595"><ele>224.8</ele><time>2011-05-16T09:21:35Z</time></trkpt>
<trkpt lat="42.307190" lon="3.253437"><ele>223.5</ele><time>2011-05-16T09:21:40Z</time></trkpt>
<trkpt lat="42.307365" lon="3.253383"><ele>223.9</ele><time>2011-05-16T09:21:45Z</time></trkpt>
<trkpt lat="42.307545" lon="3.253320"><ele>223.7</ele><time>2011-05-16T09:21:50Z</time></trkpt>
<trkpt lat="42.307720" lon="3.253312"><ele>224.7</ele><time>2011-05-16T09:21:55Z</time></trkpt>
<trkpt lat="42.307853" lon="3.253303"><ele>226.2</ele><time>2011-05-16T09:22:00Z</time></trkpt>
<trkpt lat="42.307983" lon="3.253215"><ele>226.9</ele><time>2011-05-16T09:22:05Z</time></trkpt>
<trkpt lat="42.308087" lon="3.253078"><ele>227.8</ele><time>2011-05-16T09:22:10Z</time></trkpt>
<trkpt lat="42.308163" lon="3.252903"><ele>228.2</ele><time>2011-05-16T09:22:15Z</time></trkpt>
<trkpt lat="42.308243" lon="3.252723"><ele>228.1</ele><time>2011-05-16T09:22:20Z</time></trkpt>
<trkpt lat="42.308330" lon="3.252532"><ele>228.1</ele><time>2011-05-16T09:22:25Z</time></trkpt>
<trkpt lat="42.308400" lon="3.252313"><ele>228.3</ele><time>2011-05-16T09:22:30Z</time></trkpt>
<trkpt lat="42.308427" lon="3.252103"><ele>228.4</ele><time>2011-05-16T09:22:35Z</time></trkpt>
<trkpt lat="42.308288" lon="3.252027"><ele>228.5</ele><time>2011-05-16T09:22:40Z</time></trkpt>
<trkpt lat="42.308110" lon="3.251985"><ele>228.7</ele><time>2011-05-16T09:22:45Z</time></trkpt>
<trkpt lat="42.307942" lon="3.251883"><ele>228.7</ele><time>2011-05-16T09:22:50Z</time></trkpt>
<trkpt lat="42.307788" lon="3.251725"><ele>229.1</ele><time>2011-05-16T09:22:55Z</time></trkpt>
<trkpt lat="42.307632" lon="3.251572"><ele>229.8</ele><time>2011-05-16T09:23:00Z</time></trkpt>
<trkpt lat="42.307472" lon="3.251430"><ele>230.7</ele><time>2011-05-16T09:23:05Z</time></trkpt>
<trkpt lat="42.307288" lon="3.251303"><ele>231</ele><time>2011-05-16T09:23:10Z</time></trkpt>
<trkpt lat="42.307087" lon="3.251180"><ele>230.7</ele><time>2011-05-16T09:23:15Z</time></trkpt>
<trkpt lat="42.306900" lon="3.251045"><ele>230.8</ele><time>2011-05-16T09:23:20Z</time></trkpt>
<trkpt lat="42.306720" lon="3.250932"><ele>230.6</ele><time>2011-05-16T09:23:25Z</time></trkpt>
<trkpt lat="42.306672" lon="3.250700"><ele>231.1</ele><time>2011-05-16T09:23:30Z</time></trkpt>
<trkpt lat="42.306602" lon="3.250548"><ele>230.2</ele><time>2011-05-16T09:23:35Z</time></trkpt>
<trkpt lat="42.306583" lon="3.250390"><ele>230.3</ele><time>2011-05-16T09:23:40Z</time></trkpt>
<trkpt lat="42.306667" lon="3.250220"><ele>232</ele><time>2011-05-16T09:23:45Z</time></trkpt>
<trkpt lat="42.306725" lon="3.250072"><ele>233.1</ele><time>2011-05-16T09:23:50Z</time></trkpt>
<trkpt lat="42.306758" lon="3.249872"><ele>231.9</ele><time>2011-05-16T09:23:55Z</time></trkpt>
<trkpt lat="42.306778" lon="3.249635"><ele>229.4</ele><time>2011-05-16T09:24:00Z</time></trkpt>
<trkpt lat="42.306770" lon="3.249343"><ele>226.6</ele><time>2011-05-16T09:24:05Z</time></trkpt>
<trkpt lat="42.306828" lon="3.249040"><ele>225.2</ele><time>2011-05-16T09:24:10Z</time></trkpt>
<trkpt lat="42.306838" lon="3.248768"><ele>224.2</ele><time>2011-05-16T09:24:15Z</time></trkpt>
<trkpt lat="42.306968" lon="3.248697"><ele>224.3</ele><time>2011-05-16T09:24:20Z</time></trkpt>
<trkpt lat="42.307098" lon="3.248700"><ele>224.8</ele><time>2011-05-16T09:24:25Z</time></trkpt>
<trkpt lat="42.307240" lon="3.248735"><ele>225.2</ele><time>2011-05-16T09:24:30Z</time></trkpt>
<trkpt lat="42.307412" lon="3.248842"><ele>224.9</ele><time>2011-05-16T09:24:35Z</time></trkpt>
<trkpt lat="42.307578" lon="3.248912"><ele>225</ele><time>2011-05-16T09:24:40Z</time></trkpt>
<trkpt lat="42.307720" lon="3.248883"><ele>225.1</ele><time>2011-05-16T09:24:45Z</time></trkpt>
<trkpt lat="42.307907" lon="3.248895"><ele>225.8</ele><time>2011-05-16T09:24:50Z</time></trkpt>
<trkpt lat="42.308072" lon="3.248855"><ele>225.6</ele><time>2011-05-16T09:24:55Z</time></trkpt>
<trkpt lat="42.308182" lon="3.248690"><ele>225.5</ele><time>2011-05-16T09:25:00Z</time></trkpt>
<trkpt lat="42.308205" lon="3.248413"><ele>224.8</ele><time>2011-05-16T09:25:05Z</time></trkpt>
<trkpt lat="42.308143" lon="3.248145"><ele>223.8</ele><time>2011-05-16T09:25:10Z</time></trkpt>
<trkpt lat="42.308105" lon="3.247948"><ele>223.8</ele><time>2011-05-16T09:25:15Z</time></trkpt>
<trkpt lat="42.308265" lon="3.247892"><ele>224.4</ele><time>2011-05-16T09:25:20Z</time></trkpt>
<trkpt lat="42.308427" lon="3.247847"><ele>225.2</ele><time>2011-05-16T09:25:25Z</time></trkpt>
<trkpt lat="42.308528" lon="3.247723"><ele>226.6</ele><time>2011-05-16T09:25:30Z</time></trkpt>
<trkpt lat="42.308613" lon="3.247542"><ele>227.5</ele><time>2011-05-16T09:25:35Z</time></trkpt>
<trkpt lat="42.308708" lon="3.247335"><ele>227.9</ele><time>2011-05-16T09:25:40Z</time></trkpt>
<trkpt lat="42.308797" lon="3.247138"><ele>227.5</ele><time>2011-05-16T09:25:45Z</time></trkpt>
<trkpt lat="42.308818" lon="3.246918"><ele>227.7</ele><time>2011-05-16T09:25:50Z</time></trkpt>
<trkpt lat="42.308800" lon="3.246748"><ele>228.2</ele><time>2011-05-16T09:25:55Z</time></trkpt>
<trkpt lat="42.308765" lon="3.246652"><ele>228.9</ele><time>2011-05-16T09:26:00Z</time></trkpt>
<trkpt lat="42.308712" lon="3.246563"><ele>229.4</ele><time>2011-05-16T09:26:05Z</time></trkpt>
<trkpt lat="42.308667" lon="3.246475"><ele>230.3</ele><time>2011-05-16T09:26:10Z</time></trkpt>
<trkpt lat="42.308602" lon="3.246387"><ele>231.2</ele><time>2011-05-16T09:26:15Z</time></trkpt>
<trkpt lat="42.308617" lon="3.246298"><ele>231.6</ele><time>2011-05-16T09:26:20Z</time></trkpt>
<trkpt lat="42.308732" lon="3.246283"><ele>231.6</ele><time>2011-05-16T09:26:25Z</time></trkpt>
<trkpt lat="42.308842" lon="3.246243"><ele>232.6</ele><time>2011-05-16T09:26:30Z</time></trkpt>
<trkpt lat="42.308937" lon="3.246205"><ele>234.5</ele><time>2011-05-16T09:26:35Z</time></trkpt>
<trkpt lat="42.309040" lon="3.246127"><ele>235.2</ele><time>2011-05-16T09:26:40Z</time></trkpt>
<trkpt lat="42.309120" lon="3.246033"><ele>235.9</ele><time>2011-05-16T09:26:45Z</time></trkpt>
<trkpt lat="42.309182" lon="3.245905"><ele>236.7</ele><time>2011-05-16T09:26:50Z</time></trkpt>
<trkpt lat="42.309273" lon="3.245798"><ele>236.2</ele><time>2011-05-16T09:26:55Z</time></trkpt>
<trkpt lat="42.309392" lon="3.245722"><ele>235.9</ele><time>2011-05-16T09:27:00Z</time></trkpt>
<trkpt lat="42.309437" lon="3.245600"><ele>236.9</ele><time>2011-05-16T09:27:05Z</time></trkpt>
<trkpt lat="42.309457" lon="3.245508"><ele>238.6</ele><time>2011-05-16T09:27:10Z</time></trkpt>
<trkpt lat="42.309525" lon="3.245408"><ele>239.4</ele><time>2011-05-16T09:27:15Z</time></trkpt>
<trkpt lat="42.309620" lon="3.245265"><ele>238.9</ele><time>2011-05-16T09:27:20Z</time></trkpt>
<trkpt lat="42.309708" lon="3.245133"><ele>238.9</ele><time>2011-05-16T09:27:25Z</time></trkpt>
<trkpt lat="42.309757" lon="3.244973"><ele>238.6</ele><time>2011-05-16T09:27:30Z</time></trkpt>
<trkpt lat="42.309730" lon="3.244782"><ele>238.6</ele><time>2011-05-16T09:27:35Z</time></trkpt>
<trkpt lat="42.309807" lon="3.244693"><ele>239.5</ele><time>2011-05-16T09:27:40Z</time></trkpt>
<trkpt lat="42.309895" lon="3.244637"><ele>241.1</ele><time>2011-05-16T09:27:45Z</time></trkpt>
<trkpt lat="42.309975" lon="3.244543"><ele>242.2</ele><time>2011-05-16T09:27:50Z</time></trkpt>
<trkpt lat="42.310035" lon="3.244432"><ele>242.7</ele><time>2011-05-16T09:27:55Z</time></trkpt>
<trkpt lat="42.310047" lon="3.244407"><ele>242.8</ele><time>2011-05-16T09:28:00Z</time></trkpt>
<trkpt lat="42.310082" lon="3.244308"><ele>242.9</ele><time>2011-05-16T09:28:05Z</time></trkpt>
<trkpt lat="42.310127" lon="3.244157"><ele>242.7</ele><time>2011-05-16T09:28:10Z</time></trkpt>
<trkpt lat="42.310153" lon="3.243958"><ele>241.8</ele><time>2011-05-16T09:28:15Z</time></trkpt>
<trkpt lat="42.310233" lon="3.243725"><ele>241.1</ele><time>2011-05-16T09:28:20Z</time></trkpt>
<trkpt lat="42.310310" lon="3.243547"><ele>241.5</ele><time>2011-05-16T09:28:25Z</time></trkpt>
<trkpt lat="42.310375" lon="3.243375"><ele>242.6</ele><time>2011-05-16T09:28:30Z</time></trkpt>
<trkpt lat="42.310443" lon="3.243225"><ele>244.1</ele><time>2011-05-16T09:28:35Z</time></trkpt>
<trkpt lat="42.310493" lon="3.243117"><ele>245.8</ele><time>2011-05-16T09:28:40Z</time></trkpt>
<trkpt lat="42.310543" lon="3.242973"><ele>246.6</ele><time>2011-05-16T09:28:45Z</time></trkpt>
<trkpt lat="42.310600" lon="3.242833"><ele>246.3</ele><time>2011-05-16T09:28:50Z</time></trkpt>
<trkpt lat="42.310688" lon="3.242627"><ele>244</ele><time>2011-05-16T09:28:55Z</time></trkpt>
<trkpt lat="42.310813" lon="3.242430"><ele>242.7</ele><time>2011-05-16T09:29:00Z</time></trkpt>
<trkpt lat="42.310940" lon="3.242500"><ele>242.9</ele><time>2011-05-16T09:29:05Z</time></trkpt>
<trkpt lat="42.311092" lon="3.242510"><ele>243.2</ele><time>2011-05-16T09:29:10Z</time></trkpt>
<trkpt lat="42.311233" lon="3.242475"><ele>244.5</ele><time>2011-05-16T09:29:15Z</time></trkpt>
<trkpt lat="42.311375" lon="3.242383"><ele>245.3</ele><time>2011-05-16T09:29:20Z</time></trkpt>
<trkpt lat="42.311520" lon="3.242265"><ele>244.9</ele><time>2011-05-16T09:29:25Z</time></trkpt>
<trkpt lat="42.311683" lon="3.242130"><ele>243.6</ele><time>2011-05-16T09:29:30Z</time></trkpt>
<trkpt lat="42.311855" lon="3.241945"><ele>242.5</ele><time>2011-05-16T09:29:35Z</time></trkpt>
<trkpt lat="42.312000" lon="3.241748"><ele>241</ele><time>2011-05-16T09:29:40Z</time></trkpt>
<trkpt lat="42.312142" lon="3.241565"><ele>241</ele><time>2011-05-16T09:29:45Z</time></trkpt>
<trkpt lat="42.312165" lon="3.241558"><ele>241.4</ele><time>2011-05-16T09:29:50Z</time></trkpt>
<trkpt lat="42.312180" lon="3.241520"><ele>242</ele><time>2011-05-16T09:29:55Z</time></trkpt>
<trkpt lat="42.312207" lon="3.241492"><ele>242.7</ele><time>2011-05-16T09:30:00Z</time></trkpt>
<trkpt lat="42.312245" lon="3.241462"><ele>243.2</ele><time>2011-05-16T09:30:05Z</time></trkpt>
<trkpt lat="42.312278" lon="3.241423"><ele>244</ele><time>2011-05-16T09:30:10Z</time></trkpt>
<trkpt lat="42.312313" lon="3.241387"><ele>244.8</ele><time>2011-05-16T09:30:15Z</time></trkpt>
<trkpt lat="42.312352" lon="3.241362"><ele>245.8</ele><time>2011-05-16T09:30:20Z</time></trkpt>
<trkpt lat="42.312378" lon="3.241307"><ele>246.8</ele><time>2011-05-16T09:30:25Z</time></trkpt>
<trkpt lat="42.312393" lon="3.241262"><ele>248</ele><time>2011-05-16T09:30:30Z</time></trkpt>
<trkpt lat="42.312420" lon="3.241230"><ele>249.2</ele><time>2011-05-16T09:30:35Z</time></trkpt>
<trkpt lat="42.312447" lon="3.241190"><ele>250.3</ele><time>2011-05-16T09:30:40Z</time></trkpt>
<trkpt lat="42.312473" lon="3.241153"><ele>251.1</ele><time>2011-05-16T09:30:45Z</time></trkpt>
<trkpt lat="42.312492" lon="3.241107"><ele>251.8</ele><time>2011-05-16T09:30:50Z</time></trkpt>
<trkpt lat="42.312523" lon="3.241067"><ele>253</ele><time>2011-05-16T09:30:55Z</time></trkpt>
<trkpt lat="42.312550" lon="3.241020"><ele>254</ele><time>2011-05-16T09:31:00Z</time></trkpt>
<trkpt lat="42.312583" lon="3.240972"><ele>254.9</ele><time>2011-05-16T09:31:05Z</time></trkpt>
<trkpt lat="42.312615" lon="3.240925"><ele>255.6</ele><time>2011-05-16T09:31:10Z</time></trkpt>
<trkpt lat="42.312637" lon="3.240870"><ele>256.6</ele><time>2011-05-16T09:31:15Z</time></trkpt>
<trkpt lat="42.312648" lon="3.240805"><ele>257.6</ele><time>2011-05-16T09:31:20Z</time></trkpt>
<trkpt lat="42.312680" lon="3.240765"><ele>258</ele><time>2011-05-16T09:31:25Z</time></trkpt>
<trkpt lat="42.312680" lon="3.240765"><ele>258.2</ele><time>2011-05-16T09:31:30Z</time></trkpt>
<trkpt lat="42.312680" lon="3.240762"><ele>258.4</ele><time>2011-05-16T09:31:35Z</time></trkpt>
<trkpt lat="42.312680" lon="3.240760"><ele>258.6</ele><time>2011-05-16T09:31:40Z</time></trkpt>
<trkpt lat="42.312680" lon="3.240760"><ele>258.8</ele><time>2011-05-16T09:31:45Z</time></trkpt>
<trkpt lat="42.312680" lon="3.240763"><ele>259</ele><time>2011-05-16T09:31:50Z</time></trkpt>
<trkpt lat="42.312680" lon="3.240762"><ele>259</ele><time>2011-05-16T09:31:55Z</time></trkpt>
<trkpt lat="42.312690" lon="3.240775"><ele>258.9</ele><time>2011-05-16T09:32:00Z</time></trkpt>
<trkpt lat="42.312710" lon="3.240803"><ele>258.8</ele><time>2011-05-16T09:32:05Z</time></trkpt>
<trkpt lat="42.312717" lon="3.240813"><ele>258.7</ele><time>2011-05-16T09:32:10Z</time></trkpt>
<trkpt lat="42.312710" lon="3.240810"><ele>258.7</ele><time>2011-05-16T09:32:15Z</time></trkpt>
<trkpt lat="42.312687" lon="3.240763"><ele>259.1</ele><time>2011-05-16T09:32:20Z</time></trkpt>
<trkpt lat="42.312683" lon="3.240758"><ele>259.1</ele><time>2011-05-16T09:32:25Z</time></trkpt>
<trkpt lat="42.312680" lon="3.240765"><ele>259.3</ele><time>2011-05-16T09:32:30Z</time></trkpt>
<trkpt lat="42.312680" lon="3.240760"><ele>259.3</ele><time>2011-05-16T09:32:35Z</time></trkpt>
<trkpt lat="42.312675" lon="3.240760"><ele>259.2</ele><time>2011-05-16T09:32:40Z</time></trkpt>
<trkpt lat="42.312675" lon="3.240760"><ele>259.4</ele><time>2011-05-16T09:32:45Z</time></trkpt>
<trkpt lat="42.312672" lon="3.240767"><ele>259.6</ele><time>2011-05-16T09:32:50Z</time></trkpt>
<trkpt lat="42.312648" lon="3.240785"><ele>259.5</ele><time>2011-05-16T09:32:55Z</time></trkpt>
<trkpt lat="42.312648" lon="3.240785"><ele>259.2</ele><time>2011-05-16T09:33:00Z</time></trkpt>
<trkpt lat="42.312648" lon="3.240785"><ele>259</ele><time>2011-05-16T09:33:05Z</time></trkpt>
<trkpt lat="42.312645" lon="3.240787"><ele>258.9</ele><time>2011-05-16T09:33:10Z</time></trkpt>
<trkpt lat="42.312668" lon="3.240765"><ele>259.1</ele><time>2011-05-16T09:33:15Z</time></trkpt>
<trkpt lat="42.312680" lon="3.240762"><ele>259.5</ele><time>2011-05-16T09:33:20Z</time></trkpt>
<trkpt lat="42.312680" lon="3.240762"><ele>259.5</ele><time>2011-05-16T09:33:25Z</time></trkpt>
<trkpt lat="42.312680" lon="3.240762"><ele>259.5</ele><time>2011-05-16T09:33:30Z</time></trkpt>
<trkpt lat="42.312680" lon="3.240762"><ele>259.4</ele><time>2011-05-16T09:33:35Z</time></trkpt>
<trkpt lat="42.312672" lon="3.240768"><ele>259.3</ele><time>2011-05-16T09:33:40Z</time></trkpt>
<trkpt lat="42.312668" lon="3.240742"><ele>259.7</ele><time>2011-05-16T09:33:45Z</time></trkpt>
<trkpt lat="42.312645" lon="3.240695"><ele>260.7</ele><time>2011-05-16T09:33:50Z</time></trkpt>
<trkpt lat="42.312615" lon="3.240672"><ele>261.4</ele><time>2011-05-16T09:33:55Z</time></trkpt>
<trkpt lat="42.312592" lon="3.240630"><ele>262.4</ele><time>2011-05-16T09:34:00Z</time></trkpt>
<trkpt lat="42.312562" lon="3.240613"><ele>263.2</ele><time>2011-05-16T09:34:05Z</time></trkpt>
<trkpt lat="42.312550" lon="3.240605"><ele>263.3</ele><time>2011-05-16T09:34:10Z</time></trkpt>
<trkpt lat="42.312512" lon="3.240558"><ele>264.2</ele><time>2011-05-16T09:34:15Z</time></trkpt>
<trkpt lat="42.312462" lon="3.240505"><ele>265.2</ele><time>2011-05-16T09:34:20Z</time></trkpt>
<trkpt lat="42.312390" lon="3.240485"><ele>266</ele><time>2011-05-16T09:34:25Z</time></trkpt>
<trkpt lat="42.312325" lon="3.240450"><ele>266.9</ele><time>2011-05-16T09:34:30Z</time></trkpt>
<trkpt lat="42.312272" lon="3.240412"><ele>268.1</ele><time>2011-05-16T09:34:35Z</time></trkpt>
<trkpt lat="42.312213" lon="3.240405"><ele>269</ele><time>2011-05-16T09:34:40Z</time></trkpt>
<trkpt lat="42.312157" lon="3.240385"><ele>270.1</ele><time>2011-05-16T09:34:45Z</time></trkpt>
<trkpt lat="42.312103" lon="3.240357"><ele>271.3</ele><time>2011-05-16T09:34:50Z</time></trkpt>
<trkpt lat="42.312050" lon="3.240357"><ele>272.1</ele><time>2011-05-16T09:34:55Z</time></trkpt>
<trkpt lat="42.311993" lon="3.240338"><ele>272.8</ele><time>2011-05-16T09:35:00Z</time></trkpt>
<trkpt lat="42.311932" lon="3.240330"><ele>273.7</ele><time>2011-05-16T09:35:05Z</time></trkpt>
<trkpt lat="42.311870" lon="3.240320"><ele>274.7</ele><time>2011-05-16T09:35:10Z</time></trkpt>
<trkpt lat="42.311817" lon="3.240312"><ele>275.5</ele><time>2011-05-16T09:35:15Z</time></trkpt>
<trkpt lat="42.311757" lon="3.240323"><ele>276.5</ele><time>2011-05-16T09:35:20Z</time></trkpt>
<trkpt lat="42.311692" lon="3.240310"><ele>277.5</ele><time>2011-05-16T09:35:25Z</time></trkpt>
<trkpt lat="42.311630" lon="3.240320"><ele>278.4</ele><time>2011-05-16T09:35:30Z</time></trkpt>
<trkpt lat="42.311562" lon="3.240338"><ele>279.1</ele><time>2011-05-16T09:35:35Z</time></trkpt>
<trkpt lat="42.311497" lon="3.240320"><ele>280.1</ele><time>2011-05-16T09:35:40Z</time></trkpt>
<trkpt lat="42.311428" lon="3.240317"><ele>281.1</ele><time>2011-05-16T09:35:45Z</time></trkpt>
<trkpt lat="42.311363" lon="3.240287"><ele>282.2</ele><time>2011-05-16T09:35:50Z</time></trkpt>
<trkpt lat="42.311298" lon="3.240257"><ele>283</ele><time>2011-05-16T09:35:55Z</time></trkpt>
<trkpt lat="42.311230" lon="3.240268"><ele>283.4</ele><time>2011-05-16T09:36:00Z</time></trkpt>
<trkpt lat="42.311165" lon="3.240278"><ele>284.1</ele><time>2011-05-16T09:36:05Z</time></trkpt>
<trkpt lat="42.311103" lon="3.240313"><ele>285.1</ele><time>2011-05-16T09:36:10Z</time></trkpt>
<trkpt lat="42.311035" lon="3.240340"><ele>286.3</ele><time>2011-05-16T09:36:15Z</time></trkpt>
<trkpt lat="42.310970" lon="3.240360"><ele>287.3</ele><time>2011-05-16T09:36:20Z</time></trkpt>
<trkpt lat="42.310905" lon="3.240397"><ele>288.1</ele><time>2011-05-16T09:36:25Z</time></trkpt>
<trkpt lat="42.310845" lon="3.240435"><ele>289.2</ele><time>2011-05-16T09:36:30Z</time></trkpt>
<trkpt lat="42.310780" lon="3.240447"><ele>290.3</ele><time>2011-05-16T09:36:35Z</time></trkpt>
<trkpt lat="42.310718" lon="3.240495"><ele>291</ele><time>2011-05-16T09:36:40Z</time></trkpt>
<trkpt lat="42.310658" lon="3.240553"><ele>291.7</ele><time>2011-05-16T09:36:45Z</time></trkpt>
<trkpt lat="42.310585" lon="3.240602"><ele>292.3</ele><time>2011-05-16T09:36:50Z</time></trkpt>
<trkpt lat="42.310505" lon="3.240622"><ele>293.3</ele><time>2011-05-16T09:36:55Z</time></trkpt>
<trkpt lat="42.310443" lon="3.240640"><ele>294.3</ele><time>2011-05-16T09:37:00Z</time></trkpt>
<trkpt lat="42.310372" lon="3.240697"><ele>295</ele><time>2011-05-16T09:37:05Z</time></trkpt>
<trkpt lat="42.310295" lon="3.240725"><ele>296</ele><time>2011-05-16T09:37:10Z</time></trkpt>
<trkpt lat="42.310215" lon="3.240765"><ele>296.6</ele><time>2011-05-16T09:37:15Z</time></trkpt>
<trkpt lat="42.310135" lon="3.240817"><ele>297.4</ele><time>2011-05-16T09:37:20Z</time></trkpt>
<trkpt lat="42.310055" lon="3.240873"><ele>298.4</ele><time>2011-05-16T09:37:25Z</time></trkpt>
<trkpt lat="42.309982" lon="3.240975"><ele>298.7</ele><time>2011-05-16T09:37:30Z</time></trkpt>
<trkpt lat="42.309898" lon="3.241037"><ele>299.6</ele><time>2011-05-16T09:37:35Z</time></trkpt>
<trkpt lat="42.309818" lon="3.241052"><ele>300.9</ele><time>2011-05-16T09:37:40Z</time></trkpt>
<trkpt lat="42.309738" lon="3.241095"><ele>301.3</ele><time>2011-05-16T09:37:45Z</time></trkpt>
<trkpt lat="42.309655" lon="3.241108"><ele>302.3</ele><time>2011-05-16T09:37:50Z</time></trkpt>
<trkpt lat="42.309573" lon="3.241110"><ele>303.1</ele><time>2011-05-16T09:37:55Z</time></trkpt>
<trkpt lat="42.309487" lon="3.241125"><ele>304</ele><time>2011-05-16T09:38:00Z</time></trkpt>
<trkpt lat="42.309407" lon="3.241087"><ele>304.4</ele><time>2011-05-16T09:38:05Z</time></trkpt>
<trkpt lat="42.309300" lon="3.241047"><ele>304.2</ele><time>2011-05-16T09:38:10Z</time></trkpt>
<trkpt lat="42.309188" lon="3.241022"><ele>304.2</ele><time>2011-05-16T09:38:15Z</time></trkpt>
<trkpt lat="42.309082" lon="3.240998"><ele>304.4</ele><time>2011-05-16T09:38:20Z</time></trkpt>
<trkpt lat="42.309032" lon="3.240925"><ele>305.1</ele><time>2011-05-16T09:38:25Z</time></trkpt>
<trkpt lat="42.308998" lon="3.240855"><ele>306.5</ele><time>2011-05-16T09:38:30Z</time></trkpt>
<trkpt lat="42.308995" lon="3.240832"><ele>307.1</ele><time>2011-05-16T09:38:35Z</time></trkpt>
<trkpt lat="42.308983" lon="3.240790"><ele>308.2</ele><time>2011-05-16T09:38:40Z</time></trkpt>
<trkpt lat="42.308968" lon="3.240750"><ele>309.1</ele><time>2011-05-16T09:38:45Z</time></trkpt>
<trkpt lat="42.308948" lon="3.240702"><ele>310.1</ele><time>2011-05-16T09:38:50Z</time></trkpt>
<trkpt lat="42.308930" lon="3.240648"><ele>310.9</ele><time>2011-05-16T09:38:55Z</time></trkpt>
<trkpt lat="42.308930" lon="3.240637"><ele>311.1</ele><time>2011-05-16T09:39:00Z</time></trkpt>
<trkpt lat="42.308930" lon="3.240617"><ele>311.4</ele><time>2011-05-16T09:39:05Z</time></trkpt>
<trkpt lat="42.308903" lon="3.240523"><ele>312.3</ele><time>2011-05-16T09:39:10Z</time></trkpt>
<trkpt lat="42.308865" lon="3.240432"><ele>313.3</ele><time>2011-05-16T09:39:15Z</time></trkpt>
<trkpt lat="42.308830" lon="3.240332"><ele>314.9</ele><time>2011-05-16T09:39:20Z</time></trkpt>
<trkpt lat="42.308850" lon="3.240212"><ele>315.2</ele><time>2011-05-16T09:39:25Z</time></trkpt>
<trkpt lat="42.308845" lon="3.240085"><ele>315.6</ele><time>2011-05-16T09:39:30Z</time></trkpt>
<trkpt lat="42.308830" lon="3.239958"><ele>316.3</ele><time>2011-05-16T09:39:35Z</time></trkpt>
<trkpt lat="42.308812" lon="3.239840"><ele>317.1</ele><time>2011-05-16T09:39:40Z</time></trkpt>
<trkpt lat="42.308788" lon="3.239732"><ele>318</ele><time>2011-05-16T09:39:45Z</time></trkpt>
<trkpt lat="42.308765" lon="3.239635"><ele>319</ele><time>2011-05-16T09:39:50Z</time></trkpt>
<trkpt lat="42.308765" lon="3.239518"><ele>320</ele><time>2011-05-16T09:39:55Z</time></trkpt>
<trkpt lat="42.308753" lon="3.239407"><ele>320.7</ele><time>2011-05-16T09:40:00Z</time></trkpt>
<trkpt lat="42.308712" lon="3.239297"><ele>321.5</ele><time>2011-05-16T09:40:05Z</time></trkpt>
<trkpt lat="42.308670" lon="3.239187"><ele>322.4</ele><time>2011-05-16T09:40:10Z</time></trkpt>
<trkpt lat="42.308655" lon="3.239045"><ele>322.6</ele><time>2011-05-16T09:40:15Z</time></trkpt>
<trkpt lat="42.308658" lon="3.238918"><ele>323</ele><time>2011-05-16T09:40:20Z</time></trkpt>
<trkpt lat="42.308700" lon="3.238770"><ele>322.5</ele><time>2011-05-16T09:40:25Z</time></trkpt>
<trkpt lat="42.308735" lon="3.238603"><ele>321.8</ele><time>2011-05-16T09:40:30Z</time></trkpt>
<trkpt lat="42.308753" lon="3.238342"><ele>320.1</ele><time>2011-05-16T09:40:35Z</time></trkpt>
<trkpt lat="42.308628" lon="3.238058"><ele>318.2</ele><time>2011-05-16T09:40:40Z</time></trkpt>
<trkpt lat="42.308430" lon="3.237810"><ele>316.7</ele><time>2011-05-16T09:40:45Z</time></trkpt>
<trkpt lat="42.308220" lon="3.237608"><ele>314.4</ele><time>2011-05-16T09:40:50Z</time></trkpt>
<trkpt lat="42.308045" lon="3.237678"><ele>314</ele><time>2011-05-16T09:40:55Z</time></trkpt>
<trkpt lat="42.307953" lon="3.237732"><ele>313.1</ele><time>2011-05-16T09:41:00Z</time></trkpt>
<trkpt lat="42.307885" lon="3.237598"><ele>310</ele><time>2011-05-16T09:41:05Z</time></trkpt>
<trkpt lat="42.307823" lon="3.237353"><ele>306.5</ele><time>2011-05-16T09:41:10Z</time></trkpt>
<trkpt lat="42.307900" lon="3.237122"><ele>304.3</ele><time>2011-05-16T09:41:15Z</time></trkpt>
<trkpt lat="42.308045" lon="3.236892"><ele>301.9</ele><time>2011-05-16T09:41:20Z</time></trkpt>
<trkpt lat="42.308205" lon="3.236717"><ele>300.2</ele><time>2011-05-16T09:41:25Z</time></trkpt>
<trkpt lat="42.308312" lon="3.236510"><ele>299.2</ele><time>2011-05-16T09:41:30Z</time></trkpt>
<trkpt lat="42.308400" lon="3.236340"><ele>298.6</ele><time>2011-05-16T09:41:35Z</time></trkpt>
<trkpt lat="42.308513" lon="3.236193"><ele>298.2</ele><time>2011-05-16T09:41:40Z</time></trkpt>
<trkpt lat="42.308605" lon="3.236040"><ele>297.9</ele><time>2011-05-16T09:41:45Z</time></trkpt>
<trkpt lat="42.308662" lon="3.235878"><ele>297.6</ele><time>2011-05-16T09:41:50Z</time></trkpt>
<trkpt lat="42.308655" lon="3.235685"><ele>296.7</ele><time>2011-05-16T09:41:55Z</time></trkpt>
<trkpt lat="42.308608" lon="3.235585"><ele>296.8</ele><time>2011-05-16T09:42:00Z</time></trkpt>
<trkpt lat="42.308620" lon="3.235585"><ele>296.9</ele><time>2011-05-16T09:42:05Z</time></trkpt>
<trkpt lat="42.308620" lon="3.235587"><ele>296.8</ele><time>2011-05-16T09:42:10Z</time></trkpt>
<trkpt lat="42.308635" lon="3.235612"><ele>296.7</ele><time>2011-05-16T09:42:15Z</time></trkpt>
<trkpt lat="42.308613" lon="3.235680"><ele>296.7</ele><time>2011-05-16T09:42:20Z</time></trkpt>
<trkpt lat="42.308602" lon="3.235755"><ele>296.8</ele><time>2011-05-16T09:42:25Z</time></trkpt>
<trkpt lat="42.308602" lon="3.235763"><ele>296.7</ele><time>2011-05-16T09:42:30Z</time></trkpt>
<trkpt lat="42.308605" lon="3.235773"><ele>296.5</ele><time>2011-05-16T09:42:35Z</time></trkpt>
<trkpt lat="42.308598" lon="3.235788"><ele>296.4</ele><time>2011-05-16T09:42:40Z</time></trkpt>
<trkpt lat="42.308602" lon="3.235792"><ele>296</ele><time>2011-05-16T09:42:45Z</time></trkpt>
<trkpt lat="42.308598" lon="3.235785"><ele>295.3</ele><time>2011-05-16T09:42:50Z</time></trkpt>
<trkpt lat="42.308593" lon="3.235787"><ele>295.1</ele><time>2011-05-16T09:42:55Z</time></trkpt>
<trkpt lat="42.308590" lon="3.235788"><ele>295.4</ele><time>2011-05-16T09:43:00Z</time></trkpt>
<trkpt lat="42.308593" lon="3.235795"><ele>294.6</ele><time>2011-05-16T09:43:05Z</time></trkpt>
<trkpt lat="42.308593" lon="3.235797"><ele>294.8</ele><time>2011-05-16T09:43:10Z</time></trkpt>
<trkpt lat="42.308593" lon="3.235797"><ele>295</ele><time>2011-05-16T09:43:15Z</time></trkpt>
<trkpt lat="42.308593" lon="3.235797"><ele>295.2</ele><time>2011-05-16T09:43:20Z</time></trkpt>
<trkpt lat="42.308590" lon="3.235797"><ele>295.4</ele><time>2011-05-16T09:43:25Z</time></trkpt>
<trkpt lat="42.308590" lon="3.235797"><ele>295.5</ele><time>2011-05-16T09:43:30Z</time></trkpt>
<trkpt lat="42.308590" lon="3.235797"><ele>295.6</ele><time>2011-05-16T09:43:35Z</time></trkpt>
<trkpt lat="42.308590" lon="3.235797"><ele>295.7</ele><time>2011-05-16T09:43:40Z</time></trkpt>
<trkpt lat="42.308587" lon="3.235798"><ele>295.8</ele><time>2011-05-16T09:43:45Z</time></trkpt>
<trkpt lat="42.308587" lon="3.235798"><ele>295.9</ele><time>2011-05-16T09:43:50Z</time></trkpt>
<trkpt lat="42.308587" lon="3.235798"><ele>296</ele><time>2011-05-16T09:43:55Z</time></trkpt>
<trkpt lat="42.308587" lon="3.235798"><ele>296.1</ele><time>2011-05-16T09:44:00Z</time></trkpt>
<trkpt lat="42.308582" lon="3.235798"><ele>296.2</ele><time>2011-05-16T09:44:05Z</time></trkpt>
<trkpt lat="42.308582" lon="3.235797"><ele>296.4</ele><time>2011-05-16T09:44:10Z</time></trkpt>
<trkpt lat="42.308578" lon="3.235792"><ele>297.2</ele><time>2011-05-16T09:44:15Z</time></trkpt>
<trkpt lat="42.308582" lon="3.235793"><ele>297.1</ele><time>2011-05-16T09:44:20Z</time></trkpt>
<trkpt lat="42.308582" lon="3.235792"><ele>296.7</ele><time>2011-05-16T09:44:25Z</time></trkpt>
<trkpt lat="42.308582" lon="3.235792"><ele>296.4</ele><time>2011-05-16T09:44:30Z</time></trkpt>
<trkpt lat="42.308582" lon="3.235792"><ele>296</ele><time>2011-05-16T09:44:35Z</time></trkpt>
<trkpt lat="42.308602" lon="3.235778"><ele>295.3</ele><time>2011-05-16T09:44:40Z</time></trkpt>
<trkpt lat="42.308602" lon="3.235773"><ele>295.4</ele><time>2011-05-16T09:44:45Z</time></trkpt>
<trkpt lat="42.308608" lon="3.235707"><ele>295.6</ele><time>2011-05-16T09:44:50Z</time></trkpt>
<trkpt lat="42.308640" lon="3.235755"><ele>295.8</ele><time>2011-05-16T09:44:55Z</time></trkpt>
<trkpt lat="42.308578" lon="3.235792"><ele>296.5</ele><time>2011-05-16T09:45:00Z</time></trkpt>
<trkpt lat="42.308578" lon="3.235727"><ele>296.2</ele><time>2011-05-16T09:45:05Z</time></trkpt>
<trkpt lat="42.308678" lon="3.235690"><ele>295.7</ele><time>2011-05-16T09:45:10Z</time></trkpt>
<trkpt lat="42.308797" lon="3.235638"><ele>295</ele><time>2011-05-16T09:45:15Z</time></trkpt>
<trkpt lat="42.308895" lon="3.235453"><ele>292.5</ele><time>2011-05-16T09:45:20Z</time></trkpt>
<trkpt lat="42.308972" lon="3.235222"><ele>289.7</ele><time>2011-05-16T09:45:25Z</time></trkpt>
<trkpt lat="42.309052" lon="3.234908"><ele>285.3</ele><time>2011-05-16T09:45:30Z</time></trkpt>
<trkpt lat="42.309170" lon="3.234463"><ele>282.2</ele><time>2011-05-16T09:45:35Z</time></trkpt>
<trkpt lat="42.309223" lon="3.234020"><ele>280.2</ele><time>2011-05-16T09:45:40Z</time></trkpt>
<trkpt lat="42.309197" lon="3.233550"><ele>276.7</ele><time>2011-05-16T09:45:45Z</time></trkpt>
<trkpt lat="42.309277" lon="3.233048"><ele>272.4</ele><time>2011-05-16T09:45:50Z</time></trkpt>
<trkpt lat="42.309398" lon="3.232497"><ele>268.2</ele><time>2011-05-16T09:45:55Z</time></trkpt>
<trkpt lat="42.309452" lon="3.232025"><ele>266.3</ele><time>2011-05-16T09:46:00Z</time></trkpt>
<trkpt lat="42.309563" lon="3.231667"><ele>265.1</ele><time>2011-05-16T09:46:05Z</time></trkpt>
<trkpt lat="42.309700" lon="3.231385"><ele>263.9</ele><time>2011-05-16T09:46:10Z</time></trkpt>
<trkpt lat="42.309818" lon="3.231083"><ele>262.1</ele><time>2011-05-16T09:46:15Z</time></trkpt>
<trkpt lat="42.309880" lon="3.230742"><ele>260.7</ele><time>2011-05-16T09:46:20Z</time></trkpt>
<trkpt lat="42.309952" lon="3.230368"><ele>258.6</ele><time>2011-05-16T09:46:25Z</time></trkpt>
<trkpt lat="42.310097" lon="3.230143"><ele>257.8</ele><time>2011-05-16T09:46:30Z</time></trkpt>
<trkpt lat="42.310253" lon="3.230015"><ele>256.9</ele><time>2011-05-16T09:46:35Z</time></trkpt>
<trkpt lat="42.310455" lon="3.229917"><ele>255</ele><time>2011-05-16T09:46:40Z</time></trkpt>
<trkpt lat="42.310722" lon="3.229882"><ele>251.9</ele><time>2011-05-16T09:46:45Z</time></trkpt>
<trkpt lat="42.311012" lon="3.229867"><ele>248.8</ele><time>2011-05-16T09:46:50Z</time></trkpt>
<trkpt lat="42.311313" lon="3.229883"><ele>245.6</ele><time>2011-05-16T09:46:55Z</time></trkpt>
<trkpt lat="42.311600" lon="3.229853"><ele>242.4</ele><time>2011-05-16T09:47:00Z</time></trkpt>
<trkpt lat="42.311828" lon="3.229608"><ele>237.8</ele><time>2011-05-16T09:47:05Z</time></trkpt>
<trkpt lat="42.312138" lon="3.229477"><ele>233.2</ele><time>2011-05-16T09:47:10Z</time></trkpt>
<trkpt lat="42.312248" lon="3.229208"><ele>231.9</ele><time>2011-05-16T09:47:15Z</time></trkpt>
<trkpt lat="42.312233" lon="3.228818"><ele>228.9</ele><time>2011-05-16T09:47:20Z</time></trkpt>
<trkpt lat="42.312207" lon="3.228355"><ele>226.4</ele><time>2011-05-16T09:47:25Z</time></trkpt>
<trkpt lat="42.312195" lon="3.227923"><ele>222.3</ele><time>2011-05-16T09:47:30Z</time></trkpt>
<trkpt lat="42.312447" lon="3.227763"><ele>219.2</ele><time>2011-05-16T09:47:35Z</time></trkpt>
<trkpt lat="42.312648" lon="3.227590"><ele>217.9</ele><time>2011-05-16T09:47:40Z</time></trkpt>
<trkpt lat="42.312817" lon="3.227388"><ele>216.3</ele><time>2011-05-16T09:47:45Z</time></trkpt>
<trkpt lat="42.313018" lon="3.227165"><ele>214.6</ele><time>2011-05-16T09:47:50Z</time></trkpt>
<trkpt lat="42.313222" lon="3.227045"><ele>213.6</ele><time>2011-05-16T09:47:55Z</time></trkpt>
<trkpt lat="42.313393" lon="3.226810"><ele>213</ele><time>2011-05-16T09:48:00Z</time></trkpt>
<trkpt lat="42.313613" lon="3.226718"><ele>213.3</ele><time>2011-05-16T09:48:05Z</time></trkpt>
<trkpt lat="42.313817" lon="3.226558"><ele>213.2</ele><time>2011-05-16T09:48:10Z</time></trkpt>
<trkpt lat="42.314000" lon="3.226557"><ele>212</ele><time>2011-05-16T09:48:15Z</time></trkpt>
<trkpt lat="42.314007" lon="3.226853"><ele>212.5</ele><time>2011-05-16T09:48:20Z</time></trkpt>
<trkpt lat="42.313962" lon="3.227213"><ele>211</ele><time>2011-05-16T09:48:25Z</time></trkpt>
<trkpt lat="42.314128" lon="3.227528"><ele>209.6</ele><time>2011-05-16T09:48:30Z</time></trkpt>
<trkpt lat="42.314338" lon="3.227605"><ele>209.7</ele><time>2011-05-16T09:48:35Z</time></trkpt>
<trkpt lat="42.314522" lon="3.227622"><ele>210.6</ele><time>2011-05-16T09:48:40Z</time></trkpt>
<trkpt lat="42.314675" lon="3.227595"><ele>211.9</ele><time>2011-05-16T09:48:45Z</time></trkpt>
<trkpt lat="42.314812" lon="3.227525"><ele>212.6</ele><time>2011-05-16T09:48:50Z</time></trkpt>
<trkpt lat="42.314945" lon="3.227405"><ele>212.6</ele><time>2011-05-16T09:48:55Z</time></trkpt>
<trkpt lat="42.315090" lon="3.227272"><ele>212.6</ele><time>2011-05-16T09:49:00Z</time></trkpt>
<trkpt lat="42.315270" lon="3.227207"><ele>213.1</ele><time>2011-05-16T09:49:05Z</time></trkpt>
<trkpt lat="42.315410" lon="3.227068"><ele>213.2</ele><time>2011-05-16T09:49:10Z</time></trkpt>
<trkpt lat="42.315563" lon="3.226883"><ele>212.8</ele><time>2011-05-16T09:49:15Z</time></trkpt>
<trkpt lat="42.315708" lon="3.226898"><ele>214.5</ele><time>2011-05-16T09:49:20Z</time></trkpt>
<trkpt lat="42.315823" lon="3.226942"><ele>216.5</ele><time>2011-05-16T09:49:25Z</time></trkpt>
<trkpt lat="42.315952" lon="3.226958"><ele>217.9</ele><time>2011-05-16T09:49:30Z</time></trkpt>
<trkpt lat="42.316093" lon="3.226952"><ele>218.4</ele><time>2011-05-16T09:49:35Z</time></trkpt>
<trkpt lat="42.316247" lon="3.226960"><ele>218.3</ele><time>2011-05-16T09:49:40Z</time></trkpt>
<trkpt lat="42.316410" lon="3.226962"><ele>218.1</ele><time>2011-05-16T09:49:45Z</time></trkpt>
<trkpt lat="42.316563" lon="3.226957"><ele>218.7</ele><time>2011-05-16T09:49:50Z</time></trkpt>
<trkpt lat="42.316708" lon="3.226920"><ele>219.3</ele><time>2011-05-16T09:49:55Z</time></trkpt>
<trkpt lat="42.316842" lon="3.226848"><ele>220</ele><time>2011-05-16T09:50:00Z</time></trkpt>
<trkpt lat="42.316970" lon="3.226782"><ele>220.6</ele><time>2011-05-16T09:50:05Z</time></trkpt>
<trkpt lat="42.317082" lon="3.226750"><ele>221.7</ele><time>2011-05-16T09:50:10Z</time></trkpt>
<trkpt lat="42.317165" lon="3.226750"><ele>223</ele><time>2011-05-16T09:50:15Z</time></trkpt>
<trkpt lat="42.317245" lon="3.226742"><ele>224.3</ele><time>2011-05-16T09:50:20Z</time></trkpt>
<trkpt lat="42.317330" lon="3.226733"><ele>224.9</ele><time>2011-05-16T09:50:25Z</time></trkpt>
<trkpt lat="42.317413" lon="3.226728"><ele>225.6</ele><time>2011-05-16T09:50:30Z</time></trkpt>
<trkpt lat="42.317505" lon="3.226673"><ele>225.7</ele><time>2011-05-16T09:50:35Z</time></trkpt>
<trkpt lat="42.317540" lon="3.226560"><ele>226</ele><time>2011-05-16T09:50:40Z</time></trkpt>
<trkpt lat="42.317513" lon="3.226428"><ele>225.9</ele><time>2011-05-16T09:50:45Z</time></trkpt>
<trkpt lat="42.317470" lon="3.226267"><ele>226.2</ele><time>2011-05-16T09:50:50Z</time></trkpt>
<trkpt lat="42.317478" lon="3.226110"><ele>226.7</ele><time>2011-05-16T09:50:55Z</time></trkpt>
<trkpt lat="42.317532" lon="3.225942"><ele>227.4</ele><time>2011-05-16T09:51:00Z</time></trkpt>
<trkpt lat="42.317588" lon="3.225773"><ele>228.1</ele><time>2011-05-16T09:51:05Z</time></trkpt>
<trkpt lat="42.317647" lon="3.225585"><ele>228.5</ele><time>2011-05-16T09:51:10Z</time></trkpt>
<trkpt lat="42.317673" lon="3.225360"><ele>228.7</ele><time>2011-05-16T09:51:15Z</time></trkpt>
<trkpt lat="42.317688" lon="3.225135"><ele>228.8</ele><time>2011-05-16T09:51:20Z</time></trkpt>
<trkpt lat="42.317802" lon="3.225000"><ele>229</ele><time>2011-05-16T09:51:25Z</time></trkpt>
<trkpt lat="42.317955" lon="3.224995"><ele>229.9</ele><time>2011-05-16T09:51:30Z</time></trkpt>
<trkpt lat="42.318100" lon="3.224965"><ele>231.2</ele><time>2011-05-16T09:51:35Z</time></trkpt>
<trkpt lat="42.318245" lon="3.224925"><ele>231.9</ele><time>2011-05-16T09:51:40Z</time></trkpt>
<trkpt lat="42.318393" lon="3.224897"><ele>232.3</ele><time>2011-05-16T09:51:45Z</time></trkpt>
<trkpt lat="42.318550" lon="3.224852"><ele>232.2</ele><time>2011-05-16T09:51:50Z</time></trkpt>
<trkpt lat="42.318707" lon="3.224783"><ele>232.1</ele><time>2011-05-16T09:51:55Z</time></trkpt>
<trkpt lat="42.318885" lon="3.224722"><ele>232.4</ele><time>2011-05-16T09:52:00Z</time></trkpt>
<trkpt lat="42.319073" lon="3.224700"><ele>233.2</ele><time>2011-05-16T09:52:05Z</time></trkpt>
<trkpt lat="42.319252" lon="3.224657"><ele>233.8</ele><time>2011-05-16T09:52:10Z</time></trkpt>
<trkpt lat="42.319405" lon="3.224567"><ele>234.2</ele><time>2011-05-16T09:52:15Z</time></trkpt>
<trkpt lat="42.319512" lon="3.224432"><ele>235.1</ele><time>2011-05-16T09:52:20Z</time></trkpt>
<trkpt lat="42.319595" lon="3.224278"><ele>236</ele><time>2011-05-16T09:52:25Z</time></trkpt>
<trkpt lat="42.319680" lon="3.224120"><ele>236.4</ele><time>2011-05-16T09:52:30Z</time></trkpt>
<trkpt lat="42.319790" lon="3.223948"><ele>235.6</ele><time>2011-05-16T09:52:35Z</time></trkpt>
<trkpt lat="42.319908" lon="3.223722"><ele>234.8</ele><time>2011-05-16T09:52:40Z</time></trkpt>
<trkpt lat="42.320015" lon="3.223550"><ele>235.1</ele><time>2011-05-16T09:52:45Z</time></trkpt>
<trkpt lat="42.320103" lon="3.223425"><ele>236.1</ele><time>2011-05-16T09:52:50Z</time></trkpt>
<trkpt lat="42.320175" lon="3.223322"><ele>237.2</ele><time>2011-05-16T09:52:55Z</time></trkpt>
<trkpt lat="42.320237" lon="3.223228"><ele>238.2</ele><time>2011-05-16T09:53:00Z</time></trkpt>
<trkpt lat="42.320302" lon="3.223137"><ele>239.1</ele><time>2011-05-16T09:53:05Z</time></trkpt>
<trkpt lat="42.320362" lon="3.223038"><ele>239.9</ele><time>2011-05-16T09:53:10Z</time></trkpt>
<trkpt lat="42.320430" lon="3.222938"><ele>240.4</ele><time>2011-05-16T09:53:15Z</time></trkpt>
<trkpt lat="42.320495" lon="3.222843"><ele>241</ele><time>2011-05-16T09:53:20Z</time></trkpt>
<trkpt lat="42.320568" lon="3.222747"><ele>241.7</ele><time>2011-05-16T09:53:25Z</time></trkpt>
<trkpt lat="42.320628" lon="3.222648"><ele>242.7</ele><time>2011-05-16T09:53:30Z</time></trkpt>
<trkpt lat="42.320690" lon="3.222553"><ele>243.8</ele><time>2011-05-16T09:53:35Z</time></trkpt>
<trkpt lat="42.320763" lon="3.222453"><ele>244.8</ele><time>2011-05-16T09:53:40Z</time></trkpt>
<trkpt lat="42.320838" lon="3.222350"><ele>245.9</ele><time>2011-05-16T09:53:45Z</time></trkpt>
<trkpt lat="42.320912" lon="3.222245"><ele>246.4</ele><time>2011-05-16T09:53:50Z</time></trkpt>
<trkpt lat="42.320918" lon="3.222222"><ele>246.6</ele><time>2011-05-16T09:53:55Z</time></trkpt>
<trkpt lat="42.320915" lon="3.222223"><ele>246.9</ele><time>2011-05-16T09:54:00Z</time></trkpt>
<trkpt lat="42.320912" lon="3.222225"><ele>247.1</ele><time>2011-05-16T09:54:05Z</time></trkpt>
<trkpt lat="42.320908" lon="3.222225"><ele>247.3</ele><time>2011-05-16T09:54:10Z</time></trkpt>
<trkpt lat="42.320918" lon="3.222217"><ele>247.3</ele><time>2011-05-16T09:54:15Z</time></trkpt>
<trkpt lat="42.320992" lon="3.222087"><ele>246.5</ele><time>2011-05-16T09:54:20Z</time></trkpt>
<trkpt lat="42.321080" lon="3.221917"><ele>245.9</ele><time>2011-05-16T09:54:25Z</time></trkpt>
<trkpt lat="42.321160" lon="3.221798"><ele>246.4</ele><time>2011-05-16T09:54:30Z</time></trkpt>
<trkpt lat="42.321252" lon="3.221680"><ele>247.6</ele><time>2011-05-16T09:54:35Z</time></trkpt>
<trkpt lat="42.321332" lon="3.221565"><ele>248.9</ele><time>2011-05-16T09:54:40Z</time></trkpt>
<trkpt lat="42.321412" lon="3.221423"><ele>249.2</ele><time>2011-05-16T09:54:45Z</time></trkpt>
<trkpt lat="42.321492" lon="3.221255"><ele>248.6</ele><time>2011-05-16T09:54:50Z</time></trkpt>
<trkpt lat="42.321602" lon="3.221098"><ele>248.4</ele><time>2011-05-16T09:54:55Z</time></trkpt>
<trkpt lat="42.321735" lon="3.221000"><ele>249.2</ele><time>2011-05-16T09:55:00Z</time></trkpt>
<trkpt lat="42.321857" lon="3.220893"><ele>249.8</ele><time>2011-05-16T09:55:05Z</time></trkpt>
<trkpt lat="42.321983" lon="3.220758"><ele>249.8</ele><time>2011-05-16T09:55:10Z</time></trkpt>
<trkpt lat="42.322117" lon="3.220597"><ele>249.2</ele><time>2011-05-16T09:55:15Z</time></trkpt>
<trkpt lat="42.322243" lon="3.220405"><ele>248.2</ele><time>2011-05-16T09:55:20Z</time></trkpt>
<trkpt lat="42.322395" lon="3.220187"><ele>246.3</ele><time>2011-05-16T09:55:25Z</time></trkpt>
<trkpt lat="42.322635" lon="3.219998"><ele>244.2</ele><time>2011-05-16T09:55:30Z</time></trkpt>
<trkpt lat="42.322833" lon="3.220013"><ele>244</ele><time>2011-05-16T09:55:35Z</time></trkpt>
<trkpt lat="42.322990" lon="3.220100"><ele>244.1</ele><time>2011-05-16T09:55:40Z</time></trkpt>
<trkpt lat="42.323185" lon="3.220232"><ele>242.6</ele><time>2011-05-16T09:55:45Z</time></trkpt>
<trkpt lat="42.323440" lon="3.220398"><ele>242.1</ele><time>2011-05-16T09:55:50Z</time></trkpt>
<trkpt lat="42.323635" lon="3.220357"><ele>241.1</ele><time>2011-05-16T09:55:55Z</time></trkpt>
<trkpt lat="42.323868" lon="3.220138"><ele>239.6</ele><time>2011-05-16T09:56:00Z</time></trkpt>
<trkpt lat="42.324112" lon="3.219990"><ele>238.7</ele><time>2011-05-16T09:56:05Z</time></trkpt>
<trkpt lat="42.324395" lon="3.219948"><ele>238.2</ele><time>2011-05-16T09:56:10Z</time></trkpt>
<trkpt lat="42.324695" lon="3.219960"><ele>237.4</ele><time>2011-05-16T09:56:15Z</time></trkpt>
<trkpt lat="42.324990" lon="3.219963"><ele>236.1</ele><time>2011-05-16T09:56:20Z</time></trkpt>
<trkpt lat="42.325298" lon="3.219867"><ele>234</ele><time>2011-05-16T09:56:25Z</time></trkpt>
<trkpt lat="42.325597" lon="3.219725"><ele>231.9</ele><time>2011-05-16T09:56:30Z</time></trkpt>
<trkpt lat="42.325897" lon="3.219583"><ele>230.4</ele><time>2011-05-16T09:56:35Z</time></trkpt>
<trkpt lat="42.326207" lon="3.219518"><ele>228.6</ele><time>2011-05-16T09:56:40Z</time></trkpt>
<trkpt lat="42.326542" lon="3.219443"><ele>225.6</ele><time>2011-05-16T09:56:45Z</time></trkpt>
<trkpt lat="42.326862" lon="3.219412"><ele>222.8</ele><time>2011-05-16T09:56:50Z</time></trkpt>
<trkpt lat="42.327103" lon="3.219183"><ele>219.2</ele><time>2011-05-16T09:56:55Z</time></trkpt>
<trkpt lat="42.327130" lon="3.218708"><ele>216.1</ele><time>2011-05-16T09:57:00Z</time></trkpt>
<trkpt lat="42.327217" lon="3.218407"><ele>213.3</ele><time>2011-05-16T09:57:05Z</time></trkpt>
<trkpt lat="42.327412" lon="3.218648"><ele>212.1</ele><time>2011-05-16T09:57:10Z</time></trkpt>
<trkpt lat="42.327675" lon="3.218855"><ele>211.2</ele><time>2011-05-16T09:57:15Z</time></trkpt>
<trkpt lat="42.327980" lon="3.218917"><ele>209.5</ele><time>2011-05-16T09:57:20Z</time></trkpt>
<trkpt lat="42.328282" lon="3.218917"><ele>207.2</ele><time>2011-05-16T09:57:25Z</time></trkpt>
<trkpt lat="42.328353" lon="3.219097"><ele>205.8</ele><time>2011-05-16T09:57:30Z</time></trkpt>
<trkpt lat="42.328117" lon="3.219228"><ele>205.4</ele><time>2011-05-16T09:57:35Z</time></trkpt>
<trkpt lat="42.327812" lon="3.219347"><ele>203.2</ele><time>2011-05-16T09:57:40Z</time></trkpt>
<trkpt lat="42.327693" lon="3.219702"><ele>202.5</ele><time>2011-05-16T09:57:45Z</time></trkpt>
<trkpt lat="42.327545" lon="3.220060"><ele>201.9</ele><time>2011-05-16T09:57:50Z</time></trkpt>
<trkpt lat="42.327335" lon="3.220392"><ele>200.7</ele><time>2011-05-16T09:57:55Z</time></trkpt>
<trkpt lat="42.327420" lon="3.220770"><ele>200.9</ele><time>2011-05-16T09:58:00Z</time></trkpt>
<trkpt lat="42.327423" lon="3.221157"><ele>201.5</ele><time>2011-05-16T09:58:05Z</time></trkpt>
<trkpt lat="42.327282" lon="3.221485"><ele>202.3</ele><time>2011-05-16T09:58:10Z</time></trkpt>
<trkpt lat="42.327152" lon="3.221847"><ele>201.2</ele><time>2011-05-16T09:58:15Z</time></trkpt>
<trkpt lat="42.327152" lon="3.222343"><ele>199.6</ele><time>2011-05-16T09:58:20Z</time></trkpt>
<trkpt lat="42.327210" lon="3.222673"><ele>200.1</ele><time>2011-05-16T09:58:25Z</time></trkpt>
<trkpt lat="42.327477" lon="3.222705"><ele>200.5</ele><time>2011-05-16T09:58:30Z</time></trkpt>
<trkpt lat="42.327767" lon="3.222647"><ele>200.6</ele><time>2011-05-16T09:58:35Z</time></trkpt>
<trkpt lat="42.328015" lon="3.222803"><ele>199.1</ele><time>2011-05-16T09:58:40Z</time></trkpt>
<trkpt lat="42.328197" lon="3.223128"><ele>199</ele><time>2011-05-16T09:58:45Z</time></trkpt>
<trkpt lat="42.328415" lon="3.223212"><ele>198.1</ele><time>2011-05-16T09:58:50Z</time></trkpt>
<trkpt lat="42.328628" lon="3.222972"><ele>198.2</ele><time>2011-05-16T09:58:55Z</time></trkpt>
<trkpt lat="42.328697" lon="3.222687"><ele>198.4</ele><time>2011-05-16T09:59:00Z</time></trkpt>
<trkpt lat="42.328830" lon="3.222398"><ele>197.1</ele><time>2011-05-16T09:59:05Z</time></trkpt>
<trkpt lat="42.329045" lon="3.222085"><ele>195.1</ele><time>2011-05-16T09:59:10Z</time></trkpt>
<trkpt lat="42.329292" lon="3.221728"><ele>191.8</ele><time>2011-05-16T09:59:15Z</time></trkpt>
<trkpt lat="42.329567" lon="3.221445"><ele>189.3</ele><time>2011-05-16T09:59:20Z</time></trkpt>
<trkpt lat="42.329880" lon="3.221240"><ele>187</ele><time>2011-05-16T09:59:25Z</time></trkpt>
<trkpt lat="42.330215" lon="3.221015"><ele>184.9</ele><time>2011-05-16T09:59:30Z</time></trkpt>
<trkpt lat="42.330433" lon="3.220703"><ele>181.8</ele><time>2011-05-16T09:59:35Z</time></trkpt>
<trkpt lat="42.330540" lon="3.220327"><ele>179.3</ele><time>2011-05-16T09:59:40Z</time></trkpt>
<trkpt lat="42.330635" lon="3.219930"><ele>177.5</ele><time>2011-05-16T09:59:45Z</time></trkpt>
<trkpt lat="42.330842" lon="3.219648"><ele>176.5</ele><time>2011-05-16T09:59:50Z</time></trkpt>
<trkpt lat="42.331008" lon="3.219317"><ele>175.4</ele><time>2011-05-16T09:59:55Z</time></trkpt>
<trkpt lat="42.331177" lon="3.218982"><ele>172.5</ele><time>2011-05-16T10:00:00Z</time></trkpt>
<trkpt lat="42.331440" lon="3.218663"><ele>169.1</ele><time>2011-05-16T10:00:05Z</time></trkpt>
<trkpt lat="42.331668" lon="3.218360"><ele>166.9</ele><time>2011-05-16T10:00:10Z</time></trkpt>
<trkpt lat="42.331848" lon="3.218003"><ele>165.3</ele><time>2011-05-16T10:00:15Z</time></trkpt>
<trkpt lat="42.332103" lon="3.217747"><ele>164.9</ele><time>2011-05-16T10:00:20Z</time></trkpt>
<trkpt lat="42.332370" lon="3.217517"><ele>163.6</ele><time>2011-05-16T10:00:25Z</time></trkpt>
<trkpt lat="42.332665" lon="3.217303"><ele>161.9</ele><time>2011-05-16T10:00:30Z</time></trkpt>
<trkpt lat="42.332943" lon="3.217125"><ele>160.2</ele><time>2011-05-16T10:00:35Z</time></trkpt>
<trkpt lat="42.333148" lon="3.216877"><ele>157.5</ele><time>2011-05-16T10:00:40Z</time></trkpt>
<trkpt lat="42.333340" lon="3.216527"><ele>154.8</ele><time>2011-05-16T10:00:45Z</time></trkpt>
<trkpt lat="42.333577" lon="3.216248"><ele>153.1</ele><time>2011-05-16T10:00:50Z</time></trkpt>
<trkpt lat="42.333840" lon="3.216108"><ele>152.8</ele><time>2011-05-16T10:00:55Z</time></trkpt>
<trkpt lat="42.334072" lon="3.215885"><ele>150.1</ele><time>2011-05-16T10:01:00Z</time></trkpt>
<trkpt lat="42.334293" lon="3.215583"><ele>146.1</ele><time>2011-05-16T10:01:05Z</time></trkpt>
<trkpt lat="42.334557" lon="3.215362"><ele>143.1</ele><time>2011-05-16T10:01:10Z</time></trkpt>
<trkpt lat="42.334820" lon="3.215057"><ele>138.4</ele><time>2011-05-16T10:01:15Z</time></trkpt>
<trkpt lat="42.335060" lon="3.214790"><ele>134.8</ele><time>2011-05-16T10:01:20Z</time></trkpt>
<trkpt lat="42.335045" lon="3.214497"><ele>130.9</ele><time>2011-05-16T10:01:25Z</time></trkpt>
<trkpt lat="42.334820" lon="3.214130"><ele>128.1</ele><time>2011-05-16T10:01:30Z</time></trkpt>
<trkpt lat="42.334595" lon="3.213760"><ele>125.8</ele><time>2011-05-16T10:01:35Z</time></trkpt>
<trkpt lat="42.334560" lon="3.213552"><ele>124.5</ele><time>2011-05-16T10:01:40Z</time></trkpt>
<trkpt lat="42.334557" lon="3.213537"><ele>124.6</ele><time>2011-05-16T10:01:45Z</time></trkpt>
<trkpt lat="42.334553" lon="3.213542"><ele>124.7</ele><time>2011-05-16T10:01:50Z</time></trkpt>
<trkpt lat="42.334553" lon="3.213547"><ele>124.7</ele><time>2011-05-16T10:01:55Z</time></trkpt>
<trkpt lat="42.334575" lon="3.213535"><ele>125.7</ele><time>2011-05-16T10:02:00Z</time></trkpt>
<trkpt lat="42.334698" lon="3.213597"><ele>126.5</ele><time>2011-05-16T10:02:05Z</time></trkpt>
<trkpt lat="42.334880" lon="3.213707"><ele>127.3</ele><time>2011-05-16T10:02:10Z</time></trkpt>
<trkpt lat="42.335117" lon="3.213782"><ele>127</ele><time>2011-05-16T10:02:15Z</time></trkpt>
<trkpt lat="42.335350" lon="3.213690"><ele>127</ele><time>2011-05-16T10:02:20Z</time></trkpt>
<trkpt lat="42.335477" lon="3.213447"><ele>127.3</ele><time>2011-05-16T10:02:25Z</time></trkpt>
<trkpt lat="42.335613" lon="3.213378"><ele>128.6</ele><time>2011-05-16T10:02:30Z</time></trkpt>
<trkpt lat="42.335735" lon="3.213423"><ele>130.2</ele><time>2011-05-16T10:02:35Z</time></trkpt>
<trkpt lat="42.335873" lon="3.213430"><ele>131</ele><time>2011-05-16T10:02:40Z</time></trkpt>
<trkpt lat="42.336037" lon="3.213477"><ele>130.6</ele><time>2011-05-16T10:02:45Z</time></trkpt>
<trkpt lat="42.336227" lon="3.213472"><ele>129.4</ele><time>2011-05-16T10:02:50Z</time></trkpt>
<trkpt lat="42.336410" lon="3.213358"><ele>128.6</ele><time>2011-05-16T10:02:55Z</time></trkpt>
<trkpt lat="42.336605" lon="3.213228"><ele>128</ele><time>2011-05-16T10:03:00Z</time></trkpt>
<trkpt lat="42.336807" lon="3.213090"><ele>126.9</ele><time>2011-05-16T10:03:05Z</time></trkpt>
<trkpt lat="42.337022" lon="3.212898"><ele>125.1</ele><time>2011-05-16T10:03:10Z</time></trkpt>
<trkpt lat="42.337212" lon="3.212617"><ele>121.4</ele><time>2011-05-16T10:03:15Z</time></trkpt>
<trkpt lat="42.337425" lon="3.212243"><ele>117.1</ele><time>2011-05-16T10:03:20Z</time></trkpt>
<trkpt lat="42.337647" lon="3.211963"><ele>113.7</ele><time>2011-05-16T10:03:25Z</time></trkpt>
<trkpt lat="42.337852" lon="3.211637"><ele>110.1</ele><time>2011-05-16T10:03:30Z</time></trkpt>
<trkpt lat="42.337825" lon="3.211168"><ele>107.2</ele><time>2011-05-16T10:03:35Z</time></trkpt>
<trkpt lat="42.337795" lon="3.210792"><ele>106.8</ele><time>2011-05-16T10:03:40Z</time></trkpt>
<trkpt lat="42.337815" lon="3.210522"><ele>106.8</ele><time>2011-05-16T10:03:45Z</time></trkpt>
<trkpt lat="42.337688" lon="3.210220"><ele>107.3</ele><time>2011-05-16T10:03:50Z</time></trkpt>
<trkpt lat="42.337783" lon="3.209910"><ele>108.5</ele><time>2011-05-16T10:03:55Z</time></trkpt>
<trkpt lat="42.337910" lon="3.209567"><ele>106.6</ele><time>2011-05-16T10:04:00Z</time></trkpt>
<trkpt lat="42.338123" lon="3.209295"><ele>104.7</ele><time>2011-05-16T10:04:05Z</time></trkpt>
<trkpt lat="42.338348" lon="3.209032"><ele>103.1</ele><time>2011-05-16T10:04:10Z</time></trkpt>
<trkpt lat="42.338543" lon="3.208753"><ele>101.2</ele><time>2011-05-16T10:04:15Z</time></trkpt>
<trkpt lat="42.338673" lon="3.208387"><ele>99.2</ele><time>2011-05-16T10:04:20Z</time></trkpt>
<trkpt lat="42.338837" lon="3.208035"><ele>97.2</ele><time>2011-05-16T10:04:25Z</time></trkpt>
<trkpt lat="42.339065" lon="3.207823"><ele>94.9</ele><time>2011-05-16T10:04:30Z</time></trkpt>
<trkpt lat="42.339172" lon="3.207663"><ele>94.4</ele><time>2011-05-16T10:04:35Z</time></trkpt>
<trkpt lat="42.339165" lon="3.207652"><ele>94.6</ele><time>2011-05-16T10:04:40Z</time></trkpt>
<trkpt lat="42.339162" lon="3.207657"><ele>94.9</ele><time>2011-05-16T10:04:45Z</time></trkpt>
<trkpt lat="42.339162" lon="3.207662"><ele>95.1</ele><time>2011-05-16T10:04:50Z</time></trkpt>
<trkpt lat="42.339162" lon="3.207665"><ele>95.2</ele><time>2011-05-16T10:04:55Z</time></trkpt>
<trkpt lat="42.339157" lon="3.207667"><ele>95.3</ele><time>2011-05-16T10:05:00Z</time></trkpt>
<trkpt lat="42.339157" lon="3.207668"><ele>95.3</ele><time>2011-05-16T10:05:05Z</time></trkpt>
<trkpt lat="42.339153" lon="3.207670"><ele>95.4</ele><time>2011-05-16T10:05:10Z</time></trkpt>
<trkpt lat="42.339135" lon="3.207662"><ele>95.4</ele><time>2011-05-16T10:05:15Z</time></trkpt>
<trkpt lat="42.339177" lon="3.207742"><ele>95.6</ele><time>2011-05-16T10:05:20Z</time></trkpt>
<trkpt lat="42.339402" lon="3.207627"><ele>93</ele><time>2011-05-16T10:05:25Z</time></trkpt>
<trkpt lat="42.339737" lon="3.207482"><ele>90.7</ele><time>2011-05-16T10:05:30Z</time></trkpt>
<trkpt lat="42.340057" lon="3.207342"><ele>90</ele><time>2011-05-16T10:05:35Z</time></trkpt>
<trkpt lat="42.340317" lon="3.207335"><ele>89.9</ele><time>2011-05-16T10:05:40Z</time></trkpt>
<trkpt lat="42.340577" lon="3.207317"><ele>90</ele><time>2011-05-16T10:05:45Z</time></trkpt>
<trkpt lat="42.340858" lon="3.207305"><ele>90.2</ele><time>2011-05-16T10:05:50Z</time></trkpt>
<trkpt lat="42.341137" lon="3.207235"><ele>90.9</ele><time>2011-05-16T10:05:55Z</time></trkpt>
<trkpt lat="42.341385" lon="3.207095"><ele>90.9</ele><time>2011-05-16T10:06:00Z</time></trkpt>
<trkpt lat="42.341655" lon="3.206955"><ele>91.6</ele><time>2011-05-16T10:06:05Z</time></trkpt>
<trkpt lat="42.341877" lon="3.206782"><ele>91.3</ele><time>2011-05-16T10:06:10Z</time></trkpt>
<trkpt lat="42.342095" lon="3.206605"><ele>90</ele><time>2011-05-16T10:06:15Z</time></trkpt>
<trkpt lat="42.342347" lon="3.206320"><ele>86.5</ele><time>2011-05-16T10:06:20Z</time></trkpt>
<trkpt lat="42.342522" lon="3.205895"><ele>82.9</ele><time>2011-05-16T10:06:25Z</time></trkpt>
<trkpt lat="42.342628" lon="3.205525"><ele>80.1</ele><time>2011-05-16T10:06:30Z</time></trkpt>
<trkpt lat="42.342803" lon="3.205255"><ele>77.3</ele><time>2011-05-16T10:06:35Z</time></trkpt>
<trkpt lat="42.343063" lon="3.204963"><ele>73.6</ele><time>2011-05-16T10:06:40Z</time></trkpt>
<trkpt lat="42.343223" lon="3.204667"><ele>70.7</ele><time>2011-05-16T10:06:45Z</time></trkpt>
<trkpt lat="42.343415" lon="3.204498"><ele>68.5</ele><time>2011-05-16T10:06:50Z</time></trkpt>
<trkpt lat="42.343468" lon="3.204173"><ele>66.7</ele><time>2011-05-16T10:06:55Z</time></trkpt>
<trkpt lat="42.343662" lon="3.203875"><ele>63.6</ele><time>2011-05-16T10:07:00Z</time></trkpt>
<trkpt lat="42.343815" lon="3.203812"><ele>61.3</ele><time>2011-05-16T10:07:05Z</time></trkpt>
<trkpt lat="42.343990" lon="3.203933"><ele>59.8</ele><time>2011-05-16T10:07:10Z</time></trkpt>
<trkpt lat="42.344162" lon="3.203872"><ele>58.6</ele><time>2011-05-16T10:07:15Z</time></trkpt>
<trkpt lat="42.344253" lon="3.203755"><ele>57.6</ele><time>2011-05-16T10:07:20Z</time></trkpt>
<trkpt lat="42.344010" lon="3.203743"><ele>54.6</ele><time>2011-05-16T10:07:25Z</time></trkpt>
<trkpt lat="42.343933" lon="3.203440"><ele>51.8</ele><time>2011-05-16T10:07:30Z</time></trkpt>
<trkpt lat="42.343872" lon="3.203148"><ele>49.7</ele><time>2011-05-16T10:07:35Z</time></trkpt>
<trkpt lat="42.343688" lon="3.203165"><ele>46.5</ele><time>2011-05-16T10:07:40Z</time></trkpt>
<trkpt lat="42.343522" lon="3.203398"><ele>43.1</ele><time>2011-05-16T10:07:45Z</time></trkpt>
<trkpt lat="42.343357" lon="3.203583"><ele>40.2</ele><time>2011-05-16T10:07:50Z</time></trkpt>
<trkpt lat="42.343170" lon="3.203747"><ele>37.1</ele><time>2011-05-16T10:07:55Z</time></trkpt>
<trkpt lat="42.342942" lon="3.203912"><ele>33.4</ele><time>2011-05-16T10:08:00Z</time></trkpt>
<trkpt lat="42.342712" lon="3.204032"><ele>30.5</ele><time>2011-05-16T10:08:05Z</time></trkpt>
<trkpt lat="42.342537" lon="3.204080"><ele>29.1</ele><time>2011-05-16T10:08:10Z</time></trkpt>
<trkpt lat="42.342548" lon="3.203898"><ele>27.9</ele><time>2011-05-16T10:08:15Z</time></trkpt>
<trkpt lat="42.342728" lon="3.203660"><ele>25.6</ele><time>2011-05-16T10:08:20Z</time></trkpt>
<trkpt lat="42.342865" lon="3.203375"><ele>23.1</ele><time>2011-05-16T10:08:25Z</time></trkpt>
<trkpt lat="42.342998" lon="3.203083"><ele>20.8</ele><time>2011-05-16T10:08:30Z</time></trkpt>
<trkpt lat="42.343093" lon="3.202772"><ele>19.1</ele><time>2011-05-16T10:08:35Z</time></trkpt>
<trkpt lat="42.343113" lon="3.202592"><ele>18.2</ele><time>2011-05-16T10:08:40Z</time></trkpt>
<trkpt lat="42.342980" lon="3.202528"><ele>16.7</ele><time>2011-05-16T10:08:45Z</time></trkpt>
<trkpt lat="42.342728" lon="3.202643"><ele>15.4</ele><time>2011-05-16T10:08:50Z</time></trkpt>
<trkpt lat="42.342465" lon="3.202730"><ele>14.4</ele><time>2011-05-16T10:08:55Z</time></trkpt>
<trkpt lat="42.342235" lon="3.202780"><ele>13.6</ele><time>2011-05-16T10:09:00Z</time></trkpt>
<trkpt lat="42.342015" lon="3.202932"><ele>12.5</ele><time>2011-05-16T10:09:05Z</time></trkpt>
<trkpt lat="42.341793" lon="3.203085"><ele>12</ele><time>2011-05-16T10:09:10Z</time></trkpt>
<trkpt lat="42.341568" lon="3.203213"><ele>12.2</ele><time>2011-05-16T10:09:15Z</time></trkpt>
<trkpt lat="42.341347" lon="3.203315"><ele>11.8</ele><time>2011-05-16T10:09:20Z</time></trkpt>
<trkpt lat="42.341057" lon="3.203457"><ele>10.2</ele><time>2011-05-16T10:09:25Z</time></trkpt>
<trkpt lat="42.340740" lon="3.203462"><ele>9.9</ele><time>2011-05-16T10:09:30Z</time></trkpt>
<trkpt lat="42.340465" lon="3.203482"><ele>9.8</ele><time>2011-05-16T10:09:35Z</time></trkpt>
<trkpt lat="42.340207" lon="3.203663"><ele>9.1</ele><time>2011-05-16T10:09:40Z</time></trkpt>
<trkpt lat="42.339965" lon="3.203858"><ele>8.7</ele><time>2011-05-16T10:09:45Z</time></trkpt>
<trkpt lat="42.339748" lon="3.204030"><ele>8.7</ele><time>2011-05-16T10:09:50Z</time></trkpt>
<trkpt lat="42.339527" lon="3.204168"><ele>8.8</ele><time>2011-05-16T10:09:55Z</time></trkpt>
<trkpt lat="42.339280" lon="3.204227"><ele>8.5</ele><time>2011-05-16T10:10:00Z</time></trkpt>
<trkpt lat="42.339058" lon="3.204227"><ele>8.6</ele><time>2011-05-16T10:10:05Z</time></trkpt>
<trkpt lat="42.338913" lon="3.204158"><ele>8.1</ele><time>2011-05-16T10:10:10Z</time></trkpt>
<trkpt lat="42.338760" lon="3.204012"><ele>8.9</ele><time>2011-05-16T10:10:15Z</time></trkpt>
<trkpt lat="42.338597" lon="3.203858"><ele>10.9</ele><time>2011-05-16T10:10:20Z</time></trkpt>
<trkpt lat="42.338448" lon="3.203640"><ele>13.2</ele><time>2011-05-16T10:10:25Z</time></trkpt>
<trkpt lat="42.338402" lon="3.203340"><ele>12.5</ele><time>2011-05-16T10:10:30Z</time></trkpt>
<trkpt lat="42.338458" lon="3.203043"><ele>12.1</ele><time>2011-05-16T10:10:35Z</time></trkpt>
<trkpt lat="42.338393" lon="3.202797"><ele>11.9</ele><time>2011-05-16T10:10:40Z</time></trkpt>
<trkpt lat="42.338173" lon="3.202717"><ele>11.4</ele><time>2011-05-16T10:10:45Z</time></trkpt>
<trkpt lat="42.337933" lon="3.202757"><ele>10.1</ele><time>2011-05-16T10:10:50Z</time></trkpt>
<trkpt lat="42.337857" lon="3.203055"><ele>9.6</ele><time>2011-05-16T10:10:55Z</time></trkpt>
<trkpt lat="42.337810" lon="3.203343"><ele>9.1</ele><time>2011-05-16T10:11:00Z</time></trkpt>
<trkpt lat="42.337623" lon="3.203507"><ele>8.6</ele><time>2011-05-16T10:11:05Z</time></trkpt>
<trkpt lat="42.337365" lon="3.203535"><ele>8.4</ele><time>2011-05-16T10:11:10Z</time></trkpt>
<trkpt lat="42.337123" lon="3.203555"><ele>8.2</ele><time>2011-05-16T10:11:15Z</time></trkpt>
<trkpt lat="42.336892" lon="3.203570"><ele>8.1</ele><time>2011-05-16T10:11:20Z</time></trkpt>
<trkpt lat="42.336658" lon="3.203588"><ele>8</ele><time>2011-05-16T10:11:25Z</time></trkpt>
<trkpt lat="42.336437" lon="3.203508"><ele>8.3</ele><time>2011-05-16T10:11:30Z</time></trkpt>
<trkpt lat="42.336227" lon="3.203317"><ele>8.4</ele><time>2011-05-16T10:11:35Z</time></trkpt>
<trkpt lat="42.336018" lon="3.203108"><ele>8.6</ele><time>2011-05-16T10:11:40Z</time></trkpt>
<trkpt lat="42.335793" lon="3.202893"><ele>8.5</ele><time>2011-05-16T10:11:45Z</time></trkpt>
<trkpt lat="42.335575" lon="3.202665"><ele>8.9</ele><time>2011-05-16T10:11:50Z</time></trkpt>
<trkpt lat="42.335433" lon="3.202352"><ele>8.8</ele><time>2011-05-16T10:11:55Z</time></trkpt>
<trkpt lat="42.335327" lon="3.202005"><ele>8.9</ele><time>2011-05-16T10:12:00Z</time></trkpt>
<trkpt lat="42.335258" lon="3.201782"><ele>9</ele><time>2011-05-16T10:12:05Z</time></trkpt>
<trkpt lat="42.335232" lon="3.201687"><ele>9</ele><time>2011-05-16T10:12:10Z</time></trkpt>
<trkpt lat="42.335235" lon="3.201687"><ele>8.9</ele><time>2011-05-16T10:12:15Z</time></trkpt>
<trkpt lat="42.335235" lon="3.201688"><ele>8.6</ele><time>2011-05-16T10:12:20Z</time></trkpt>
<trkpt lat="42.335223" lon="3.201647"><ele>8.9</ele><time>2011-05-16T10:12:25Z</time></trkpt>
<trkpt lat="42.335175" lon="3.201457"><ele>10.1</ele><time>2011-05-16T10:12:30Z</time></trkpt>
<trkpt lat="42.335107" lon="3.201213"><ele>10.5</ele><time>2011-05-16T10:12:35Z</time></trkpt>
<trkpt lat="42.335025" lon="3.200935"><ele>10.9</ele><time>2011-05-16T10:12:40Z</time></trkpt>
<trkpt lat="42.334938" lon="3.200622"><ele>11.5</ele><time>2011-05-16T10:12:45Z</time></trkpt>
<trkpt lat="42.334838" lon="3.200285"><ele>11.3</ele><time>2011-05-16T10:12:50Z</time></trkpt>
<trkpt lat="42.334725" lon="3.199893"><ele>10.1</ele><time>2011-05-16T10:12:55Z</time></trkpt>
<trkpt lat="42.334610" lon="3.199493"><ele>9.3</ele><time>2011-05-16T10:13:00Z</time></trkpt>
<trkpt lat="42.334492" lon="3.199107"><ele>8.6</ele><time>2011-05-16T10:13:05Z</time></trkpt>
<trkpt lat="42.334385" lon="3.198742"><ele>8.4</ele><time>2011-05-16T10:13:10Z</time></trkpt>
<trkpt lat="42.334282" lon="3.198385"><ele>8.6</ele><time>2011-05-16T10:13:15Z</time></trkpt>
<trkpt lat="42.334178" lon="3.198052"><ele>9.5</ele><time>2011-05-16T10:13:20Z</time></trkpt>
<trkpt lat="42.334130" lon="3.197743"><ele>10.3</ele><time>2011-05-16T10:13:25Z</time></trkpt>
<trkpt lat="42.334187" lon="3.197492"><ele>10.9</ele><time>2011-05-16T10:13:30Z</time></trkpt>
<trkpt lat="42.334263" lon="3.197233"><ele>11</ele><time>2011-05-16T10:13:35Z</time></trkpt>
<trkpt lat="42.334130" lon="3.197078"><ele>11.3</ele><time>2011-05-16T10:13:40Z</time></trkpt>
<trkpt lat="42.333900" lon="3.197070"><ele>11.3</ele><time>2011-05-16T10:13:45Z</time></trkpt>
<trkpt lat="42.333672" lon="3.197088"><ele>11</ele><time>2011-05-16T10:13:50Z</time></trkpt>
<trkpt lat="42.333423" lon="3.197132"><ele>11.2</ele><time>2011-05-16T10:13:55Z</time></trkpt>
<trkpt lat="42.333183" lon="3.197193"><ele>11.7</ele><time>2011-05-16T10:14:00Z</time></trkpt>
<trkpt lat="42.332947" lon="3.197255"><ele>12.4</ele><time>2011-05-16T10:14:05Z</time></trkpt>
<trkpt lat="42.332707" lon="3.197325"><ele>12.9</ele><time>2011-05-16T10:14:10Z</time></trkpt>
<trkpt lat="42.332462" lon="3.197398"><ele>13.5</ele><time>2011-05-16T10:14:15Z</time></trkpt>
<trkpt lat="42.332210" lon="3.197535"><ele>13.8</ele><time>2011-05-16T10:14:20Z</time></trkpt>
<trkpt lat="42.332020" lon="3.197820"><ele>14</ele><time>2011-05-16T10:14:25Z</time></trkpt>
<trkpt lat="42.331845" lon="3.198167"><ele>13.7</ele><time>2011-05-16T10:14:30Z</time></trkpt>
<trkpt lat="42.331638" lon="3.198515"><ele>13.4</ele><time>2011-05-16T10:14:35Z</time></trkpt>
<trkpt lat="42.331425" lon="3.198828"><ele>13.4</ele><time>2011-05-16T10:14:40Z</time></trkpt>
<trkpt lat="42.331212" lon="3.199128"><ele>13.6</ele><time>2011-05-16T10:14:45Z</time></trkpt>
<trkpt lat="42.330975" lon="3.199407"><ele>13.8</ele><time>2011-05-16T10:14:50Z</time></trkpt>
<trkpt lat="42.330708" lon="3.199655"><ele>14</ele><time>2011-05-16T10:14:55Z</time></trkpt>
<trkpt lat="42.330428" lon="3.199860"><ele>14.1</ele><time>2011-05-16T10:15:00Z</time></trkpt>
<trkpt lat="42.330135" lon="3.199927"><ele>14.6</ele><time>2011-05-16T10:15:05Z</time></trkpt>
<trkpt lat="42.329860" lon="3.199815"><ele>15.4</ele><time>2011-05-16T10:15:10Z</time></trkpt>
<trkpt lat="42.329662" lon="3.199587"><ele>16.3</ele><time>2011-05-16T10:15:15Z</time></trkpt>
<trkpt lat="42.329533" lon="3.199312"><ele>17.1</ele><time>2011-05-16T10:15:20Z</time></trkpt>
<trkpt lat="42.329415" lon="3.199042"><ele>17.8</ele><time>2011-05-16T10:15:25Z</time></trkpt>
<trkpt lat="42.329297" lon="3.198780"><ele>18.5</ele><time>2011-05-16T10:15:30Z</time></trkpt>
<trkpt lat="42.329178" lon="3.198523"><ele>19</ele><time>2011-05-16T10:15:35Z</time></trkpt>
<trkpt lat="42.329055" lon="3.198267"><ele>19.5</ele><time>2011-05-16T10:15:40Z</time></trkpt>
<trkpt lat="42.328938" lon="3.198005"><ele>20.1</ele><time>2011-05-16T10:15:45Z</time></trkpt>
<trkpt lat="42.328815" lon="3.197742"><ele>20.7</ele><time>2011-05-16T10:15:50Z</time></trkpt>
<trkpt lat="42.328690" lon="3.197485"><ele>21.2</ele><time>2011-05-16T10:15:55Z</time></trkpt>
<trkpt lat="42.328572" lon="3.197232"><ele>21.9</ele><time>2011-05-16T10:16:00Z</time></trkpt>
<trkpt lat="42.328438" lon="3.196980"><ele>22.6</ele><time>2011-05-16T10:16:05Z</time></trkpt>
<trkpt lat="42.328288" lon="3.196750"><ele>23.2</ele><time>2011-05-16T10:16:10Z</time></trkpt>
<trkpt lat="42.328133" lon="3.196518"><ele>23.8</ele><time>2011-05-16T10:16:15Z</time></trkpt>
<trkpt lat="42.327968" lon="3.196288"><ele>24.6</ele><time>2011-05-16T10:16:20Z</time></trkpt>
<trkpt lat="42.327823" lon="3.196067"><ele>25.3</ele><time>2011-05-16T10:16:25Z</time></trkpt>
<trkpt lat="42.327682" lon="3.195860"><ele>26</ele><time>2011-05-16T10:16:30Z</time></trkpt>
<trkpt lat="42.327545" lon="3.195662"><ele>26.4</ele><time>2011-05-16T10:16:35Z</time></trkpt>
<trkpt lat="42.327412" lon="3.195460"><ele>27</ele><time>2011-05-16T10:16:40Z</time></trkpt>
<trkpt lat="42.327282" lon="3.195272"><ele>27.7</ele><time>2011-05-16T10:16:45Z</time></trkpt>
<trkpt lat="42.327160" lon="3.195095"><ele>28.6</ele><time>2011-05-16T10:16:50Z</time></trkpt>
<trkpt lat="42.327045" lon="3.194925"><ele>29.4</ele><time>2011-05-16T10:16:55Z</time></trkpt>
<trkpt lat="42.326935" lon="3.194762"><ele>30.3</ele><time>2011-05-16T10:17:00Z</time></trkpt>
<trkpt lat="42.326832" lon="3.194610"><ele>31.2</ele><time>2011-05-16T10:17:05Z</time></trkpt>
<trkpt lat="42.326728" lon="3.194458"><ele>32</ele><time>2011-05-16T10:17:10Z</time></trkpt>
<trkpt lat="42.326625" lon="3.194307"><ele>32.9</ele><time>2011-05-16T10:17:15Z</time></trkpt>
<trkpt lat="42.326527" lon="3.194155"><ele>33.8</ele><time>2011-05-16T10:17:20Z</time></trkpt>
<trkpt lat="42.326417" lon="3.194007"><ele>34.7</ele><time>2011-05-16T10:17:25Z</time></trkpt>
<trkpt lat="42.326302" lon="3.193858"><ele>35.4</ele><time>2011-05-16T10:17:30Z</time></trkpt>
<trkpt lat="42.326175" lon="3.193717"><ele>36</ele><time>2011-05-16T10:17:35Z</time></trkpt>
<trkpt lat="42.326057" lon="3.193575"><ele>36.7</ele><time>2011-05-16T10:17:40Z</time></trkpt>
<trkpt lat="42.325935" lon="3.193432"><ele>37.6</ele><time>2011-05-16T10:17:45Z</time></trkpt>
<trkpt lat="42.325817" lon="3.193272"><ele>38.5</ele><time>2011-05-16T10:17:50Z</time></trkpt>
<trkpt lat="42.325710" lon="3.193103"><ele>39.6</ele><time>2011-05-16T10:17:55Z</time></trkpt>
<trkpt lat="42.325615" lon="3.192932"><ele>40.8</ele><time>2011-05-16T10:18:00Z</time></trkpt>
<trkpt lat="42.325520" lon="3.192758"><ele>41.9</ele><time>2011-05-16T10:18:05Z</time></trkpt>
<trkpt lat="42.325425" lon="3.192588"><ele>42.9</ele><time>2011-05-16T10:18:10Z</time></trkpt>
<trkpt lat="42.325337" lon="3.192407"><ele>43.9</ele><time>2011-05-16T10:18:15Z</time></trkpt>
<trkpt lat="42.325263" lon="3.192210"><ele>44.8</ele><time>2011-05-16T10:18:20Z</time></trkpt>
<trkpt lat="42.325207" lon="3.192005"><ele>45.7</ele><time>2011-05-16T10:18:25Z</time></trkpt>
<trkpt lat="42.325150" lon="3.191787"><ele>46.6</ele><time>2011-05-16T10:18:30Z</time></trkpt>
<trkpt lat="42.325085" lon="3.191563"><ele>47.2</ele><time>2011-05-16T10:18:35Z</time></trkpt>
<trkpt lat="42.325038" lon="3.191407"><ele>47.6</ele><time>2011-05-16T10:18:40Z</time></trkpt>
<trkpt lat="42.324943" lon="3.191395"><ele>48</ele><time>2011-05-16T10:18:45Z</time></trkpt>
<trkpt lat="42.324875" lon="3.191498"><ele>48.5</ele><time>2011-05-16T10:18:50Z</time></trkpt>
<trkpt lat="42.324887" lon="3.191605"><ele>49.2</ele><time>2011-05-16T10:18:55Z</time></trkpt>
<trkpt lat="42.324967" lon="3.191640"><ele>51.5</ele><time>2011-05-16T10:19:00Z</time></trkpt>
<trkpt lat="42.324970" lon="3.191643"><ele>51.7</ele><time>2011-05-16T10:19:05Z</time></trkpt>
<trkpt lat="42.324970" lon="3.191640"><ele>51.8</ele><time>2011-05-16T10:19:10Z</time></trkpt>
<trkpt lat="42.324970" lon="3.191640"><ele>51.5</ele><time>2011-05-16T10:19:15Z</time></trkpt>
<trkpt lat="42.324970" lon="3.191640"><ele>51</ele><time>2011-05-16T10:19:20Z</time></trkpt>
<trkpt lat="42.324947" lon="3.191673"><ele>50.6</ele><time>2011-05-16T10:19:25Z</time></trkpt>
<trkpt lat="42.324932" lon="3.191793"><ele>51</ele><time>2011-05-16T10:19:30Z</time></trkpt>
<trkpt lat="42.324932" lon="3.191847"><ele>51.4</ele><time>2011-05-16T10:19:35Z</time></trkpt>
<trkpt lat="42.324928" lon="3.191852"><ele>51.3</ele><time>2011-05-16T10:19:40Z</time></trkpt>
<trkpt lat="42.324937" lon="3.191827"><ele>56.1</ele><time>2011-05-16T10:19:45Z</time></trkpt>
<trkpt lat="42.324932" lon="3.191835"><ele>55</ele><time>2011-05-16T10:19:50Z</time></trkpt>
<trkpt lat="42.324947" lon="3.191847"><ele>55.1</ele><time>2011-05-16T10:19:55Z</time></trkpt>
<trkpt lat="42.324973" lon="3.191853"><ele>56.7</ele><time>2011-05-16T10:20:00Z</time></trkpt>
<trkpt lat="42.324958" lon="3.191838"><ele>56.3</ele><time>2011-05-16T10:20:05Z</time></trkpt>
<trkpt lat="42.324947" lon="3.191837"><ele>55.2</ele><time>2011-05-16T10:20:10Z</time></trkpt>
<trkpt lat="42.324937" lon="3.191835"><ele>53.9</ele><time>2011-05-16T10:20:15Z</time></trkpt>
<trkpt lat="42.324937" lon="3.191832"><ele>54.2</ele><time>2011-05-16T10:20:20Z</time></trkpt>
<trkpt lat="42.324928" lon="3.191832"><ele>51.7</ele><time>2011-05-16T10:20:25Z</time></trkpt>
<trkpt lat="42.324928" lon="3.191847"><ele>50.4</ele><time>2011-05-16T10:20:30Z</time></trkpt>
<trkpt lat="42.324932" lon="3.191875"><ele>50.6</ele><time>2011-05-16T10:20:35Z</time></trkpt>
<trkpt lat="42.324952" lon="3.191940"><ele>49.6</ele><time>2011-05-16T10:20:40Z</time></trkpt>
<trkpt lat="42.324990" lon="3.192038"><ele>49.9</ele><time>2011-05-16T10:20:45Z</time></trkpt>
<trkpt lat="42.325047" lon="3.192178"><ele>50.2</ele><time>2011-05-16T10:20:50Z</time></trkpt>
<trkpt lat="42.325065" lon="3.192357"><ele>50.7</ele><time>2011-05-16T10:20:55Z</time></trkpt>
<trkpt lat="42.325077" lon="3.192537"><ele>51</ele><time>2011-05-16T10:21:00Z</time></trkpt>
<trkpt lat="42.325088" lon="3.192728"><ele>51.5</ele><time>2011-05-16T10:21:05Z</time></trkpt>
<trkpt lat="42.325065" lon="3.192903"><ele>52.7</ele><time>2011-05-16T10:21:10Z</time></trkpt>
<trkpt lat="42.325008" lon="3.193053"><ele>54.1</ele><time>2011-05-16T10:21:15Z</time></trkpt>
<trkpt lat="42.324910" lon="3.193145"><ele>55</ele><time>2011-05-16T10:21:20Z</time></trkpt>
<trkpt lat="42.324807" lon="3.193212"><ele>55.8</ele><time>2011-05-16T10:21:25Z</time></trkpt>
<trkpt lat="42.324688" lon="3.193258"><ele>56.6</ele><time>2011-05-16T10:21:30Z</time></trkpt>
<trkpt lat="42.324573" lon="3.193297"><ele>57.5</ele><time>2011-05-16T10:21:35Z</time></trkpt>
<trkpt lat="42.324452" lon="3.193335"><ele>58.4</ele><time>2011-05-16T10:21:40Z</time></trkpt>
<trkpt lat="42.324340" lon="3.193380"><ele>59.3</ele><time>2011-05-16T10:21:45Z</time></trkpt>
<trkpt lat="42.324218" lon="3.193422"><ele>60.3</ele><time>2011-05-16T10:21:50Z</time></trkpt>
<trkpt lat="42.324097" lon="3.193447"><ele>61.1</ele><time>2011-05-16T10:21:55Z</time></trkpt>
<trkpt lat="42.323975" lon="3.193478"><ele>62</ele><time>2011-05-16T10:22:00Z</time></trkpt>
<trkpt lat="42.323868" lon="3.193550"><ele>62.9</ele><time>2011-05-16T10:22:05Z</time></trkpt>
<trkpt lat="42.323768" lon="3.193640"><ele>64</ele><time>2011-05-16T10:22:10Z</time></trkpt>
<trkpt lat="42.323738" lon="3.193717"><ele>64.1</ele><time>2011-05-16T10:22:15Z</time></trkpt>
<trkpt lat="42.323798" lon="3.193848"><ele>63.3</ele><time>2011-05-16T10:22:20Z</time></trkpt>
<trkpt lat="42.323895" lon="3.193938"><ele>64.2</ele><time>2011-05-16T10:22:25Z</time></trkpt>
<trkpt lat="42.324005" lon="3.193987"><ele>65.6</ele><time>2011-05-16T10:22:30Z</time></trkpt>
<trkpt lat="42.324112" lon="3.194038"><ele>66.6</ele><time>2011-05-16T10:22:35Z</time></trkpt>
<trkpt lat="42.324218" lon="3.194095"><ele>67.4</ele><time>2011-05-16T10:22:40Z</time></trkpt>
<trkpt lat="42.324313" lon="3.194175"><ele>68.3</ele><time>2011-05-16T10:22:45Z</time></trkpt>
<trkpt lat="42.324378" lon="3.194297"><ele>69</ele><time>2011-05-16T10:22:50Z</time></trkpt>
<trkpt lat="42.324387" lon="3.194468"><ele>69.6</ele><time>2011-05-16T10:22:55Z</time></trkpt>
<trkpt lat="42.324402" lon="3.194620"><ele>71.6</ele><time>2011-05-16T10:23:00Z</time></trkpt>
<trkpt lat="42.324458" lon="3.194762"><ele>72.5</ele><time>2011-05-16T10:23:05Z</time></trkpt>
<trkpt lat="42.324532" lon="3.194898"><ele>72.7</ele><time>2011-05-16T10:23:10Z</time></trkpt>
<trkpt lat="42.324612" lon="3.195018"><ele>73.8</ele><time>2011-05-16T10:23:15Z</time></trkpt>
<trkpt lat="42.324722" lon="3.195128"><ele>74.8</ele><time>2011-05-16T10:23:20Z</time></trkpt>
<trkpt lat="42.324837" lon="3.195237"><ele>75.7</ele><time>2011-05-16T10:23:25Z</time></trkpt>
<trkpt lat="42.324917" lon="3.195370"><ele>75.9</ele><time>2011-05-16T10:23:30Z</time></trkpt>
<trkpt lat="42.324943" lon="3.195538"><ele>75.9</ele><time>2011-05-16T10:23:35Z</time></trkpt>
<trkpt lat="42.324920" lon="3.195735"><ele>75.7</ele><time>2011-05-16T10:23:40Z</time></trkpt>
<trkpt lat="42.324883" lon="3.195928"><ele>77.2</ele><time>2011-05-16T10:23:45Z</time></trkpt>
<trkpt lat="42.324937" lon="3.196122"><ele>79.6</ele><time>2011-05-16T10:23:50Z</time></trkpt>
<trkpt lat="42.325035" lon="3.196260"><ele>81.3</ele><time>2011-05-16T10:23:55Z</time></trkpt>
<trkpt lat="42.325130" lon="3.196400"><ele>82.7</ele><time>2011-05-16T10:24:00Z</time></trkpt>
<trkpt lat="42.325198" lon="3.196570"><ele>82.5</ele><time>2011-05-16T10:24:05Z</time></trkpt>
<trkpt lat="42.325248" lon="3.196733"><ele>82.9</ele><time>2011-05-16T10:24:10Z</time></trkpt>
<trkpt lat="42.325337" lon="3.196858"><ele>83.3</ele><time>2011-05-16T10:24:15Z</time></trkpt>
<trkpt lat="42.325470" lon="3.196918"><ele>83.5</ele><time>2011-05-16T10:24:20Z</time></trkpt>
<trkpt lat="42.325592" lon="3.196962"><ele>84.4</ele><time>2011-05-16T10:24:25Z</time></trkpt>
<trkpt lat="42.325707" lon="3.197018"><ele>85.3</ele><time>2011-05-16T10:24:30Z</time></trkpt>
<trkpt lat="42.325817" lon="3.197108"><ele>86.1</ele><time>2011-05-16T10:24:35Z</time></trkpt>
<trkpt lat="42.325882" lon="3.197255"><ele>86.8</ele><time>2011-05-16T10:24:40Z</time></trkpt>
<trkpt lat="42.325917" lon="3.197400"><ele>87.9</ele><time>2011-05-16T10:24:45Z</time></trkpt>
<trkpt lat="42.325943" lon="3.197547"><ele>88.6</ele><time>2011-05-16T10:24:50Z</time></trkpt>
<trkpt lat="42.325993" lon="3.197680"><ele>89.3</ele><time>2011-05-16T10:24:55Z</time></trkpt>
<trkpt lat="42.326047" lon="3.197807"><ele>88.8</ele><time>2011-05-16T10:25:00Z</time></trkpt>
<trkpt lat="42.326133" lon="3.197927"><ele>89.5</ele><time>2011-05-16T10:25:05Z</time></trkpt>
<trkpt lat="42.326210" lon="3.198050"><ele>90.4</ele><time>2011-05-16T10:25:10Z</time></trkpt>
<trkpt lat="42.326298" lon="3.198175"><ele>90.9</ele><time>2011-05-16T10:25:15Z</time></trkpt>
<trkpt lat="42.326378" lon="3.198300"><ele>91.9</ele><time>2011-05-16T10:25:20Z</time></trkpt>
<trkpt lat="42.326443" lon="3.198455"><ele>92.8</ele><time>2011-05-16T10:25:25Z</time></trkpt>
<trkpt lat="42.326453" lon="3.198622"><ele>93.8</ele><time>2011-05-16T10:25:30Z</time></trkpt>
<trkpt lat="42.326400" lon="3.198755"><ele>94.5</ele><time>2011-05-16T10:25:35Z</time></trkpt>
<trkpt lat="42.326305" lon="3.198853"><ele>94.8</ele><time>2011-05-16T10:25:40Z</time></trkpt>
<trkpt lat="42.326195" lon="3.198890"><ele>95.4</ele><time>2011-05-16T10:25:45Z</time></trkpt>
<trkpt lat="42.326073" lon="3.198873"><ele>96.1</ele><time>2011-05-16T10:25:50Z</time></trkpt>
<trkpt lat="42.325958" lon="3.198847"><ele>96.7</ele><time>2011-05-16T10:25:55Z</time></trkpt>
<trkpt lat="42.325837" lon="3.198845"><ele>97.4</ele><time>2011-05-16T10:26:00Z</time></trkpt>
<trkpt lat="42.325718" lon="3.198868"><ele>98.1</ele><time>2011-05-16T10:26:05Z</time></trkpt>
<trkpt lat="42.325597" lon="3.198917"><ele>98.8</ele><time>2011-05-16T10:26:10Z</time></trkpt>
<trkpt lat="42.325478" lon="3.198958"><ele>99.3</ele><time>2011-05-16T10:26:15Z</time></trkpt>
<trkpt lat="42.325363" lon="3.198992"><ele>99.9</ele><time>2011-05-16T10:26:20Z</time></trkpt>
<trkpt lat="42.325245" lon="3.199010"><ele>100.3</ele><time>2011-05-16T10:26:25Z</time></trkpt>
<trkpt lat="42.325130" lon="3.199027"><ele>101.2</ele><time>2011-05-16T10:26:30Z</time></trkpt>
<trkpt lat="42.325008" lon="3.199038"><ele>102.1</ele><time>2011-05-16T10:26:35Z</time></trkpt>
<trkpt lat="42.324898" lon="3.199025"><ele>103</ele><time>2011-05-16T10:26:40Z</time></trkpt>
<trkpt lat="42.324787" lon="3.198975"><ele>104</ele><time>2011-05-16T10:26:45Z</time></trkpt>
<trkpt lat="42.324683" lon="3.198883"><ele>104.8</ele><time>2011-05-16T10:26:50Z</time></trkpt>
<trkpt lat="42.324603" lon="3.198765"><ele>105.6</ele><time>2011-05-16T10:26:55Z</time></trkpt>
<trkpt lat="42.324532" lon="3.198640"><ele>106.6</ele><time>2011-05-16T10:27:00Z</time></trkpt>
<trkpt lat="42.324467" lon="3.198503"><ele>107.4</ele><time>2011-05-16T10:27:05Z</time></trkpt>
<trkpt lat="42.324410" lon="3.198360"><ele>108</ele><time>2011-05-16T10:27:10Z</time></trkpt>
<trkpt lat="42.324368" lon="3.198208"><ele>108.6</ele><time>2011-05-16T10:27:15Z</time></trkpt>
<trkpt lat="42.324340" lon="3.198053"><ele>109.3</ele><time>2011-05-16T10:27:20Z</time></trkpt>
<trkpt lat="42.324307" lon="3.197907"><ele>110.4</ele><time>2011-05-16T10:27:25Z</time></trkpt>
<trkpt lat="42.324272" lon="3.197747"><ele>110.8</ele><time>2011-05-16T10:27:30Z</time></trkpt>
<trkpt lat="42.324233" lon="3.197590"><ele>111.5</ele><time>2011-05-16T10:27:35Z</time></trkpt>
<trkpt lat="42.324185" lon="3.197437"><ele>112.3</ele><time>2011-05-16T10:27:40Z</time></trkpt>
<trkpt lat="42.324120" lon="3.197287"><ele>112.5</ele><time>2011-05-16T10:27:45Z</time></trkpt>
<trkpt lat="42.324055" lon="3.197142"><ele>113</ele><time>2011-05-16T10:27:50Z</time></trkpt>
<trkpt lat="42.323978" lon="3.197008"><ele>113.8</ele><time>2011-05-16T10:27:55Z</time></trkpt>
<trkpt lat="42.323902" lon="3.196875"><ele>114.6</ele><time>2011-05-16T10:28:00Z</time></trkpt>
<trkpt lat="42.323818" lon="3.196735"><ele>114.9</ele><time>2011-05-16T10:28:05Z</time></trkpt>
<trkpt lat="42.323730" lon="3.196612"><ele>115.7</ele><time>2011-05-16T10:28:10Z</time></trkpt>
<trkpt lat="42.323638" lon="3.196500"><ele>116.7</ele><time>2011-05-16T10:28:15Z</time></trkpt>
<trkpt lat="42.323537" lon="3.196403"><ele>117.4</ele><time>2011-05-16T10:28:20Z</time></trkpt>
<trkpt lat="42.323418" lon="3.196332"><ele>118.1</ele><time>2011-05-16T10:28:25Z</time></trkpt>
<trkpt lat="42.323303" lon="3.196282"><ele>119.1</ele><time>2011-05-16T10:28:30Z</time></trkpt>
<trkpt lat="42.323185" lon="3.196238"><ele>120</ele><time>2011-05-16T10:28:35Z</time></trkpt>
<trkpt lat="42.323055" lon="3.196212"><ele>120.6</ele><time>2011-05-16T10:28:40Z</time></trkpt>
<trkpt lat="42.322933" lon="3.196187"><ele>121.4</ele><time>2011-05-16T10:28:45Z</time></trkpt>
<trkpt lat="42.322812" lon="3.196167"><ele>122.1</ele><time>2011-05-16T10:28:50Z</time></trkpt>
<trkpt lat="42.322685" lon="3.196145"><ele>122.9</ele><time>2011-05-16T10:28:55Z</time></trkpt>
<trkpt lat="42.322567" lon="3.196128"><ele>124</ele><time>2011-05-16T10:29:00Z</time></trkpt>
<trkpt lat="42.322460" lon="3.196118"><ele>125.2</ele><time>2011-05-16T10:29:05Z</time></trkpt>
<trkpt lat="42.322338" lon="3.196117"><ele>126.4</ele><time>2011-05-16T10:29:10Z</time></trkpt>
<trkpt lat="42.322232" lon="3.196123"><ele>127.9</ele><time>2011-05-16T10:29:15Z</time></trkpt>
<trkpt lat="42.322113" lon="3.196132"><ele>129.7</ele><time>2011-05-16T10:29:20Z</time></trkpt>
<trkpt lat="42.321987" lon="3.196148"><ele>130.5</ele><time>2011-05-16T10:29:25Z</time></trkpt>
<trkpt lat="42.321865" lon="3.196183"><ele>131.3</ele><time>2011-05-16T10:29:30Z</time></trkpt>
<trkpt lat="42.321740" lon="3.196233"><ele>132.6</ele><time>2011-05-16T10:29:35Z</time></trkpt>
<trkpt lat="42.321605" lon="3.196257"><ele>133.7</ele><time>2011-05-16T10:29:40Z</time></trkpt>
<trkpt lat="42.321487" lon="3.196222"><ele>134.9</ele><time>2011-05-16T10:29:45Z</time></trkpt>
<trkpt lat="42.321385" lon="3.196150"><ele>136.4</ele><time>2011-05-16T10:29:50Z</time></trkpt>
<trkpt lat="42.321278" lon="3.196177"><ele>136.8</ele><time>2011-05-16T10:29:55Z</time></trkpt>
<trkpt lat="42.321225" lon="3.196302"><ele>138.1</ele><time>2011-05-16T10:30:00Z</time></trkpt>
<trkpt lat="42.321225" lon="3.196452"><ele>139</ele><time>2011-05-16T10:30:05Z</time></trkpt>
<trkpt lat="42.321252" lon="3.196617"><ele>139.4</ele><time>2011-05-16T10:30:10Z</time></trkpt>
<trkpt lat="42.321288" lon="3.196795"><ele>139.8</ele><time>2011-05-16T10:30:15Z</time></trkpt>
<trkpt lat="42.321323" lon="3.196970"><ele>140.3</ele><time>2011-05-16T10:30:20Z</time></trkpt>
<trkpt lat="42.321358" lon="3.197145"><ele>140.8</ele><time>2011-05-16T10:30:25Z</time></trkpt>
<trkpt lat="42.321380" lon="3.197325"><ele>141.4</ele><time>2011-05-16T10:30:30Z</time></trkpt>
<trkpt lat="42.321385" lon="3.197508"><ele>142.1</ele><time>2011-05-16T10:30:35Z</time></trkpt>
<trkpt lat="42.321362" lon="3.197680"><ele>142.9</ele><time>2011-05-16T10:30:40Z</time></trkpt>
<trkpt lat="42.321308" lon="3.197830"><ele>144.2</ele><time>2011-05-16T10:30:45Z</time></trkpt>
<trkpt lat="42.321243" lon="3.197988"><ele>144.8</ele><time>2011-05-16T10:30:50Z</time></trkpt>
<trkpt lat="42.321170" lon="3.198130"><ele>145.7</ele><time>2011-05-16T10:30:55Z</time></trkpt>
<trkpt lat="42.321090" lon="3.198263"><ele>146.3</ele><time>2011-05-16T10:31:00Z</time></trkpt>
<trkpt lat="42.321007" lon="3.198402"><ele>147.2</ele><time>2011-05-16T10:31:05Z</time></trkpt>
<trkpt lat="42.320930" lon="3.198540"><ele>148</ele><time>2011-05-16T10:31:10Z</time></trkpt>
<trkpt lat="42.320847" lon="3.198700"><ele>148.4</ele><time>2011-05-16T10:31:15Z</time></trkpt>
<trkpt lat="42.320747" lon="3.198850"><ele>149.1</ele><time>2011-05-16T10:31:20Z</time></trkpt>
<trkpt lat="42.320622" lon="3.198942"><ele>149.4</ele><time>2011-05-16T10:31:25Z</time></trkpt>
<trkpt lat="42.320480" lon="3.198952"><ele>150.3</ele><time>2011-05-16T10:31:30Z</time></trkpt>
<trkpt lat="42.320340" lon="3.198945"><ele>150.9</ele><time>2011-05-16T10:31:35Z</time></trkpt>
<trkpt lat="42.320210" lon="3.198963"><ele>151.8</ele><time>2011-05-16T10:31:40Z</time></trkpt>
<trkpt lat="42.320077" lon="3.199032"><ele>152.6</ele><time>2011-05-16T10:31:45Z</time></trkpt>
<trkpt lat="42.319947" lon="3.199112"><ele>153.4</ele><time>2011-05-16T10:31:50Z</time></trkpt>
<trkpt lat="42.319805" lon="3.199125"><ele>153.9</ele><time>2011-05-16T10:31:55Z</time></trkpt>
<trkpt lat="42.319675" lon="3.199060"><ele>154.7</ele><time>2011-05-16T10:32:00Z</time></trkpt>
<trkpt lat="42.319545" lon="3.198982"><ele>155.4</ele><time>2011-05-16T10:32:05Z</time></trkpt>
<trkpt lat="42.319412" lon="3.198967"><ele>156.2</ele><time>2011-05-16T10:32:10Z</time></trkpt>
<trkpt lat="42.319275" lon="3.199018"><ele>156.8</ele><time>2011-05-16T10:32:15Z</time></trkpt>
<trkpt lat="42.319145" lon="3.199097"><ele>157.5</ele><time>2011-05-16T10:32:20Z</time></trkpt>
<trkpt lat="42.319015" lon="3.199155"><ele>158.4</ele><time>2011-05-16T10:32:25Z</time></trkpt>
<trkpt lat="42.318885" lon="3.199175"><ele>159.5</ele><time>2011-05-16T10:32:30Z</time></trkpt>
<trkpt lat="42.318760" lon="3.199107"><ele>159.9</ele><time>2011-05-16T10:32:35Z</time></trkpt>
<trkpt lat="42.318668" lon="3.198977"><ele>160.7</ele><time>2011-05-16T10:32:40Z</time></trkpt>
<trkpt lat="42.318580" lon="3.198835"><ele>161.3</ele><time>2011-05-16T10:32:45Z</time></trkpt>
<trkpt lat="42.318500" lon="3.198683"><ele>161.9</ele><time>2011-05-16T10:32:50Z</time></trkpt>
<trkpt lat="42.318428" lon="3.198527"><ele>163</ele><time>2011-05-16T10:32:55Z</time></trkpt>
<trkpt lat="42.318375" lon="3.198358"><ele>163.8</ele><time>2011-05-16T10:33:00Z</time></trkpt>
<trkpt lat="42.318340" lon="3.198185"><ele>164.6</ele><time>2011-05-16T10:33:05Z</time></trkpt>
<trkpt lat="42.318302" lon="3.198015"><ele>165.8</ele><time>2011-05-16T10:33:10Z</time></trkpt>
<trkpt lat="42.318207" lon="3.197910"><ele>166.8</ele><time>2011-05-16T10:33:15Z</time></trkpt>
<trkpt lat="42.318097" lon="3.197908"><ele>167.8</ele><time>2011-05-16T10:33:20Z</time></trkpt>
<trkpt lat="42.317985" lon="3.197927"><ele>168.6</ele><time>2011-05-16T10:33:25Z</time></trkpt>
<trkpt lat="42.317872" lon="3.197952"><ele>169.4</ele><time>2011-05-16T10:33:30Z</time></trkpt>
<trkpt lat="42.317753" lon="3.197988"><ele>170</ele><time>2011-05-16T10:33:35Z</time></trkpt>
<trkpt lat="42.317638" lon="3.198028"><ele>170.9</ele><time>2011-05-16T10:33:40Z</time></trkpt>
<trkpt lat="42.317535" lon="3.198083"><ele>171.9</ele><time>2011-05-16T10:33:45Z</time></trkpt>
<trkpt lat="42.317437" lon="3.198168"><ele>172.9</ele><time>2011-05-16T10:33:50Z</time></trkpt>
<trkpt lat="42.317352" lon="3.198273"><ele>174</ele><time>2011-05-16T10:33:55Z</time></trkpt>
<trkpt lat="42.317272" lon="3.198403"><ele>174.6</ele><time>2011-05-16T10:34:00Z</time></trkpt>
<trkpt lat="42.317200" lon="3.198542"><ele>175.4</ele><time>2011-05-16T10:34:05Z</time></trkpt>
<trkpt lat="42.317135" lon="3.198693"><ele>176.2</ele><time>2011-05-16T10:34:10Z</time></trkpt>
<trkpt lat="42.317062" lon="3.198835"><ele>176.8</ele><time>2011-05-16T10:34:15Z</time></trkpt>
<trkpt lat="42.316963" lon="3.198935"><ele>177.4</ele><time>2011-05-16T10:34:20Z</time></trkpt>
<trkpt lat="42.316845" lon="3.198915"><ele>178.1</ele><time>2011-05-16T10:34:25Z</time></trkpt>
<trkpt lat="42.316735" lon="3.198810"><ele>178.6</ele><time>2011-05-16T10:34:30Z</time></trkpt>
<trkpt lat="42.316655" lon="3.198687"><ele>179.5</ele><time>2011-05-16T10:34:35Z</time></trkpt>
<trkpt lat="42.316608" lon="3.198540"><ele>180.2</ele><time>2011-05-16T10:34:40Z</time></trkpt>
<trkpt lat="42.316573" lon="3.198383"><ele>180.8</ele><time>2011-05-16T10:34:45Z</time></trkpt>
<trkpt lat="42.316540" lon="3.198227"><ele>181.6</ele><time>2011-05-16T10:34:50Z</time></trkpt>
<trkpt lat="42.316517" lon="3.198065"><ele>182.4</ele><time>2011-05-16T10:34:55Z</time></trkpt>
<trkpt lat="42.316487" lon="3.197900"><ele>183.1</ele><time>2011-05-16T10:35:00Z</time></trkpt>
<trkpt lat="42.316452" lon="3.197735"><ele>183.9</ele><time>2011-05-16T10:35:05Z</time></trkpt>
<trkpt lat="42.316407" lon="3.197553"><ele>184.5</ele><time>2011-05-16T10:35:10Z</time></trkpt>
<trkpt lat="42.316365" lon="3.197372"><ele>185.6</ele><time>2011-05-16T10:35:15Z</time></trkpt>
<trkpt lat="42.316333" lon="3.197183"><ele>186.5</ele><time>2011-05-16T10:35:20Z</time></trkpt>
<trkpt lat="42.316327" lon="3.196993"><ele>187.6</ele><time>2011-05-16T10:35:25Z</time></trkpt>
<trkpt lat="42.316353" lon="3.196805"><ele>188.7</ele><time>2011-05-16T10:35:30Z</time></trkpt>
<trkpt lat="42.316407" lon="3.196635"><ele>189.8</ele><time>2011-05-16T10:35:35Z</time></trkpt>
<trkpt lat="42.316483" lon="3.196468"><ele>190.8</ele><time>2011-05-16T10:35:40Z</time></trkpt>
<trkpt lat="42.316558" lon="3.196318"><ele>191.9</ele><time>2011-05-16T10:35:45Z</time></trkpt>
<trkpt lat="42.316647" lon="3.196170"><ele>192.9</ele><time>2011-05-16T10:35:50Z</time></trkpt>
<trkpt lat="42.316738" lon="3.196025"><ele>193.8</ele><time>2011-05-16T10:35:55Z</time></trkpt>
<trkpt lat="42.316822" lon="3.195883"><ele>194.9</ele><time>2011-05-16T10:36:00Z</time></trkpt>
<trkpt lat="42.316907" lon="3.195733"><ele>195.7</ele><time>2011-05-16T10:36:05Z</time></trkpt>
<trkpt lat="42.316952" lon="3.195555"><ele>196.6</ele><time>2011-05-16T10:36:10Z</time></trkpt>
<trkpt lat="42.316917" lon="3.195372"><ele>197.1</ele><time>2011-05-16T10:36:15Z</time></trkpt>
<trkpt lat="42.316827" lon="3.195228"><ele>198.1</ele><time>2011-05-16T10:36:20Z</time></trkpt>
<trkpt lat="42.316745" lon="3.195085"><ele>199.1</ele><time>2011-05-16T10:36:25Z</time></trkpt>
<trkpt lat="42.316665" lon="3.194937"><ele>200.1</ele><time>2011-05-16T10:36:30Z</time></trkpt>
<trkpt lat="42.316558" lon="3.194830"><ele>201.2</ele><time>2011-05-16T10:36:35Z</time></trkpt>
<trkpt lat="42.316413" lon="3.194768"><ele>201.5</ele><time>2011-05-16T10:36:40Z</time></trkpt>
<trkpt lat="42.316280" lon="3.194713"><ele>201.8</ele><time>2011-05-16T10:36:45Z</time></trkpt>
<trkpt lat="42.316140" lon="3.194657"><ele>202</ele><time>2011-05-16T10:36:50Z</time></trkpt>
<trkpt lat="42.316002" lon="3.194592"><ele>202.2</ele><time>2011-05-16T10:36:55Z</time></trkpt>
<trkpt lat="42.315865" lon="3.194533"><ele>202.7</ele><time>2011-05-16T10:37:00Z</time></trkpt>
<trkpt lat="42.315732" lon="3.194477"><ele>203.5</ele><time>2011-05-16T10:37:05Z</time></trkpt>
<trkpt lat="42.315593" lon="3.194440"><ele>204.5</ele><time>2011-05-16T10:37:10Z</time></trkpt>
<trkpt lat="42.315448" lon="3.194423"><ele>205.1</ele><time>2011-05-16T10:37:15Z</time></trkpt>
<trkpt lat="42.315303" lon="3.194433"><ele>205.8</ele><time>2011-05-16T10:37:20Z</time></trkpt>
<trkpt lat="42.315167" lon="3.194468"><ele>206.4</ele><time>2011-05-16T10:37:25Z</time></trkpt>
<trkpt lat="42.315028" lon="3.194505"><ele>207.3</ele><time>2011-05-16T10:37:30Z</time></trkpt>
<trkpt lat="42.314895" lon="3.194562"><ele>207.9</ele><time>2011-05-16T10:37:35Z</time></trkpt>
<trkpt lat="42.314762" lon="3.194625"><ele>208.6</ele><time>2011-05-16T10:37:40Z</time></trkpt>
<trkpt lat="42.314617" lon="3.194663"><ele>209.3</ele><time>2011-05-16T10:37:45Z</time></trkpt>
<trkpt lat="42.314477" lon="3.194638"><ele>209.8</ele><time>2011-05-16T10:37:50Z</time></trkpt>
<trkpt lat="42.314338" lon="3.194578"><ele>210.4</ele><time>2011-05-16T10:37:55Z</time></trkpt>
<trkpt lat="42.314202" lon="3.194515"><ele>210.9</ele><time>2011-05-16T10:38:00Z</time></trkpt>
<trkpt lat="42.314068" lon="3.194467"><ele>211.7</ele><time>2011-05-16T10:38:05Z</time></trkpt>
<trkpt lat="42.313938" lon="3.194422"><ele>212.6</ele><time>2011-05-16T10:38:10Z</time></trkpt>
<trkpt lat="42.313797" lon="3.194387"><ele>213.3</ele><time>2011-05-16T10:38:15Z</time></trkpt>
<trkpt lat="42.313660" lon="3.194353"><ele>214</ele><time>2011-05-16T10:38:20Z</time></trkpt>
<trkpt lat="42.313527" lon="3.194347"><ele>214.7</ele><time>2011-05-16T10:38:25Z</time></trkpt>
<trkpt lat="42.313388" lon="3.194375"><ele>215.7</ele><time>2011-05-16T10:38:30Z</time></trkpt>
<trkpt lat="42.313255" lon="3.194430"><ele>216.6</ele><time>2011-05-16T10:38:35Z</time></trkpt>
<trkpt lat="42.313122" lon="3.194492"><ele>217.6</ele><time>2011-05-16T10:38:40Z</time></trkpt>
<trkpt lat="42.312992" lon="3.194562"><ele>218.5</ele><time>2011-05-16T10:38:45Z</time></trkpt>
<trkpt lat="42.312858" lon="3.194643"><ele>219.4</ele><time>2011-05-16T10:38:50Z</time></trkpt>
<trkpt lat="42.312728" lon="3.194713"><ele>220.4</ele><time>2011-05-16T10:38:55Z</time></trkpt>
<trkpt lat="42.312588" lon="3.194772"><ele>221.1</ele><time>2011-05-16T10:39:00Z</time></trkpt>
<trkpt lat="42.312455" lon="3.194817"><ele>222</ele><time>2011-05-16T10:39:05Z</time></trkpt>
<trkpt lat="42.312320" lon="3.194852"><ele>223</ele><time>2011-05-16T10:39:10Z</time></trkpt>
<trkpt lat="42.312192" lon="3.194830"><ele>224.2</ele><time>2011-05-16T10:39:15Z</time></trkpt>
<trkpt lat="42.312065" lon="3.194758"><ele>225.1</ele><time>2011-05-16T10:39:20Z</time></trkpt>
<trkpt lat="42.311940" lon="3.194680"><ele>225.5</ele><time>2011-05-16T10:39:25Z</time></trkpt>
<trkpt lat="42.311817" lon="3.194600"><ele>225.9</ele><time>2011-05-16T10:39:30Z</time></trkpt>
<trkpt lat="42.311683" lon="3.194515"><ele>226.2</ele><time>2011-05-16T10:39:35Z</time></trkpt>
<trkpt lat="42.311547" lon="3.194460"><ele>226.8</ele><time>2011-05-16T10:39:40Z</time></trkpt>
<trkpt lat="42.311420" lon="3.194423"><ele>227.6</ele><time>2011-05-16T10:39:45Z</time></trkpt>
<trkpt lat="42.311290" lon="3.194385"><ele>228.4</ele><time>2011-05-16T10:39:50Z</time></trkpt>
<trkpt lat="42.311157" lon="3.194365"><ele>229.2</ele><time>2011-05-16T10:39:55Z</time></trkpt>
<trkpt lat="42.311028" lon="3.194380"><ele>230.2</ele><time>2011-05-16T10:40:00Z</time></trkpt>
<trkpt lat="42.310893" lon="3.194413"><ele>231.1</ele><time>2011-05-16T10:40:05Z</time></trkpt>
<trkpt lat="42.310768" lon="3.194470"><ele>232.1</ele><time>2011-05-16T10:40:10Z</time></trkpt>
<trkpt lat="42.310638" lon="3.194538"><ele>233.7</ele><time>2011-05-16T10:40:15Z</time></trkpt>
<trkpt lat="42.310493" lon="3.194568"><ele>234.5</ele><time>2011-05-16T10:40:20Z</time></trkpt>
<trkpt lat="42.310360" lon="3.194628"><ele>235.3</ele><time>2011-05-16T10:40:25Z</time></trkpt>
<trkpt lat="42.310223" lon="3.194622"><ele>236.3</ele><time>2011-05-16T10:40:30Z</time></trkpt>
<trkpt lat="42.310100" lon="3.194525"><ele>236.6</ele><time>2011-05-16T10:40:35Z</time></trkpt>
<trkpt lat="42.309972" lon="3.194457"><ele>237.3</ele><time>2011-05-16T10:40:40Z</time></trkpt>
<trkpt lat="42.309837" lon="3.194415"><ele>238.2</ele><time>2011-05-16T10:40:45Z</time></trkpt>
<trkpt lat="42.309708" lon="3.194353"><ele>239.3</ele><time>2011-05-16T10:40:50Z</time></trkpt>
<trkpt lat="42.309597" lon="3.194242"><ele>240.4</ele><time>2011-05-16T10:40:55Z</time></trkpt>
<trkpt lat="42.309517" lon="3.194095"><ele>241.3</ele><time>2011-05-16T10:41:00Z</time></trkpt>
<trkpt lat="42.309437" lon="3.193945"><ele>242</ele><time>2011-05-16T10:41:05Z</time></trkpt>
<trkpt lat="42.309353" lon="3.193812"><ele>243.1</ele><time>2011-05-16T10:41:10Z</time></trkpt>
<trkpt lat="42.309253" lon="3.193692"><ele>244.1</ele><time>2011-05-16T10:41:15Z</time></trkpt>
<trkpt lat="42.309147" lon="3.193597"><ele>244.9</ele><time>2011-05-16T10:41:20Z</time></trkpt>
<trkpt lat="42.309043" lon="3.193525"><ele>245.6</ele><time>2011-05-16T10:41:25Z</time></trkpt>
<trkpt lat="42.308933" lon="3.193465"><ele>246.5</ele><time>2011-05-16T10:41:30Z</time></trkpt>
<trkpt lat="42.308823" lon="3.193400"><ele>247.1</ele><time>2011-05-16T10:41:35Z</time></trkpt>
<trkpt lat="42.308712" lon="3.193345"><ele>248</ele><time>2011-05-16T10:41:40Z</time></trkpt>
<trkpt lat="42.308602" lon="3.193310"><ele>249</ele><time>2011-05-16T10:41:45Z</time></trkpt>
<trkpt lat="42.308483" lon="3.193275"><ele>250</ele><time>2011-05-16T10:41:50Z</time></trkpt>
<trkpt lat="42.308377" lon="3.193207"><ele>250.8</ele><time>2011-05-16T10:41:55Z</time></trkpt>
<trkpt lat="42.308273" lon="3.193133"><ele>251.6</ele><time>2011-05-16T10:42:00Z</time></trkpt>
<trkpt lat="42.308152" lon="3.193055"><ele>252.3</ele><time>2011-05-16T10:42:05Z</time></trkpt>
<trkpt lat="42.308033" lon="3.192988"><ele>253.2</ele><time>2011-05-16T10:42:10Z</time></trkpt>
<trkpt lat="42.307900" lon="3.192943"><ele>254.1</ele><time>2011-05-16T10:42:15Z</time></trkpt>
<trkpt lat="42.307770" lon="3.192925"><ele>255.3</ele><time>2011-05-16T10:42:20Z</time></trkpt>
<trkpt lat="42.307658" lon="3.192922"><ele>256.2</ele><time>2011-05-16T10:42:25Z</time></trkpt>
<trkpt lat="42.307545" lon="3.192923"><ele>257.3</ele><time>2011-05-16T10:42:30Z</time></trkpt>
<trkpt lat="42.307430" lon="3.192925"><ele>258.2</ele><time>2011-05-16T10:42:35Z</time></trkpt>
<trkpt lat="42.307320" lon="3.192922"><ele>258.9</ele><time>2011-05-16T10:42:40Z</time></trkpt>
<trkpt lat="42.307202" lon="3.192917"><ele>260.1</ele><time>2011-05-16T10:42:45Z</time></trkpt>
<trkpt lat="42.307083" lon="3.192883"><ele>260.8</ele><time>2011-05-16T10:42:50Z</time></trkpt>
<trkpt lat="42.306965" lon="3.192845"><ele>261.5</ele><time>2011-05-16T10:42:55Z</time></trkpt>
<trkpt lat="42.306865" lon="3.192757"><ele>262.2</ele><time>2011-05-16T10:43:00Z</time></trkpt>
<trkpt lat="42.306758" lon="3.192675"><ele>263</ele><time>2011-05-16T10:43:05Z</time></trkpt>
<trkpt lat="42.306652" lon="3.192603"><ele>263.8</ele><time>2011-05-16T10:43:10Z</time></trkpt>
<trkpt lat="42.306545" lon="3.192553"><ele>264.7</ele><time>2011-05-16T10:43:15Z</time></trkpt>
<trkpt lat="42.306430" lon="3.192512"><ele>265.8</ele><time>2011-05-16T10:43:20Z</time></trkpt>
<trkpt lat="42.306317" lon="3.192500"><ele>267.1</ele><time>2011-05-16T10:43:25Z</time></trkpt>
<trkpt lat="42.306202" lon="3.192467"><ele>268.3</ele><time>2011-05-16T10:43:30Z</time></trkpt>
<trkpt lat="42.306103" lon="3.192407"><ele>269.7</ele><time>2011-05-16T10:43:35Z</time></trkpt>
<trkpt lat="42.306003" lon="3.192367"><ele>271.1</ele><time>2011-05-16T10:43:40Z</time></trkpt>
<trkpt lat="42.305905" lon="3.192372"><ele>271.7</ele><time>2011-05-16T10:43:45Z</time></trkpt>
<trkpt lat="42.305852" lon="3.192512"><ele>272.7</ele><time>2011-05-16T10:43:50Z</time></trkpt>
<trkpt lat="42.305912" lon="3.192633"><ele>273.7</ele><time>2011-05-16T10:43:55Z</time></trkpt>
<trkpt lat="42.306018" lon="3.192722"><ele>274.3</ele><time>2011-05-16T10:44:00Z</time></trkpt>
<trkpt lat="42.306125" lon="3.192815"><ele>275</ele><time>2011-05-16T10:44:05Z</time></trkpt>
<trkpt lat="42.306225" lon="3.192910"><ele>275.8</ele><time>2011-05-16T10:44:10Z</time></trkpt>
<trkpt lat="42.306320" lon="3.193032"><ele>276.7</ele><time>2011-05-16T10:44:15Z</time></trkpt>
<trkpt lat="42.306362" lon="3.193170"><ele>278</ele><time>2011-05-16T10:44:20Z</time></trkpt>
<trkpt lat="42.306382" lon="3.193337"><ele>278.7</ele><time>2011-05-16T10:44:25Z</time></trkpt>
<trkpt lat="42.306397" lon="3.193498"><ele>279.3</ele><time>2011-05-16T10:44:30Z</time></trkpt>
<trkpt lat="42.306412" lon="3.193660"><ele>279.9</ele><time>2011-05-16T10:44:35Z</time></trkpt>
<trkpt lat="42.306427" lon="3.193823"><ele>280.7</ele><time>2011-05-16T10:44:40Z</time></trkpt>
<trkpt lat="42.306450" lon="3.193987"><ele>281.2</ele><time>2011-05-16T10:44:45Z</time></trkpt>
<trkpt lat="42.306465" lon="3.194155"><ele>282.1</ele><time>2011-05-16T10:44:50Z</time></trkpt>
<trkpt lat="42.306538" lon="3.194292"><ele>282.9</ele><time>2011-05-16T10:44:55Z</time></trkpt>
<trkpt lat="42.306672" lon="3.194340"><ele>283.4</ele><time>2011-05-16T10:45:00Z</time></trkpt>
<trkpt lat="42.306802" lon="3.194363"><ele>283.8</ele><time>2011-05-16T10:45:05Z</time></trkpt>
<trkpt lat="42.306942" lon="3.194405"><ele>284.1</ele><time>2011-05-16T10:45:10Z</time></trkpt>
<trkpt lat="42.307083" lon="3.194458"><ele>284.6</ele><time>2011-05-16T10:45:15Z</time></trkpt>
<trkpt lat="42.307225" lon="3.194512"><ele>285.3</ele><time>2011-05-16T10:45:20Z</time></trkpt>
<trkpt lat="42.307365" lon="3.194585"><ele>285.6</ele><time>2011-05-16T10:45:25Z</time></trkpt>
<trkpt lat="42.307503" lon="3.194680"><ele>286.3</ele><time>2011-05-16T10:45:30Z</time></trkpt>
<trkpt lat="42.307613" lon="3.194810"><ele>287.2</ele><time>2011-05-16T10:45:35Z</time></trkpt>
<trkpt lat="42.307667" lon="3.194993"><ele>288.1</ele><time>2011-05-16T10:45:40Z</time></trkpt>
<trkpt lat="42.307705" lon="3.195192"><ele>288.9</ele><time>2011-05-16T10:45:45Z</time></trkpt>
<trkpt lat="42.307732" lon="3.195373"><ele>290</ele><time>2011-05-16T10:45:50Z</time></trkpt>
<trkpt lat="42.307762" lon="3.195543"><ele>291.3</ele><time>2011-05-16T10:45:55Z</time></trkpt>
<trkpt lat="42.307800" lon="3.195715"><ele>292.8</ele><time>2011-05-16T10:46:00Z</time></trkpt>
<trkpt lat="42.307847" lon="3.195897"><ele>293.6</ele><time>2011-05-16T10:46:05Z</time></trkpt>
<trkpt lat="42.307900" lon="3.196073"><ele>294.4</ele><time>2011-05-16T10:46:10Z</time></trkpt>
<trkpt lat="42.307983" lon="3.196225"><ele>295.6</ele><time>2011-05-16T10:46:15Z</time></trkpt>
<trkpt lat="42.308040" lon="3.196390"><ele>296.3</ele><time>2011-05-16T10:46:20Z</time></trkpt>
<trkpt lat="42.308067" lon="3.196578"><ele>297</ele><time>2011-05-16T10:46:25Z</time></trkpt>
<trkpt lat="42.307998" lon="3.196702"><ele>298</ele><time>2011-05-16T10:46:30Z</time></trkpt>
<trkpt lat="42.307868" lon="3.196715"><ele>298.6</ele><time>2011-05-16T10:46:35Z</time></trkpt>
<trkpt lat="42.307747" lon="3.196638"><ele>299.2</ele><time>2011-05-16T10:46:40Z</time></trkpt>
<trkpt lat="42.307628" lon="3.196570"><ele>299.9</ele><time>2011-05-16T10:46:45Z</time></trkpt>
<trkpt lat="42.307522" lon="3.196492"><ele>300.4</ele><time>2011-05-16T10:46:50Z</time></trkpt>
<trkpt lat="42.307423" lon="3.196405"><ele>300.8</ele><time>2011-05-16T10:46:55Z</time></trkpt>
<trkpt lat="42.307323" lon="3.196323"><ele>301.2</ele><time>2011-05-16T10:47:00Z</time></trkpt>
<trkpt lat="42.307217" lon="3.196253"><ele>301.7</ele><time>2011-05-16T10:47:05Z</time></trkpt>
<trkpt lat="42.307110" lon="3.196205"><ele>302.7</ele><time>2011-05-16T10:47:10Z</time></trkpt>
<trkpt lat="42.307000" lon="3.196167"><ele>302.9</ele><time>2011-05-16T10:47:15Z</time></trkpt>
<trkpt lat="42.306873" lon="3.196140"><ele>303.1</ele><time>2011-05-16T10:47:20Z</time></trkpt>
<trkpt lat="42.306752" lon="3.196110"><ele>303.6</ele><time>2011-05-16T10:47:25Z</time></trkpt>
<trkpt lat="42.306633" lon="3.196080"><ele>304</ele><time>2011-05-16T10:47:30Z</time></trkpt>
<trkpt lat="42.306515" lon="3.196052"><ele>304.5</ele><time>2011-05-16T10:47:35Z</time></trkpt>
<trkpt lat="42.306400" lon="3.196017"><ele>305.1</ele><time>2011-05-16T10:47:40Z</time></trkpt>
<trkpt lat="42.306287" lon="3.195972"><ele>305.8</ele><time>2011-05-16T10:47:45Z</time></trkpt>
<trkpt lat="42.306172" lon="3.195912"><ele>306.5</ele><time>2011-05-16T10:47:50Z</time></trkpt>
<trkpt lat="42.306060" lon="3.195843"><ele>307.1</ele><time>2011-05-16T10:47:55Z</time></trkpt>
<trkpt lat="42.305958" lon="3.195788"><ele>307.9</ele><time>2011-05-16T10:48:00Z</time></trkpt>
<trkpt lat="42.305840" lon="3.195745"><ele>308.5</ele><time>2011-05-16T10:48:05Z</time></trkpt>
<trkpt lat="42.305722" lon="3.195718"><ele>309</ele><time>2011-05-16T10:48:10Z</time></trkpt>
<trkpt lat="42.305592" lon="3.195703"><ele>309.7</ele><time>2011-05-16T10:48:15Z</time></trkpt>
<trkpt lat="42.305458" lon="3.195682"><ele>310.4</ele><time>2011-05-16T10:48:20Z</time></trkpt>
<trkpt lat="42.305317" lon="3.195650"><ele>310.9</ele><time>2011-05-16T10:48:25Z</time></trkpt>
<trkpt lat="42.305165" lon="3.195603"><ele>311.5</ele><time>2011-05-16T10:48:30Z</time></trkpt>
<trkpt lat="42.305008" lon="3.195562"><ele>312</ele><time>2011-05-16T10:48:35Z</time></trkpt>
<trkpt lat="42.304855" lon="3.195537"><ele>312.6</ele><time>2011-05-16T10:48:40Z</time></trkpt>
<trkpt lat="42.304688" lon="3.195532"><ele>313.1</ele><time>2011-05-16T10:48:45Z</time></trkpt>
<trkpt lat="42.304527" lon="3.195552"><ele>313.6</ele><time>2011-05-16T10:48:50Z</time></trkpt>
<trkpt lat="42.304360" lon="3.195563"><ele>314</ele><time>2011-05-16T10:48:55Z</time></trkpt>
<trkpt lat="42.304195" lon="3.195577"><ele>314.5</ele><time>2011-05-16T10:49:00Z</time></trkpt>
<trkpt lat="42.304023" lon="3.195592"><ele>314.9</ele><time>2011-05-16T10:49:05Z</time></trkpt>
<trkpt lat="42.303860" lon="3.195573"><ele>316</ele><time>2011-05-16T10:49:10Z</time></trkpt>
<trkpt lat="42.303718" lon="3.195507"><ele>317.1</ele><time>2011-05-16T10:49:15Z</time></trkpt>
<trkpt lat="42.303588" lon="3.195393"><ele>317.9</ele><time>2011-05-16T10:49:20Z</time></trkpt>
<trkpt lat="42.303463" lon="3.195268"><ele>318.5</ele><time>2011-05-16T10:49:25Z</time></trkpt>
<trkpt lat="42.303337" lon="3.195170"><ele>319.2</ele><time>2011-05-16T10:49:30Z</time></trkpt>
<trkpt lat="42.303203" lon="3.195092"><ele>320</ele><time>2011-05-16T10:49:35Z</time></trkpt>
<trkpt lat="42.303062" lon="3.195018"><ele>320.8</ele><time>2011-05-16T10:49:40Z</time></trkpt>
<trkpt lat="42.302928" lon="3.194935"><ele>321.7</ele><time>2011-05-16T10:49:45Z</time></trkpt>
<trkpt lat="42.302818" lon="3.194838"><ele>322.6</ele><time>2011-05-16T10:49:50Z</time></trkpt>
<trkpt lat="42.302730" lon="3.194735"><ele>323.5</ele><time>2011-05-16T10:49:55Z</time></trkpt>
<trkpt lat="42.302612" lon="3.194657"><ele>324.2</ele><time>2011-05-16T10:50:00Z</time></trkpt>
<trkpt lat="42.302493" lon="3.194705"><ele>324.9</ele><time>2011-05-16T10:50:05Z</time></trkpt>
<trkpt lat="42.302398" lon="3.194835"><ele>325.9</ele><time>2011-05-16T10:50:10Z</time></trkpt>
<trkpt lat="42.302300" lon="3.194962"><ele>326.6</ele><time>2011-05-16T10:50:15Z</time></trkpt>
<trkpt lat="42.302182" lon="3.195072"><ele>327.3</ele><time>2011-05-16T10:50:20Z</time></trkpt>
<trkpt lat="42.302055" lon="3.195158"><ele>327.9</ele><time>2011-05-16T10:50:25Z</time></trkpt>
<trkpt lat="42.301915" lon="3.195227"><ele>328.2</ele><time>2011-05-16T10:50:30Z</time></trkpt>
<trkpt lat="42.301788" lon="3.195358"><ele>328.7</ele><time>2011-05-16T10:50:35Z</time></trkpt>
<trkpt lat="42.301800" lon="3.195558"><ele>330.2</ele><time>2011-05-16T10:50:40Z</time></trkpt>
<trkpt lat="42.301888" lon="3.195742"><ele>330.7</ele><time>2011-05-16T10:50:45Z</time></trkpt>
<trkpt lat="42.301978" lon="3.195897"><ele>331.8</ele><time>2011-05-16T10:50:50Z</time></trkpt>
<trkpt lat="42.302060" lon="3.196038"><ele>333</ele><time>2011-05-16T10:50:55Z</time></trkpt>
<trkpt lat="42.302132" lon="3.196178"><ele>334.2</ele><time>2011-05-16T10:51:00Z</time></trkpt>
<trkpt lat="42.302203" lon="3.196325"><ele>335.1</ele><time>2011-05-16T10:51:05Z</time></trkpt>
<trkpt lat="42.302258" lon="3.196485"><ele>336</ele><time>2011-05-16T10:51:10Z</time></trkpt>
<trkpt lat="42.302277" lon="3.196680"><ele>336.8</ele><time>2011-05-16T10:51:15Z</time></trkpt>
<trkpt lat="42.302258" lon="3.196860"><ele>337.6</ele><time>2011-05-16T10:51:20Z</time></trkpt>
<trkpt lat="42.302197" lon="3.197038"><ele>338.4</ele><time>2011-05-16T10:51:25Z</time></trkpt>
<trkpt lat="42.302090" lon="3.197183"><ele>339.3</ele><time>2011-05-16T10:51:30Z</time></trkpt>
<trkpt lat="42.301948" lon="3.197283"><ele>340</ele><time>2011-05-16T10:51:35Z</time></trkpt>
<trkpt lat="42.301777" lon="3.197340"><ele>339.7</ele><time>2011-05-16T10:51:40Z</time></trkpt>
<trkpt lat="42.301605" lon="3.197390"><ele>339.2</ele><time>2011-05-16T10:51:45Z</time></trkpt>
<trkpt lat="42.301400" lon="3.197490"><ele>338.9</ele><time>2011-05-16T10:51:50Z</time></trkpt>
<trkpt lat="42.301220" lon="3.197582"><ele>338.4</ele><time>2011-05-16T10:51:55Z</time></trkpt>
<trkpt lat="42.300998" lon="3.197558"><ele>338.1</ele><time>2011-05-16T10:52:00Z</time></trkpt>
<trkpt lat="42.300762" lon="3.197447"><ele>337.4</ele><time>2011-05-16T10:52:05Z</time></trkpt>
<trkpt lat="42.300542" lon="3.197332"><ele>336.6</ele><time>2011-05-16T10:52:10Z</time></trkpt>
<trkpt lat="42.300317" lon="3.197240"><ele>335.8</ele><time>2011-05-16T10:52:15Z</time></trkpt>
<trkpt lat="42.300102" lon="3.197118"><ele>334.9</ele><time>2011-05-16T10:52:20Z</time></trkpt>
<trkpt lat="42.299885" lon="3.196985"><ele>333.6</ele><time>2011-05-16T10:52:25Z</time></trkpt>
<trkpt lat="42.299648" lon="3.196853"><ele>332.5</ele><time>2011-05-16T10:52:30Z</time></trkpt>
<trkpt lat="42.299408" lon="3.196712"><ele>331.2</ele><time>2011-05-16T10:52:35Z</time></trkpt>
<trkpt lat="42.299148" lon="3.196610"><ele>329.7</ele><time>2011-05-16T10:52:40Z</time></trkpt>
<trkpt lat="42.298840" lon="3.196628"><ele>327.2</ele><time>2011-05-16T10:52:45Z</time></trkpt>
<trkpt lat="42.298488" lon="3.196585"><ele>324.7</ele><time>2011-05-16T10:52:50Z</time></trkpt>
<trkpt lat="42.298203" lon="3.196832"><ele>322.9</ele><time>2011-05-16T10:52:55Z</time></trkpt>
<trkpt lat="42.298138" lon="3.197278"><ele>322.1</ele><time>2011-05-16T10:53:00Z</time></trkpt>
<trkpt lat="42.298153" lon="3.197772"><ele>320.5</ele><time>2011-05-16T10:53:05Z</time></trkpt>
<trkpt lat="42.297997" lon="3.198228"><ele>318</ele><time>2011-05-16T10:53:10Z</time></trkpt>
<trkpt lat="42.297748" lon="3.198638"><ele>315.8</ele><time>2011-05-16T10:53:15Z</time></trkpt>
<trkpt lat="42.297538" lon="3.199052"><ele>313</ele><time>2011-05-16T10:53:20Z</time></trkpt>
<trkpt lat="42.297577" lon="3.199482"><ele>311.4</ele><time>2011-05-16T10:53:25Z</time></trkpt>
<trkpt lat="42.297722" lon="3.199873"><ele>309.7</ele><time>2011-05-16T10:53:30Z</time></trkpt>
<trkpt lat="42.297867" lon="3.200217"><ele>308.6</ele><time>2011-05-16T10:53:35Z</time></trkpt>
<trkpt lat="42.298092" lon="3.200538"><ele>305.8</ele><time>2011-05-16T10:53:40Z</time></trkpt>
<trkpt lat="42.298180" lon="3.201012"><ele>303.6</ele><time>2011-05-16T10:53:45Z</time></trkpt>
<trkpt lat="42.298133" lon="3.201550"><ele>301.8</ele><time>2011-05-16T10:53:50Z</time></trkpt>
<trkpt lat="42.298027" lon="3.202053"><ele>299.1</ele><time>2011-05-16T10:53:55Z</time></trkpt>
<trkpt lat="42.297778" lon="3.202480"><ele>296.1</ele><time>2011-05-16T10:54:00Z</time></trkpt>
<trkpt lat="42.297432" lon="3.202768"><ele>293.8</ele><time>2011-05-16T10:54:05Z</time></trkpt>
<trkpt lat="42.297058" lon="3.202983"><ele>291.3</ele><time>2011-05-16T10:54:10Z</time></trkpt>
<trkpt lat="42.296715" lon="3.203192"><ele>288.2</ele><time>2011-05-16T10:54:15Z</time></trkpt>
<trkpt lat="42.296502" lon="3.203600"><ele>285.4</ele><time>2011-05-16T10:54:20Z</time></trkpt>
<trkpt lat="42.296352" lon="3.204068"><ele>283.2</ele><time>2011-05-16T10:54:25Z</time></trkpt>
<trkpt lat="42.296322" lon="3.204585"><ele>281.1</ele><time>2011-05-16T10:54:30Z</time></trkpt>
<trkpt lat="42.296265" lon="3.205132"><ele>279.2</ele><time>2011-05-16T10:54:35Z</time></trkpt>
<trkpt lat="42.296062" lon="3.205547"><ele>276.6</ele><time>2011-05-16T10:54:40Z</time></trkpt>
<trkpt lat="42.295708" lon="3.205615"><ele>274.4</ele><time>2011-05-16T10:54:45Z</time></trkpt>
<trkpt lat="42.295505" lon="3.205577"><ele>273.6</ele><time>2011-05-16T10:54:50Z</time></trkpt>
<trkpt lat="42.295457" lon="3.205580"><ele>272.7</ele><time>2011-05-16T10:54:55Z</time></trkpt>
<trkpt lat="42.295345" lon="3.205535"><ele>271.7</ele><time>2011-05-16T10:55:00Z</time></trkpt>
<trkpt lat="42.295167" lon="3.205515"><ele>270</ele><time>2011-05-16T10:55:05Z</time></trkpt>
<trkpt lat="42.295010" lon="3.205543"><ele>268.9</ele><time>2011-05-16T10:55:10Z</time></trkpt>
<trkpt lat="42.294957" lon="3.205583"><ele>269.4</ele><time>2011-05-16T10:55:15Z</time></trkpt>
<trkpt lat="42.294827" lon="3.205762"><ele>270.1</ele><time>2011-05-16T10:55:20Z</time></trkpt>
<trkpt lat="42.294693" lon="3.205978"><ele>270.8</ele><time>2011-05-16T10:55:25Z</time></trkpt>
<trkpt lat="42.294555" lon="3.206200"><ele>271.4</ele><time>2011-05-16T10:55:30Z</time></trkpt>
<trkpt lat="42.294410" lon="3.206427"><ele>271.9</ele><time>2011-05-16T10:55:35Z</time></trkpt>
<trkpt lat="42.294258" lon="3.206662"><ele>272.7</ele><time>2011-05-16T10:55:40Z</time></trkpt>
<trkpt lat="42.294102" lon="3.206878"><ele>273.9</ele><time>2011-05-16T10:55:45Z</time></trkpt>
<trkpt lat="42.293942" lon="3.207092"><ele>274.4</ele><time>2011-05-16T10:55:50Z</time></trkpt>
<trkpt lat="42.293773" lon="3.207293"><ele>275</ele><time>2011-05-16T10:55:55Z</time></trkpt>
<trkpt lat="42.293587" lon="3.207440"><ele>275.5</ele><time>2011-05-16T10:56:00Z</time></trkpt>
<trkpt lat="42.293377" lon="3.207525"><ele>276.1</ele><time>2011-05-16T10:56:05Z</time></trkpt>
<trkpt lat="42.293155" lon="3.207518"><ele>277.1</ele><time>2011-05-16T10:56:10Z</time></trkpt>
<trkpt lat="42.292950" lon="3.207498"><ele>277.7</ele><time>2011-05-16T10:56:15Z</time></trkpt>
<trkpt lat="42.292725" lon="3.207515"><ele>278.3</ele><time>2011-05-16T10:56:20Z</time></trkpt>
<trkpt lat="42.292500" lon="3.207580"><ele>278.6</ele><time>2011-05-16T10:56:25Z</time></trkpt>
<trkpt lat="42.292282" lon="3.207645"><ele>279</ele><time>2011-05-16T10:56:30Z</time></trkpt>
<trkpt lat="42.292065" lon="3.207708"><ele>279.4</ele><time>2011-05-16T10:56:35Z</time></trkpt>
<trkpt lat="42.291862" lon="3.207788"><ele>280</ele><time>2011-05-16T10:56:40Z</time></trkpt>
<trkpt lat="42.291663" lon="3.207898"><ele>280.5</ele><time>2011-05-16T10:56:45Z</time></trkpt>
<trkpt lat="42.291473" lon="3.208020"><ele>281.6</ele><time>2011-05-16T10:56:50Z</time></trkpt>
<trkpt lat="42.291283" lon="3.208137"><ele>282</ele><time>2011-05-16T10:56:55Z</time></trkpt>
<trkpt lat="42.291062" lon="3.208163"><ele>282.4</ele><time>2011-05-16T10:57:00Z</time></trkpt>
<trkpt lat="42.290837" lon="3.208073"><ele>282.5</ele><time>2011-05-16T10:57:05Z</time></trkpt>
<trkpt lat="42.290615" lon="3.207938"><ele>282.7</ele><time>2011-05-16T10:57:10Z</time></trkpt>
<trkpt lat="42.290382" lon="3.207788"><ele>282.9</ele><time>2011-05-16T10:57:15Z</time></trkpt>
<trkpt lat="42.290138" lon="3.207683"><ele>283.3</ele><time>2011-05-16T10:57:20Z</time></trkpt>
<trkpt lat="42.289940" lon="3.207898"><ele>283.8</ele><time>2011-05-16T10:57:25Z</time></trkpt>
<trkpt lat="42.289867" lon="3.208270"><ele>284.8</ele><time>2011-05-16T10:57:30Z</time></trkpt>
<trkpt lat="42.289707" lon="3.208550"><ele>285.6</ele><time>2011-05-16T10:57:35Z</time></trkpt>
<trkpt lat="42.289532" lon="3.208833"><ele>285.9</ele><time>2011-05-16T10:57:40Z</time></trkpt>
<trkpt lat="42.289428" lon="3.209198"><ele>286.3</ele><time>2011-05-16T10:57:45Z</time></trkpt>
<trkpt lat="42.289333" lon="3.209582"><ele>286.8</ele><time>2011-05-16T10:57:50Z</time></trkpt>
<trkpt lat="42.289177" lon="3.209955"><ele>287.3</ele><time>2011-05-16T10:57:55Z</time></trkpt>
<trkpt lat="42.288922" lon="3.210248"><ele>287.8</ele><time>2011-05-16T10:58:00Z</time></trkpt>
<trkpt lat="42.288650" lon="3.210490"><ele>288.3</ele><time>2011-05-16T10:58:05Z</time></trkpt>
<trkpt lat="42.288365" lon="3.210757"><ele>288.2</ele><time>2011-05-16T10:58:10Z</time></trkpt>
<trkpt lat="42.288280" lon="3.211193"><ele>287.8</ele><time>2011-05-16T10:58:15Z</time></trkpt>
<trkpt lat="42.288440" lon="3.211640"><ele>288.4</ele><time>2011-05-16T10:58:20Z</time></trkpt>
<trkpt lat="42.288593" lon="3.212087"><ele>288.7</ele><time>2011-05-16T10:58:25Z</time></trkpt>
<trkpt lat="42.288585" lon="3.212555"><ele>288.6</ele><time>2011-05-16T10:58:30Z</time></trkpt>
<trkpt lat="42.288638" lon="3.212972"><ele>288</ele><time>2011-05-16T10:58:35Z</time></trkpt>
<trkpt lat="42.288697" lon="3.213307"><ele>288.3</ele><time>2011-05-16T10:58:40Z</time></trkpt>
<trkpt lat="42.288750" lon="3.213590"><ele>289.3</ele><time>2011-05-16T10:58:45Z</time></trkpt>
<trkpt lat="42.288788" lon="3.213842"><ele>290</ele><time>2011-05-16T10:58:50Z</time></trkpt>
<trkpt lat="42.288815" lon="3.214067"><ele>290.6</ele><time>2011-05-16T10:58:55Z</time></trkpt>
<trkpt lat="42.288827" lon="3.214277"><ele>291.4</ele><time>2011-05-16T10:59:00Z</time></trkpt>
<trkpt lat="42.288845" lon="3.214488"><ele>292</ele><time>2011-05-16T10:59:05Z</time></trkpt>
<trkpt lat="42.288827" lon="3.214672"><ele>293.1</ele><time>2011-05-16T10:59:10Z</time></trkpt>
<trkpt lat="42.288780" lon="3.214813"><ele>294.3</ele><time>2011-05-16T10:59:15Z</time></trkpt>
<trkpt lat="42.288712" lon="3.214927"><ele>295.3</ele><time>2011-05-16T10:59:20Z</time></trkpt>
<trkpt lat="42.288643" lon="3.215008"><ele>296.2</ele><time>2011-05-16T10:59:25Z</time></trkpt>
<trkpt lat="42.288570" lon="3.215085"><ele>297</ele><time>2011-05-16T10:59:30Z</time></trkpt>
<trkpt lat="42.288498" lon="3.215167"><ele>297.9</ele><time>2011-05-16T10:59:35Z</time></trkpt>
<trkpt lat="42.288422" lon="3.215258"><ele>298.9</ele><time>2011-05-16T10:59:40Z</time></trkpt>
<trkpt lat="42.288353" lon="3.215357"><ele>299.8</ele><time>2011-05-16T10:59:45Z</time></trkpt>
<trkpt lat="42.288285" lon="3.215462"><ele>300.7</ele><time>2011-05-16T10:59:50Z</time></trkpt>
<trkpt lat="42.288220" lon="3.215567"><ele>301.8</ele><time>2011-05-16T10:59:55Z</time></trkpt>
<trkpt lat="42.288155" lon="3.215670"><ele>303</ele><time>2011-05-16T11:00:00Z</time></trkpt>
<trkpt lat="42.288090" lon="3.215772"><ele>304.1</ele><time>2011-05-16T11:00:05Z</time></trkpt>
<trkpt lat="42.288022" lon="3.215873"><ele>305.1</ele><time>2011-05-16T11:00:10Z</time></trkpt>
<trkpt lat="42.287952" lon="3.215970"><ele>306.3</ele><time>2011-05-16T11:00:15Z</time></trkpt>
<trkpt lat="42.287880" lon="3.216065"><ele>307.4</ele><time>2011-05-16T11:00:20Z</time></trkpt>
<trkpt lat="42.287807" lon="3.216163"><ele>308.5</ele><time>2011-05-16T11:00:25Z</time></trkpt>
<trkpt lat="42.287762" lon="3.216280"><ele>309.7</ele><time>2011-05-16T11:00:30Z</time></trkpt>
<trkpt lat="42.287723" lon="3.216415"><ele>310.6</ele><time>2011-05-16T11:00:35Z</time></trkpt>
<trkpt lat="42.287693" lon="3.216552"><ele>311.6</ele><time>2011-05-16T11:00:40Z</time></trkpt>
<trkpt lat="42.287673" lon="3.216687"><ele>312.7</ele><time>2011-05-16T11:00:45Z</time></trkpt>
<trkpt lat="42.287705" lon="3.216832"><ele>313.8</ele><time>2011-05-16T11:00:50Z</time></trkpt>
<trkpt lat="42.287773" lon="3.216958"><ele>314.6</ele><time>2011-05-16T11:00:55Z</time></trkpt>
<trkpt lat="42.287857" lon="3.217075"><ele>315.4</ele><time>2011-05-16T11:01:00Z</time></trkpt>
<trkpt lat="42.287948" lon="3.217183"><ele>316.4</ele><time>2011-05-16T11:01:05Z</time></trkpt>
<trkpt lat="42.288055" lon="3.217268"><ele>317</ele><time>2011-05-16T11:01:10Z</time></trkpt>
<trkpt lat="42.288167" lon="3.217342"><ele>317.3</ele><time>2011-05-16T11:01:15Z</time></trkpt>
<trkpt lat="42.288277" lon="3.217420"><ele>317.6</ele><time>2011-05-16T11:01:20Z</time></trkpt>
<trkpt lat="42.288392" lon="3.217497"><ele>317.9</ele><time>2011-05-16T11:01:25Z</time></trkpt>
<trkpt lat="42.288502" lon="3.217577"><ele>318.2</ele><time>2011-05-16T11:01:30Z</time></trkpt>
<trkpt lat="42.288623" lon="3.217657"><ele>318.5</ele><time>2011-05-16T11:01:35Z</time></trkpt>
<trkpt lat="42.288750" lon="3.217733"><ele>318.8</ele><time>2011-05-16T11:01:40Z</time></trkpt>
<trkpt lat="42.288872" lon="3.217808"><ele>319.2</ele><time>2011-05-16T11:01:45Z</time></trkpt>
<trkpt lat="42.288990" lon="3.217877"><ele>319.9</ele><time>2011-05-16T11:01:50Z</time></trkpt>
<trkpt lat="42.289105" lon="3.217952"><ele>320.9</ele><time>2011-05-16T11:01:55Z</time></trkpt>
<trkpt lat="42.289158" lon="3.218092"><ele>322</ele><time>2011-05-16T11:02:00Z</time></trkpt>
<trkpt lat="42.289112" lon="3.218245"><ele>323.2</ele><time>2011-05-16T11:02:05Z</time></trkpt>
<trkpt lat="42.289032" lon="3.218367"><ele>324.5</ele><time>2011-05-16T11:02:10Z</time></trkpt>
<trkpt lat="42.288918" lon="3.218440"><ele>325.5</ele><time>2011-05-16T11:02:15Z</time></trkpt>
<trkpt lat="42.288792" lon="3.218438"><ele>326.3</ele><time>2011-05-16T11:02:20Z</time></trkpt>
<trkpt lat="42.288673" lon="3.218388"><ele>326.9</ele><time>2011-05-16T11:02:25Z</time></trkpt>
<trkpt lat="42.288555" lon="3.218330"><ele>327.4</ele><time>2011-05-16T11:02:30Z</time></trkpt>
<trkpt lat="42.288433" lon="3.218272"><ele>327.8</ele><time>2011-05-16T11:02:35Z</time></trkpt>
<trkpt lat="42.288322" lon="3.218217"><ele>328.4</ele><time>2011-05-16T11:02:40Z</time></trkpt>
<trkpt lat="42.288200" lon="3.218165"><ele>329</ele><time>2011-05-16T11:02:45Z</time></trkpt>
<trkpt lat="42.288070" lon="3.218108"><ele>329.6</ele><time>2011-05-16T11:02:50Z</time></trkpt>
<trkpt lat="42.287930" lon="3.218067"><ele>330.2</ele><time>2011-05-16T11:02:55Z</time></trkpt>
<trkpt lat="42.287785" lon="3.218028"><ele>331</ele><time>2011-05-16T11:03:00Z</time></trkpt>
<trkpt lat="42.287640" lon="3.217993"><ele>331.6</ele><time>2011-05-16T11:03:05Z</time></trkpt>
<trkpt lat="42.287480" lon="3.217953"><ele>332</ele><time>2011-05-16T11:03:10Z</time></trkpt>
<trkpt lat="42.287315" lon="3.217908"><ele>332.5</ele><time>2011-05-16T11:03:15Z</time></trkpt>
<trkpt lat="42.287143" lon="3.217868"><ele>333</ele><time>2011-05-16T11:03:20Z</time></trkpt>
<trkpt lat="42.286977" lon="3.217858"><ele>333.5</ele><time>2011-05-16T11:03:25Z</time></trkpt>
<trkpt lat="42.286793" lon="3.217858"><ele>333.8</ele><time>2011-05-16T11:03:30Z</time></trkpt>
<trkpt lat="42.286598" lon="3.217857"><ele>334.2</ele><time>2011-05-16T11:03:35Z</time></trkpt>
<trkpt lat="42.286400" lon="3.217852"><ele>334.7</ele><time>2011-05-16T11:03:40Z</time></trkpt>
<trkpt lat="42.286205" lon="3.217852"><ele>335.2</ele><time>2011-05-16T11:03:45Z</time></trkpt>
<trkpt lat="42.286007" lon="3.217855"><ele>336.1</ele><time>2011-05-16T11:03:50Z</time></trkpt>
<trkpt lat="42.285847" lon="3.217953"><ele>337.9</ele><time>2011-05-16T11:03:55Z</time></trkpt>
<trkpt lat="42.285748" lon="3.218112"><ele>339.9</ele><time>2011-05-16T11:04:00Z</time></trkpt>
<trkpt lat="42.285660" lon="3.218267"><ele>341.6</ele><time>2011-05-16T11:04:05Z</time></trkpt>
<trkpt lat="42.285557" lon="3.218407"><ele>342.9</ele><time>2011-05-16T11:04:10Z</time></trkpt>
<trkpt lat="42.285447" lon="3.218505"><ele>344</ele><time>2011-05-16T11:04:15Z</time></trkpt>
<trkpt lat="42.285323" lon="3.218590"><ele>344.5</ele><time>2011-05-16T11:04:20Z</time></trkpt>
<trkpt lat="42.285198" lon="3.218665"><ele>345.1</ele><time>2011-05-16T11:04:25Z</time></trkpt>
<trkpt lat="42.285072" lon="3.218743"><ele>345.6</ele><time>2011-05-16T11:04:30Z</time></trkpt>
<trkpt lat="42.284938" lon="3.218827"><ele>346</ele><time>2011-05-16T11:04:35Z</time></trkpt>
<trkpt lat="42.284798" lon="3.218907"><ele>346.1</ele><time>2011-05-16T11:04:40Z</time></trkpt>
<trkpt lat="42.284630" lon="3.218972"><ele>346.3</ele><time>2011-05-16T11:04:45Z</time></trkpt>
<trkpt lat="42.284432" lon="3.219035"><ele>346.4</ele><time>2011-05-16T11:04:50Z</time></trkpt>
<trkpt lat="42.284222" lon="3.219093"><ele>346.5</ele><time>2011-05-16T11:04:55Z</time></trkpt>
<trkpt lat="42.283982" lon="3.219165"><ele>345.8</ele><time>2011-05-16T11:05:00Z</time></trkpt>
<trkpt lat="42.283695" lon="3.219263"><ele>345.1</ele><time>2011-05-16T11:05:05Z</time></trkpt>
<trkpt lat="42.283402" lon="3.219452"><ele>344.1</ele><time>2011-05-16T11:05:10Z</time></trkpt>
<trkpt lat="42.283108" lon="3.219695"><ele>343.2</ele><time>2011-05-16T11:05:15Z</time></trkpt>
<trkpt lat="42.282833" lon="3.219918"><ele>343.3</ele><time>2011-05-16T11:05:20Z</time></trkpt>
<trkpt lat="42.282615" lon="3.220103"><ele>344.2</ele><time>2011-05-16T11:05:25Z</time></trkpt>
<trkpt lat="42.282407" lon="3.220243"><ele>345.4</ele><time>2011-05-16T11:05:30Z</time></trkpt>
<trkpt lat="42.282173" lon="3.220350"><ele>345.7</ele><time>2011-05-16T11:05:35Z</time></trkpt>
<trkpt lat="42.281978" lon="3.220575"><ele>346</ele><time>2011-05-16T11:05:40Z</time></trkpt>
<trkpt lat="42.281848" lon="3.220867"><ele>346.7</ele><time>2011-05-16T11:05:45Z</time></trkpt>
<trkpt lat="42.281723" lon="3.221160"><ele>348.1</ele><time>2011-05-16T11:05:50Z</time></trkpt>
<trkpt lat="42.281602" lon="3.221448"><ele>349.8</ele><time>2011-05-16T11:05:55Z</time></trkpt>
<trkpt lat="42.281483" lon="3.221735"><ele>351.6</ele><time>2011-05-16T11:06:00Z</time></trkpt>
<trkpt lat="42.281360" lon="3.221995"><ele>353.1</ele><time>2011-05-16T11:06:05Z</time></trkpt>
<trkpt lat="42.281232" lon="3.222212"><ele>354.1</ele><time>2011-05-16T11:06:10Z</time></trkpt>
<trkpt lat="42.281108" lon="3.222402"><ele>354.9</ele><time>2011-05-16T11:06:15Z</time></trkpt>
<trkpt lat="42.280990" lon="3.222595"><ele>355.5</ele><time>2011-05-16T11:06:20Z</time></trkpt>
<trkpt lat="42.280857" lon="3.222792"><ele>356.2</ele><time>2011-05-16T11:06:25Z</time></trkpt>
<trkpt lat="42.280712" lon="3.222983"><ele>356.8</ele><time>2011-05-16T11:06:30Z</time></trkpt>
<trkpt lat="42.280563" lon="3.223177"><ele>356.9</ele><time>2011-05-16T11:06:35Z</time></trkpt>
<trkpt lat="42.280415" lon="3.223355"><ele>357.2</ele><time>2011-05-16T11:06:40Z</time></trkpt>
<trkpt lat="42.280262" lon="3.223537"><ele>357.6</ele><time>2011-05-16T11:06:45Z</time></trkpt>
<trkpt lat="42.280113" lon="3.223723"><ele>358.3</ele><time>2011-05-16T11:06:50Z</time></trkpt>
<trkpt lat="42.279977" lon="3.223902"><ele>359.1</ele><time>2011-05-16T11:06:55Z</time></trkpt>
<trkpt lat="42.279827" lon="3.224068"><ele>360</ele><time>2011-05-16T11:07:00Z</time></trkpt>
<trkpt lat="42.279687" lon="3.224240"><ele>361.3</ele><time>2011-05-16T11:07:05Z</time></trkpt>
<trkpt lat="42.279552" lon="3.224413"><ele>362.5</ele><time>2011-05-16T11:07:10Z</time></trkpt>
<trkpt lat="42.279450" lon="3.224603"><ele>363.9</ele><time>2011-05-16T11:07:15Z</time></trkpt>
<trkpt lat="42.279392" lon="3.224817"><ele>365.5</ele><time>2011-05-16T11:07:20Z</time></trkpt>
<trkpt lat="42.279358" lon="3.225038"><ele>367.1</ele><time>2011-05-16T11:07:25Z</time></trkpt>
<trkpt lat="42.279278" lon="3.225235"><ele>368.5</ele><time>2011-05-16T11:07:30Z</time></trkpt>
<trkpt lat="42.279187" lon="3.225378"><ele>369.3</ele><time>2011-05-16T11:07:35Z</time></trkpt>
<trkpt lat="42.279098" lon="3.225520"><ele>370.2</ele><time>2011-05-16T11:07:40Z</time></trkpt>
<trkpt lat="42.279015" lon="3.225662"><ele>371</ele><time>2011-05-16T11:07:45Z</time></trkpt>
<trkpt lat="42.278930" lon="3.225802"><ele>371.7</ele><time>2011-05-16T11:07:50Z</time></trkpt>
<trkpt lat="42.278838" lon="3.225947"><ele>372.5</ele><time>2011-05-16T11:07:55Z</time></trkpt>
<trkpt lat="42.278748" lon="3.226090"><ele>373.3</ele><time>2011-05-16T11:08:00Z</time></trkpt>
<trkpt lat="42.278660" lon="3.226235"><ele>374</ele><time>2011-05-16T11:08:05Z</time></trkpt>
<trkpt lat="42.278568" lon="3.226377"><ele>374.7</ele><time>2011-05-16T11:08:10Z</time></trkpt>
<trkpt lat="42.278473" lon="3.226523"><ele>375.3</ele><time>2011-05-16T11:08:15Z</time></trkpt>
<trkpt lat="42.278382" lon="3.226670"><ele>376.1</ele><time>2011-05-16T11:08:20Z</time></trkpt>
<trkpt lat="42.278282" lon="3.226817"><ele>376.9</ele><time>2011-05-16T11:08:25Z</time></trkpt>
<trkpt lat="42.278187" lon="3.226962"><ele>377.6</ele><time>2011-05-16T11:08:30Z</time></trkpt>
<trkpt lat="42.278088" lon="3.227105"><ele>378.7</ele><time>2011-05-16T11:08:35Z</time></trkpt>
<trkpt lat="42.277985" lon="3.227220"><ele>379.7</ele><time>2011-05-16T11:08:40Z</time></trkpt>
<trkpt lat="42.277890" lon="3.227313"><ele>380.5</ele><time>2011-05-16T11:08:45Z</time></trkpt>
<trkpt lat="42.277802" lon="3.227397"><ele>381.3</ele><time>2011-05-16T11:08:50Z</time></trkpt>
<trkpt lat="42.277728" lon="3.227475"><ele>382.1</ele><time>2011-05-16T11:08:55Z</time></trkpt>
<trkpt lat="42.277660" lon="3.227558"><ele>382.9</ele><time>2011-05-16T11:09:00Z</time></trkpt>
<trkpt lat="42.277580" lon="3.227642"><ele>384.2</ele><time>2011-05-16T11:09:05Z</time></trkpt>
<trkpt lat="42.277500" lon="3.227722"><ele>385.4</ele><time>2011-05-16T11:09:10Z</time></trkpt>
<trkpt lat="42.277423" lon="3.227820"><ele>386.6</ele><time>2011-05-16T11:09:15Z</time></trkpt>
<trkpt lat="42.277343" lon="3.227912"><ele>387.8</ele><time>2011-05-16T11:09:20Z</time></trkpt>
<trkpt lat="42.277272" lon="3.228017"><ele>389</ele><time>2011-05-16T11:09:25Z</time></trkpt>
<trkpt lat="42.277207" lon="3.228130"><ele>390.3</ele><time>2011-05-16T11:09:30Z</time></trkpt>
<trkpt lat="42.277142" lon="3.228245"><ele>391.7</ele><time>2011-05-16T11:09:35Z</time></trkpt>
<trkpt lat="42.277092" lon="3.228370"><ele>393.1</ele><time>2011-05-16T11:09:40Z</time></trkpt>
<trkpt lat="42.277042" lon="3.228502"><ele>394.3</ele><time>2011-05-16T11:09:45Z</time></trkpt>
<trkpt lat="42.276993" lon="3.228643"><ele>395.1</ele><time>2011-05-16T11:09:50Z</time></trkpt>
<trkpt lat="42.276917" lon="3.228767"><ele>394.9</ele><time>2011-05-16T11:09:55Z</time></trkpt>
<trkpt lat="42.276807" lon="3.228820"><ele>395.1</ele><time>2011-05-16T11:10:00Z</time></trkpt>
<trkpt lat="42.276688" lon="3.228822"><ele>395.7</ele><time>2011-05-16T11:10:05Z</time></trkpt>
<trkpt lat="42.276580" lon="3.228808"><ele>396.3</ele><time>2011-05-16T11:10:10Z</time></trkpt>
<trkpt lat="42.276467" lon="3.228825"><ele>397.1</ele><time>2011-05-16T11:10:15Z</time></trkpt>
<trkpt lat="42.276355" lon="3.228817"><ele>397.9</ele><time>2011-05-16T11:10:20Z</time></trkpt>
<trkpt lat="42.276237" lon="3.228810"><ele>398.4</ele><time>2011-05-16T11:10:25Z</time></trkpt>
<trkpt lat="42.276123" lon="3.228800"><ele>398.9</ele><time>2011-05-16T11:10:30Z</time></trkpt>
<trkpt lat="42.276002" lon="3.228782"><ele>399.4</ele><time>2011-05-16T11:10:35Z</time></trkpt>
<trkpt lat="42.275872" lon="3.228748"><ele>399.5</ele><time>2011-05-16T11:10:40Z</time></trkpt>
<trkpt lat="42.275745" lon="3.228703"><ele>399.7</ele><time>2011-05-16T11:10:45Z</time></trkpt>
<trkpt lat="42.275615" lon="3.228648"><ele>400.2</ele><time>2011-05-16T11:10:50Z</time></trkpt>
<trkpt lat="42.275497" lon="3.228575"><ele>400.6</ele><time>2011-05-16T11:10:55Z</time></trkpt>
<trkpt lat="42.275395" lon="3.228467"><ele>401</ele><time>2011-05-16T11:11:00Z</time></trkpt>
<trkpt lat="42.275303" lon="3.228360"><ele>401.5</ele><time>2011-05-16T11:11:05Z</time></trkpt>
<trkpt lat="42.275212" lon="3.228258"><ele>402.4</ele><time>2011-05-16T11:11:10Z</time></trkpt>
<trkpt lat="42.275143" lon="3.228162"><ele>403.4</ele><time>2011-05-16T11:11:15Z</time></trkpt>
<trkpt lat="42.275073" lon="3.228068"><ele>404.5</ele><time>2011-05-16T11:11:20Z</time></trkpt>
<trkpt lat="42.275005" lon="3.227973"><ele>405.6</ele><time>2011-05-16T11:11:25Z</time></trkpt>
<trkpt lat="42.274933" lon="3.227877"><ele>406.7</ele><time>2011-05-16T11:11:30Z</time></trkpt>
<trkpt lat="42.274868" lon="3.227773"><ele>407.4</ele><time>2011-05-16T11:11:35Z</time></trkpt>
<trkpt lat="42.274807" lon="3.227675"><ele>408.2</ele><time>2011-05-16T11:11:40Z</time></trkpt>
<trkpt lat="42.274742" lon="3.227575"><ele>409</ele><time>2011-05-16T11:11:45Z</time></trkpt>
<trkpt lat="42.274682" lon="3.227465"><ele>409.7</ele><time>2011-05-16T11:11:50Z</time></trkpt>
<trkpt lat="42.274623" lon="3.227353"><ele>410.3</ele><time>2011-05-16T11:11:55Z</time></trkpt>
<trkpt lat="42.274555" lon="3.227273"><ele>411.3</ele><time>2011-05-16T11:12:00Z</time></trkpt>
<trkpt lat="42.274502" lon="3.227352"><ele>412.9</ele><time>2011-05-16T11:12:05Z</time></trkpt>
<trkpt lat="42.274522" lon="3.227472"><ele>414.7</ele><time>2011-05-16T11:12:10Z</time></trkpt>
<trkpt lat="42.274537" lon="3.227577"><ele>416.8</ele><time>2011-05-16T11:12:15Z</time></trkpt>
<trkpt lat="42.274543" lon="3.227653"><ele>418.9</ele><time>2011-05-16T11:12:20Z</time></trkpt>
<trkpt lat="42.274540" lon="3.227770"><ele>420.3</ele><time>2011-05-16T11:12:25Z</time></trkpt>
<trkpt lat="42.274537" lon="3.227893"><ele>421.8</ele><time>2011-05-16T11:12:30Z</time></trkpt>
<trkpt lat="42.274525" lon="3.228022"><ele>423.1</ele><time>2011-05-16T11:12:35Z</time></trkpt>
<trkpt lat="42.274517" lon="3.228153"><ele>424.2</ele><time>2011-05-16T11:12:40Z</time></trkpt>
<trkpt lat="42.274498" lon="3.228297"><ele>425.3</ele><time>2011-05-16T11:12:45Z</time></trkpt>
<trkpt lat="42.274472" lon="3.228453"><ele>426.3</ele><time>2011-05-16T11:12:50Z</time></trkpt>
<trkpt lat="42.274440" lon="3.228615"><ele>427.3</ele><time>2011-05-16T11:12:55Z</time></trkpt>
<trkpt lat="42.274403" lon="3.228785"><ele>428.3</ele><time>2011-05-16T11:13:00Z</time></trkpt>
<trkpt lat="42.274368" lon="3.228973"><ele>428.4</ele><time>2011-05-16T11:13:05Z</time></trkpt>
<trkpt lat="42.274327" lon="3.229195"><ele>427.7</ele><time>2011-05-16T11:13:10Z</time></trkpt>
<trkpt lat="42.274205" lon="3.229453"><ele>425.3</ele><time>2011-05-16T11:13:15Z</time></trkpt>
<trkpt lat="42.274007" lon="3.229723"><ele>421.1</ele><time>2011-05-16T11:13:20Z</time></trkpt>
<trkpt lat="42.273815" lon="3.229862"><ele>417.3</ele><time>2011-05-16T11:13:25Z</time></trkpt>
<trkpt lat="42.273620" lon="3.229897"><ele>413.1</ele><time>2011-05-16T11:13:30Z</time></trkpt>
<trkpt lat="42.273388" lon="3.229937"><ele>407</ele><time>2011-05-16T11:13:35Z</time></trkpt>
<trkpt lat="42.273098" lon="3.229987"><ele>399.4</ele><time>2011-05-16T11:13:40Z</time></trkpt>
<trkpt lat="42.272767" lon="3.229993"><ele>392</ele><time>2011-05-16T11:13:45Z</time></trkpt>
<trkpt lat="42.272498" lon="3.230018"><ele>387</ele><time>2011-05-16T11:13:50Z</time></trkpt>
<trkpt lat="42.272270" lon="3.230015"><ele>382.6</ele><time>2011-05-16T11:13:55Z</time></trkpt>
<trkpt lat="42.272045" lon="3.229950"><ele>376.9</ele><time>2011-05-16T11:14:00Z</time></trkpt>
<trkpt lat="42.271950" lon="3.229810"><ele>374.7</ele><time>2011-05-16T11:14:05Z</time></trkpt>
<trkpt lat="42.271947" lon="3.229802"><ele>374.4</ele><time>2011-05-16T11:14:10Z</time></trkpt>
<trkpt lat="42.271950" lon="3.229767"><ele>374.6</ele><time>2011-05-16T11:14:15Z</time></trkpt>
<trkpt lat="42.271957" lon="3.229760"><ele>374.8</ele><time>2011-05-16T11:14:20Z</time></trkpt>
<trkpt lat="42.271962" lon="3.229763"><ele>375.9</ele><time>2011-05-16T11:14:25Z</time></trkpt>
<trkpt lat="42.271957" lon="3.229783"><ele>377.1</ele><time>2011-05-16T11:14:30Z</time></trkpt>
<trkpt lat="42.271962" lon="3.229800"><ele>378.5</ele><time>2011-05-16T11:14:35Z</time></trkpt>
<trkpt lat="42.271957" lon="3.229808"><ele>379.8</ele><time>2011-05-16T11:14:40Z</time></trkpt>
<trkpt lat="42.271957" lon="3.229820"><ele>381.5</ele><time>2011-05-16T11:14:45Z</time></trkpt>
<trkpt lat="42.271957" lon="3.229828"><ele>382.6</ele><time>2011-05-16T11:14:50Z</time></trkpt>
<trkpt lat="42.271957" lon="3.229833"><ele>383.2</ele><time>2011-05-16T11:14:55Z</time></trkpt>
<trkpt lat="42.271950" lon="3.229860"><ele>384.6</ele><time>2011-05-16T11:15:00Z</time></trkpt>
<trkpt lat="42.271950" lon="3.229875"><ele>385.1</ele><time>2011-05-16T11:15:05Z</time></trkpt>
<trkpt lat="42.271957" lon="3.229870"><ele>384.9</ele><time>2011-05-16T11:15:10Z</time></trkpt>
<trkpt lat="42.271957" lon="3.229870"><ele>384.6</ele><time>2011-05-16T11:15:15Z</time></trkpt>
<trkpt lat="42.271962" lon="3.229863"><ele>384.3</ele><time>2011-05-16T11:15:20Z</time></trkpt>
<trkpt lat="42.271942" lon="3.229888"><ele>384.6</ele><time>2011-05-16T11:15:25Z</time></trkpt>
<trkpt lat="42.271942" lon="3.229867"><ele>382.5</ele><time>2011-05-16T11:15:30Z</time></trkpt>
<trkpt lat="42.271938" lon="3.229872"><ele>382.8</ele><time>2011-05-16T11:15:35Z</time></trkpt>
<trkpt lat="42.271915" lon="3.229870"><ele>381.8</ele><time>2011-05-16T11:15:40Z</time></trkpt>
<trkpt lat="42.271823" lon="3.229753"><ele>378.3</ele><time>2011-05-16T11:15:45Z</time></trkpt>
<trkpt lat="42.271725" lon="3.229625"><ele>376.2</ele><time>2011-05-16T11:15:50Z</time></trkpt>
<trkpt lat="42.271633" lon="3.229532"><ele>375.1</ele><time>2011-05-16T11:15:55Z</time></trkpt>
<trkpt lat="42.271518" lon="3.229450"><ele>375.1</ele><time>2011-05-16T11:16:00Z</time></trkpt>
<trkpt lat="42.271405" lon="3.229387"><ele>375.3</ele><time>2011-05-16T11:16:05Z</time></trkpt>
<trkpt lat="42.271263" lon="3.229347"><ele>376</ele><time>2011-05-16T11:16:10Z</time></trkpt>
<trkpt lat="42.271088" lon="3.229413"><ele>374.8</ele><time>2011-05-16T11:16:15Z</time></trkpt>
<trkpt lat="42.270793" lon="3.229542"><ele>371.5</ele><time>2011-05-16T11:16:20Z</time></trkpt>
<trkpt lat="42.270458" lon="3.229568"><ele>370.8</ele><time>2011-05-16T11:16:25Z</time></trkpt>
<trkpt lat="42.270172" lon="3.229600"><ele>371</ele><time>2011-05-16T11:16:30Z</time></trkpt>
<trkpt lat="42.269967" lon="3.229632"><ele>370.7</ele><time>2011-05-16T11:16:35Z</time></trkpt>
<trkpt lat="42.269742" lon="3.229708"><ele>367.5</ele><time>2011-05-16T11:16:40Z</time></trkpt>
<trkpt lat="42.269482" lon="3.229853"><ele>362.7</ele><time>2011-05-16T11:16:45Z</time></trkpt>
<trkpt lat="42.269188" lon="3.229992"><ele>357.2</ele><time>2011-05-16T11:16:50Z</time></trkpt>
<trkpt lat="42.268910" lon="3.230088"><ele>353.3</ele><time>2011-05-16T11:16:55Z</time></trkpt>
<trkpt lat="42.268615" lon="3.230187"><ele>350</ele><time>2011-05-16T11:17:00Z</time></trkpt>
<trkpt lat="42.268235" lon="3.230400"><ele>345.8</ele><time>2011-05-16T11:17:05Z</time></trkpt>
<trkpt lat="42.267887" lon="3.230585"><ele>343</ele><time>2011-05-16T11:17:10Z</time></trkpt>
<trkpt lat="42.267495" lon="3.230703"><ele>337.4</ele><time>2011-05-16T11:17:15Z</time></trkpt>
<trkpt lat="42.267055" lon="3.230737"><ele>333.7</ele><time>2011-05-16T11:17:20Z</time></trkpt>
<trkpt lat="42.266700" lon="3.230855"><ele>330.7</ele><time>2011-05-16T11:17:25Z</time></trkpt>
<trkpt lat="42.266365" lon="3.230978"><ele>326.8</ele><time>2011-05-16T11:17:30Z</time></trkpt>
<trkpt lat="42.266048" lon="3.231090"><ele>321.8</ele><time>2011-05-16T11:17:35Z</time></trkpt>
<trkpt lat="42.265732" lon="3.230918"><ele>315.9</ele><time>2011-05-16T11:17:40Z</time></trkpt>
<trkpt lat="42.265377" lon="3.230530"><ele>311.3</ele><time>2011-05-16T11:17:45Z</time></trkpt>
<trkpt lat="42.265003" lon="3.230253"><ele>308.6</ele><time>2011-05-16T11:17:50Z</time></trkpt>
<trkpt lat="42.264785" lon="3.230155"><ele>306.2</ele><time>2011-05-16T11:17:55Z</time></trkpt>
<trkpt lat="42.264652" lon="3.230088"><ele>305.6</ele><time>2011-05-16T11:18:00Z</time></trkpt>
<trkpt lat="42.264648" lon="3.230092"><ele>305.9</ele><time>2011-05-16T11:18:05Z</time></trkpt>
<trkpt lat="42.264683" lon="3.230112"><ele>306.5</ele><time>2011-05-16T11:18:10Z</time></trkpt>
<trkpt lat="42.264797" lon="3.230155"><ele>307.4</ele><time>2011-05-16T11:18:15Z</time></trkpt>
<trkpt lat="42.264923" lon="3.230200"><ele>308.9</ele><time>2011-05-16T11:18:20Z</time></trkpt>
<trkpt lat="42.265033" lon="3.230253"><ele>310</ele><time>2011-05-16T11:18:25Z</time></trkpt>
<trkpt lat="42.265133" lon="3.230313"><ele>310.7</ele><time>2011-05-16T11:18:30Z</time></trkpt>
<trkpt lat="42.265202" lon="3.230370"><ele>311.2</ele><time>2011-05-16T11:18:35Z</time></trkpt>
<trkpt lat="42.265137" lon="3.230457"><ele>311.1</ele><time>2011-05-16T11:18:40Z</time></trkpt>
<trkpt lat="42.265060" lon="3.230618"><ele>310.7</ele><time>2011-05-16T11:18:45Z</time></trkpt>
<trkpt lat="42.265027" lon="3.230845"><ele>309.6</ele><time>2011-05-16T11:18:50Z</time></trkpt>
<trkpt lat="42.265068" lon="3.231123"><ele>308</ele><time>2011-05-16T11:18:55Z</time></trkpt>
<trkpt lat="42.265178" lon="3.231383"><ele>306.4</ele><time>2011-05-16T11:19:00Z</time></trkpt>
<trkpt lat="42.265243" lon="3.231492"><ele>305.6</ele><time>2011-05-16T11:19:05Z</time></trkpt>
<trkpt lat="42.265243" lon="3.231492"><ele>305.6</ele><time>2011-05-16T11:19:10Z</time></trkpt>
<trkpt lat="42.265255" lon="3.231507"><ele>305.4</ele><time>2011-05-16T11:19:15Z</time></trkpt>
<trkpt lat="42.265278" lon="3.231510"><ele>305.3</ele><time>2011-05-16T11:19:20Z</time></trkpt>
<trkpt lat="42.265285" lon="3.231528"><ele>305.3</ele><time>2011-05-16T11:19:25Z</time></trkpt>
<trkpt lat="42.265338" lon="3.231563"><ele>304.6</ele><time>2011-05-16T11:19:30Z</time></trkpt>
<trkpt lat="42.265453" lon="3.231665"><ele>303.5</ele><time>2011-05-16T11:19:35Z</time></trkpt>
<trkpt lat="42.265613" lon="3.231760"><ele>301.9</ele><time>2011-05-16T11:19:40Z</time></trkpt>
<trkpt lat="42.265800" lon="3.231863"><ele>299.9</ele><time>2011-05-16T11:19:45Z</time></trkpt>
<trkpt lat="42.266010" lon="3.231987"><ele>298</ele><time>2011-05-16T11:19:50Z</time></trkpt>
<trkpt lat="42.266193" lon="3.232078"><ele>296.8</ele><time>2011-05-16T11:19:55Z</time></trkpt>
<trkpt lat="42.266380" lon="3.232237"><ele>294.4</ele><time>2011-05-16T11:20:00Z</time></trkpt>
<trkpt lat="42.266563" lon="3.232472"><ele>291.5</ele><time>2011-05-16T11:20:05Z</time></trkpt>
<trkpt lat="42.266743" lon="3.232682"><ele>289</ele><time>2011-05-16T11:20:10Z</time></trkpt>
<trkpt lat="42.266930" lon="3.232848"><ele>286.2</ele><time>2011-05-16T11:20:15Z</time></trkpt>
<trkpt lat="42.267152" lon="3.232950"><ele>283.7</ele><time>2011-05-16T11:20:20Z</time></trkpt>
<trkpt lat="42.267387" lon="3.232968"><ele>281.1</ele><time>2011-05-16T11:20:25Z</time></trkpt>
<trkpt lat="42.267608" lon="3.232888"><ele>278.8</ele><time>2011-05-16T11:20:30Z</time></trkpt>
<trkpt lat="42.267818" lon="3.232782"><ele>277</ele><time>2011-05-16T11:20:35Z</time></trkpt>
<trkpt lat="42.268002" lon="3.232838"><ele>274.9</ele><time>2011-05-16T11:20:40Z</time></trkpt>
<trkpt lat="42.268177" lon="3.233000"><ele>272</ele><time>2011-05-16T11:20:45Z</time></trkpt>
<trkpt lat="42.268330" lon="3.233190"><ele>269.3</ele><time>2011-05-16T11:20:50Z</time></trkpt>
<trkpt lat="42.268493" lon="3.233370"><ele>267.2</ele><time>2011-05-16T11:20:55Z</time></trkpt>
<trkpt lat="42.268632" lon="3.233540"><ele>265.8</ele><time>2011-05-16T11:21:00Z</time></trkpt>
<trkpt lat="42.268792" lon="3.233785"><ele>263.4</ele><time>2011-05-16T11:21:05Z</time></trkpt>
<trkpt lat="42.269005" lon="3.234020"><ele>261</ele><time>2011-05-16T11:21:10Z</time></trkpt>
<trkpt lat="42.269147" lon="3.234125"><ele>259.7</ele><time>2011-05-16T11:21:15Z</time></trkpt>
<trkpt lat="42.269352" lon="3.234187"><ele>257.1</ele><time>2011-05-16T11:21:20Z</time></trkpt>
<trkpt lat="42.269573" lon="3.234270"><ele>255.3</ele><time>2011-05-16T11:21:25Z</time></trkpt>
<trkpt lat="42.269807" lon="3.234375"><ele>253.9</ele><time>2011-05-16T11:21:30Z</time></trkpt>
<trkpt lat="42.270005" lon="3.234480"><ele>253.1</ele><time>2011-05-16T11:21:35Z</time></trkpt>
<trkpt lat="42.270138" lon="3.234522"><ele>253.5</ele><time>2011-05-16T11:21:40Z</time></trkpt>
<trkpt lat="42.270275" lon="3.234520"><ele>253.1</ele><time>2011-05-16T11:21:45Z</time></trkpt>
<trkpt lat="42.270412" lon="3.234485"><ele>252.4</ele><time>2011-05-16T11:21:50Z</time></trkpt>
<trkpt lat="42.270542" lon="3.234388"><ele>252</ele><time>2011-05-16T11:21:55Z</time></trkpt>
<trkpt lat="42.270668" lon="3.234257"><ele>251.7</ele><time>2011-05-16T11:22:00Z</time></trkpt>
<trkpt lat="42.270793" lon="3.234090"><ele>251.4</ele><time>2011-05-16T11:22:05Z</time></trkpt>
<trkpt lat="42.270927" lon="3.233890"><ele>250.4</ele><time>2011-05-16T11:22:10Z</time></trkpt>
<trkpt lat="42.271042" lon="3.233643"><ele>249.4</ele><time>2011-05-16T11:22:15Z</time></trkpt>
<trkpt lat="42.271122" lon="3.233417"><ele>249.6</ele><time>2011-05-16T11:22:20Z</time></trkpt>
<trkpt lat="42.271233" lon="3.233255"><ele>250.2</ele><time>2011-05-16T11:22:25Z</time></trkpt>
<trkpt lat="42.271382" lon="3.233262"><ele>251.3</ele><time>2011-05-16T11:22:30Z</time></trkpt>
<trkpt lat="42.271542" lon="3.233297"><ele>252.1</ele><time>2011-05-16T11:22:35Z</time></trkpt>
<trkpt lat="42.271702" lon="3.233392"><ele>252</ele><time>2011-05-16T11:22:40Z</time></trkpt>
<trkpt lat="42.271877" lon="3.233507"><ele>251.2</ele><time>2011-05-16T11:22:45Z</time></trkpt>
<trkpt lat="42.272007" lon="3.233685"><ele>250.7</ele><time>2011-05-16T11:22:50Z</time></trkpt>
<trkpt lat="42.272175" lon="3.233855"><ele>249.6</ele><time>2011-05-16T11:22:55Z</time></trkpt>
<trkpt lat="42.272317" lon="3.234043"><ele>249.4</ele><time>2011-05-16T11:23:00Z</time></trkpt>
<trkpt lat="42.272392" lon="3.234257"><ele>249.4</ele><time>2011-05-16T11:23:05Z</time></trkpt>
<trkpt lat="42.272533" lon="3.234372"><ele>249.8</ele><time>2011-05-16T11:23:10Z</time></trkpt>
<trkpt lat="42.272652" lon="3.234420"><ele>250.6</ele><time>2011-05-16T11:23:15Z</time></trkpt>
<trkpt lat="42.272740" lon="3.234432"><ele>251.8</ele><time>2011-05-16T11:23:20Z</time></trkpt>
<trkpt lat="42.272815" lon="3.234403"><ele>253.3</ele><time>2011-05-16T11:23:25Z</time></trkpt>
<trkpt lat="42.272892" lon="3.234400"><ele>254.4</ele><time>2011-05-16T11:23:30Z</time></trkpt>
<trkpt lat="42.272957" lon="3.234458"><ele>255.5</ele><time>2011-05-16T11:23:35Z</time></trkpt>
<trkpt lat="42.273010" lon="3.234540"><ele>256.5</ele><time>2011-05-16T11:23:40Z</time></trkpt>
<trkpt lat="42.273067" lon="3.234623"><ele>257</ele><time>2011-05-16T11:23:45Z</time></trkpt>
<trkpt lat="42.273132" lon="3.234708"><ele>257.3</ele><time>2011-05-16T11:23:50Z</time></trkpt>
<trkpt lat="42.273205" lon="3.234825"><ele>256.9</ele><time>2011-05-16T11:23:55Z</time></trkpt>
<trkpt lat="42.273288" lon="3.234950"><ele>256.7</ele><time>2011-05-16T11:24:00Z</time></trkpt>
<trkpt lat="42.273362" lon="3.235030"><ele>256.8</ele><time>2011-05-16T11:24:05Z</time></trkpt>
<trkpt lat="42.273395" lon="3.235187"><ele>256.7</ele><time>2011-05-16T11:24:10Z</time></trkpt>
<trkpt lat="42.273362" lon="3.235362"><ele>257.5</ele><time>2011-05-16T11:24:15Z</time></trkpt>
<trkpt lat="42.273315" lon="3.235532"><ele>258.6</ele><time>2011-05-16T11:24:20Z</time></trkpt>
<trkpt lat="42.273262" lon="3.235712"><ele>259.8</ele><time>2011-05-16T11:24:25Z</time></trkpt>
<trkpt lat="42.273220" lon="3.235915"><ele>260.7</ele><time>2011-05-16T11:24:30Z</time></trkpt>
<trkpt lat="42.273182" lon="3.236130"><ele>261.3</ele><time>2011-05-16T11:24:35Z</time></trkpt>
<trkpt lat="42.273167" lon="3.236348"><ele>261.7</ele><time>2011-05-16T11:24:40Z</time></trkpt>
<trkpt lat="42.273262" lon="3.236532"><ele>262.4</ele><time>2011-05-16T11:24:45Z</time></trkpt>
<trkpt lat="42.273400" lon="3.236638"><ele>262.7</ele><time>2011-05-16T11:24:50Z</time></trkpt>
<trkpt lat="42.273555" lon="3.236667"><ele>262.7</ele><time>2011-05-16T11:24:55Z</time></trkpt>
<trkpt lat="42.273717" lon="3.236638"><ele>262.7</ele><time>2011-05-16T11:25:00Z</time></trkpt>
<trkpt lat="42.273880" lon="3.236612"><ele>263.1</ele><time>2011-05-16T11:25:05Z</time></trkpt>
<trkpt lat="42.274040" lon="3.236602"><ele>263.8</ele><time>2011-05-16T11:25:10Z</time></trkpt>
<trkpt lat="42.274200" lon="3.236600"><ele>264.7</ele><time>2011-05-16T11:25:15Z</time></trkpt>
<trkpt lat="42.274357" lon="3.236602"><ele>265.4</ele><time>2011-05-16T11:25:20Z</time></trkpt>
<trkpt lat="42.274510" lon="3.236613"><ele>265.7</ele><time>2011-05-16T11:25:25Z</time></trkpt>
<trkpt lat="42.274628" lon="3.236702"><ele>266.2</ele><time>2011-05-16T11:25:30Z</time></trkpt>
<trkpt lat="42.274697" lon="3.236853"><ele>266.7</ele><time>2011-05-16T11:25:35Z</time></trkpt>
<trkpt lat="42.274762" lon="3.237015"><ele>267.4</ele><time>2011-05-16T11:25:40Z</time></trkpt>
<trkpt lat="42.274822" lon="3.237185"><ele>268</ele><time>2011-05-16T11:25:45Z</time></trkpt>
<trkpt lat="42.274857" lon="3.237372"><ele>268.9</ele><time>2011-05-16T11:25:50Z</time></trkpt>
<trkpt lat="42.274887" lon="3.237550"><ele>270.3</ele><time>2011-05-16T11:25:55Z</time></trkpt>
<trkpt lat="42.274922" lon="3.237737"><ele>270.9</ele><time>2011-05-16T11:26:00Z</time></trkpt>
<trkpt lat="42.274960" lon="3.237930"><ele>271.3</ele><time>2011-05-16T11:26:05Z</time></trkpt>
<trkpt lat="42.274972" lon="3.238073"><ele>271.3</ele><time>2011-05-16T11:26:10Z</time></trkpt>
<trkpt lat="42.274967" lon="3.238100"><ele>271.4</ele><time>2011-05-16T11:26:15Z</time></trkpt>
<trkpt lat="42.274963" lon="3.238092"><ele>271.8</ele><time>2011-05-16T11:26:20Z</time></trkpt>
<trkpt lat="42.274963" lon="3.238093"><ele>271.7</ele><time>2011-05-16T11:26:25Z</time></trkpt>
<trkpt lat="42.274960" lon="3.238100"><ele>271.8</ele><time>2011-05-16T11:26:30Z</time></trkpt>
<trkpt lat="42.274955" lon="3.238123"><ele>271.7</ele><time>2011-05-16T11:26:35Z</time></trkpt>
<trkpt lat="42.274937" lon="3.238157"><ele>271.6</ele><time>2011-05-16T11:26:40Z</time></trkpt>
<trkpt lat="42.274928" lon="3.238183"><ele>271.2</ele><time>2011-05-16T11:26:45Z</time></trkpt>
<trkpt lat="42.274892" lon="3.238285"><ele>270.9</ele><time>2011-05-16T11:26:50Z</time></trkpt>
<trkpt lat="42.274827" lon="3.238440"><ele>270.8</ele><time>2011-05-16T11:26:55Z</time></trkpt>
<trkpt lat="42.274747" lon="3.238615"><ele>270.3</ele><time>2011-05-16T11:27:00Z</time></trkpt>
<trkpt lat="42.274643" lon="3.238803"><ele>269.5</ele><time>2011-05-16T11:27:05Z</time></trkpt>
<trkpt lat="42.274537" lon="3.238982"><ele>268.9</ele><time>2011-05-16T11:27:10Z</time></trkpt>
<trkpt lat="42.274437" lon="3.239148"><ele>269</ele><time>2011-05-16T11:27:15Z</time></trkpt>
<trkpt lat="42.274353" lon="3.239307"><ele>269.7</ele><time>2011-05-16T11:27:20Z</time></trkpt>
<trkpt lat="42.274265" lon="3.239472"><ele>270.3</ele><time>2011-05-16T11:27:25Z</time></trkpt>
<trkpt lat="42.274173" lon="3.239652"><ele>270.5</ele><time>2011-05-16T11:27:30Z</time></trkpt>
<trkpt lat="42.274075" lon="3.239830"><ele>270.5</ele><time>2011-05-16T11:27:35Z</time></trkpt>
<trkpt lat="42.273975" lon="3.240000"><ele>270.8</ele><time>2011-05-16T11:27:40Z</time></trkpt>
<trkpt lat="42.273888" lon="3.240183"><ele>271.2</ele><time>2011-05-16T11:27:45Z</time></trkpt>
<trkpt lat="42.273812" lon="3.240355"><ele>271.9</ele><time>2011-05-16T11:27:50Z</time></trkpt>
<trkpt lat="42.273732" lon="3.240527"><ele>272.7</ele><time>2011-05-16T11:27:55Z</time></trkpt>
<trkpt lat="42.273643" lon="3.240700"><ele>273.4</ele><time>2011-05-16T11:28:00Z</time></trkpt>
<trkpt lat="42.273545" lon="3.240843"><ele>274.4</ele><time>2011-05-16T11:28:05Z</time></trkpt>
<trkpt lat="42.273442" lon="3.240978"><ele>275.4</ele><time>2011-05-16T11:28:10Z</time></trkpt>
<trkpt lat="42.273327" lon="3.241107"><ele>276.4</ele><time>2011-05-16T11:28:15Z</time></trkpt>
<trkpt lat="42.273208" lon="3.241232"><ele>277.2</ele><time>2011-05-16T11:28:20Z</time></trkpt>
<trkpt lat="42.273102" lon="3.241363"><ele>277.9</ele><time>2011-05-16T11:28:25Z</time></trkpt>
<trkpt lat="42.272987" lon="3.241488"><ele>278.7</ele><time>2011-05-16T11:28:30Z</time></trkpt>
<trkpt lat="42.272877" lon="3.241623"><ele>279.2</ele><time>2011-05-16T11:28:35Z</time></trkpt>
<trkpt lat="42.272767" lon="3.241753"><ele>279.9</ele><time>2011-05-16T11:28:40Z</time></trkpt>
<trkpt lat="42.272643" lon="3.241877"><ele>280.7</ele><time>2011-05-16T11:28:45Z</time></trkpt>
<trkpt lat="42.272525" lon="3.242013"><ele>281.1</ele><time>2011-05-16T11:28:50Z</time></trkpt>
<trkpt lat="42.272403" lon="3.242143"><ele>281.2</ele><time>2011-05-16T11:28:55Z</time></trkpt>
<trkpt lat="42.272273" lon="3.242268"><ele>281.7</ele><time>2011-05-16T11:29:00Z</time></trkpt>
<trkpt lat="42.272155" lon="3.242392"><ele>281.9</ele><time>2011-05-16T11:29:05Z</time></trkpt>
<trkpt lat="42.272075" lon="3.242473"><ele>281.7</ele><time>2011-05-16T11:29:10Z</time></trkpt>
<trkpt lat="42.272000" lon="3.242605"><ele>281.8</ele><time>2011-05-16T11:29:15Z</time></trkpt>
<trkpt lat="42.271927" lon="3.242740"><ele>282</ele><time>2011-05-16T11:29:20Z</time></trkpt>
<trkpt lat="42.271882" lon="3.242880"><ele>282.6</ele><time>2011-05-16T11:29:25Z</time></trkpt>
<trkpt lat="42.271950" lon="3.242983"><ele>283.1</ele><time>2011-05-16T11:29:30Z</time></trkpt>
<trkpt lat="42.272018" lon="3.243067"><ele>283.4</ele><time>2011-05-16T11:29:35Z</time></trkpt>
<trkpt lat="42.272075" lon="3.243130"><ele>283.8</ele><time>2011-05-16T11:29:40Z</time></trkpt>
<trkpt lat="42.272140" lon="3.243170"><ele>284.5</ele><time>2011-05-16T11:29:45Z</time></trkpt>
<trkpt lat="42.272213" lon="3.243185"><ele>285</ele><time>2011-05-16T11:29:50Z</time></trkpt>
<trkpt lat="42.272297" lon="3.243188"><ele>285.3</ele><time>2011-05-16T11:29:55Z</time></trkpt>
<trkpt lat="42.272385" lon="3.243192"><ele>286</ele><time>2011-05-16T11:30:00Z</time></trkpt>
<trkpt lat="42.272453" lon="3.243197"><ele>286.7</ele><time>2011-05-16T11:30:05Z</time></trkpt>
<trkpt lat="42.272522" lon="3.243210"><ele>287.1</ele><time>2011-05-16T11:30:10Z</time></trkpt>
<trkpt lat="42.272598" lon="3.243215"><ele>287.5</ele><time>2011-05-16T11:30:15Z</time></trkpt>
<trkpt lat="42.272667" lon="3.243203"><ele>288.4</ele><time>2011-05-16T11:30:20Z</time></trkpt>
<trkpt lat="42.272732" lon="3.243200"><ele>289.1</ele><time>2011-05-16T11:30:25Z</time></trkpt>
<trkpt lat="42.272812" lon="3.243182"><ele>289.6</ele><time>2011-05-16T11:30:30Z</time></trkpt>
<trkpt lat="42.272888" lon="3.243160"><ele>290.4</ele><time>2011-05-16T11:30:35Z</time></trkpt>
<trkpt lat="42.272957" lon="3.243120"><ele>291.2</ele><time>2011-05-16T11:30:40Z</time></trkpt>
<trkpt lat="42.273037" lon="3.243068"><ele>291.6</ele><time>2011-05-16T11:30:45Z</time></trkpt>
<trkpt lat="42.273113" lon="3.243048"><ele>292</ele><time>2011-05-16T11:30:50Z</time></trkpt>
<trkpt lat="42.273197" lon="3.243063"><ele>292.8</ele><time>2011-05-16T11:30:55Z</time></trkpt>
<trkpt lat="42.273270" lon="3.243007"><ele>293.7</ele><time>2011-05-16T11:31:00Z</time></trkpt>
<trkpt lat="42.273327" lon="3.242970"><ele>294.5</ele><time>2011-05-16T11:31:05Z</time></trkpt>
<trkpt lat="42.273392" lon="3.242912"><ele>295.2</ele><time>2011-05-16T11:31:10Z</time></trkpt>
<trkpt lat="42.273457" lon="3.242847"><ele>295.5</ele><time>2011-05-16T11:31:15Z</time></trkpt>
<trkpt lat="42.273533" lon="3.242787"><ele>296</ele><time>2011-05-16T11:31:20Z</time></trkpt>
<trkpt lat="42.273602" lon="3.242725"><ele>296.4</ele><time>2011-05-16T11:31:25Z</time></trkpt>
<trkpt lat="42.273670" lon="3.242665"><ele>297.2</ele><time>2011-05-16T11:31:30Z</time></trkpt>
<trkpt lat="42.273750" lon="3.242612"><ele>297.4</ele><time>2011-05-16T11:31:35Z</time></trkpt>
<trkpt lat="42.273812" lon="3.242558"><ele>297.6</ele><time>2011-05-16T11:31:40Z</time></trkpt>
<trkpt lat="42.273877" lon="3.242498"><ele>297.8</ele><time>2011-05-16T11:31:45Z</time></trkpt>
<trkpt lat="42.273903" lon="3.242475"><ele>298.5</ele><time>2011-05-16T11:31:50Z</time></trkpt>
<trkpt lat="42.273957" lon="3.242440"><ele>299</ele><time>2011-05-16T11:31:55Z</time></trkpt>
<trkpt lat="42.274017" lon="3.242387"><ele>299.3</ele><time>2011-05-16T11:32:00Z</time></trkpt>
<trkpt lat="42.274075" lon="3.242353"><ele>299.8</ele><time>2011-05-16T11:32:05Z</time></trkpt>
<trkpt lat="42.274082" lon="3.242352"><ele>300.1</ele><time>2011-05-16T11:32:10Z</time></trkpt>
<trkpt lat="42.274105" lon="3.242342"><ele>300.5</ele><time>2011-05-16T11:32:15Z</time></trkpt>
<trkpt lat="42.274167" lon="3.242312"><ele>301.4</ele><time>2011-05-16T11:32:20Z</time></trkpt>
<trkpt lat="42.274193" lon="3.242295"><ele>301.9</ele><time>2011-05-16T11:32:25Z</time></trkpt>
<trkpt lat="42.274197" lon="3.242295"><ele>301.9</ele><time>2011-05-16T11:32:30Z</time></trkpt>
<trkpt lat="42.274205" lon="3.242295"><ele>301.8</ele><time>2011-05-16T11:32:35Z</time></trkpt>
<trkpt lat="42.274227" lon="3.242297"><ele>301.8</ele><time>2011-05-16T11:32:40Z</time></trkpt>
<trkpt lat="42.274285" lon="3.242280"><ele>302.2</ele><time>2011-05-16T11:32:45Z</time></trkpt>
<trkpt lat="42.274338" lon="3.242252"><ele>302.7</ele><time>2011-05-16T11:32:50Z</time></trkpt>
<trkpt lat="42.274403" lon="3.242240"><ele>303.3</ele><time>2011-05-16T11:32:55Z</time></trkpt>
<trkpt lat="42.274472" lon="3.242237"><ele>303.6</ele><time>2011-05-16T11:33:00Z</time></trkpt>
<trkpt lat="42.274537" lon="3.242250"><ele>304.2</ele><time>2011-05-16T11:33:05Z</time></trkpt>
<trkpt lat="42.274543" lon="3.242252"><ele>304.3</ele><time>2011-05-16T11:33:10Z</time></trkpt>
<trkpt lat="42.274563" lon="3.242247"><ele>304.5</ele><time>2011-05-16T11:33:15Z</time></trkpt>
<trkpt lat="42.274558" lon="3.242243"><ele>304.5</ele><time>2011-05-16T11:33:20Z</time></trkpt>
<trkpt lat="42.274558" lon="3.242243"><ele>304.8</ele><time>2011-05-16T11:33:25Z</time></trkpt>
<trkpt lat="42.274597" lon="3.242247"><ele>305.1</ele><time>2011-05-16T11:33:30Z</time></trkpt>
<trkpt lat="42.274662" lon="3.242227"><ele>305.9</ele><time>2011-05-16T11:33:35Z</time></trkpt>
<trkpt lat="42.274730" lon="3.242208"><ele>306.6</ele><time>2011-05-16T11:33:40Z</time></trkpt>
<trkpt lat="42.274795" lon="3.242233"><ele>306.8</ele><time>2011-05-16T11:33:45Z</time></trkpt>
<trkpt lat="42.274860" lon="3.242283"><ele>306.8</ele><time>2011-05-16T11:33:50Z</time></trkpt>
<trkpt lat="42.274887" lon="3.242313"><ele>306.3</ele><time>2011-05-16T11:33:55Z</time></trkpt>
<trkpt lat="42.274898" lon="3.242332"><ele>306.1</ele><time>2011-05-16T11:34:00Z</time></trkpt>
<trkpt lat="42.274945" lon="3.242388"><ele>306</ele><time>2011-05-16T11:34:05Z</time></trkpt>
<trkpt lat="42.274967" lon="3.242473"><ele>306.8</ele><time>2011-05-16T11:34:10Z</time></trkpt>
<trkpt lat="42.274955" lon="3.242577"><ele>308.3</ele><time>2011-05-16T11:34:15Z</time></trkpt>
<trkpt lat="42.275002" lon="3.242667"><ele>309</ele><time>2011-05-16T11:34:20Z</time></trkpt>
<trkpt lat="42.275055" lon="3.242737"><ele>309.7</ele><time>2011-05-16T11:34:25Z</time></trkpt>
<trkpt lat="42.275093" lon="3.242793"><ele>309.9</ele><time>2011-05-16T11:34:30Z</time></trkpt>
<trkpt lat="42.275093" lon="3.242790"><ele>310.4</ele><time>2011-05-16T11:34:35Z</time></trkpt>
<trkpt lat="42.275108" lon="3.242805"><ele>311</ele><time>2011-05-16T11:34:40Z</time></trkpt>
<trkpt lat="42.275158" lon="3.242847"><ele>311.5</ele><time>2011-05-16T11:34:45Z</time></trkpt>
<trkpt lat="42.275230" lon="3.242858"><ele>311.7</ele><time>2011-05-16T11:34:50Z</time></trkpt>
<trkpt lat="42.275250" lon="3.242857"><ele>311.9</ele><time>2011-05-16T11:34:55Z</time></trkpt>
<trkpt lat="42.275265" lon="3.242865"><ele>312.3</ele><time>2011-05-16T11:35:00Z</time></trkpt>
<trkpt lat="42.275292" lon="3.242897"><ele>313.8</ele><time>2011-05-16T11:35:05Z</time></trkpt>
<trkpt lat="42.275283" lon="3.242918"><ele>315</ele><time>2011-05-16T11:35:10Z</time></trkpt>
<trkpt lat="42.275253" lon="3.242948"><ele>315.3</ele><time>2011-05-16T11:35:15Z</time></trkpt>
<trkpt lat="42.275212" lon="3.242975"><ele>315.5</ele><time>2011-05-16T11:35:20Z</time></trkpt>
<trkpt lat="42.275188" lon="3.242985"><ele>315.4</ele><time>2011-05-16T11:35:25Z</time></trkpt>
<trkpt lat="42.275117" lon="3.243000"><ele>315.5</ele><time>2011-05-16T11:35:30Z</time></trkpt>
<trkpt lat="42.275037" lon="3.243025"><ele>315.8</ele><time>2011-05-16T11:35:35Z</time></trkpt>
<trkpt lat="42.275008" lon="3.243048"><ele>316</ele><time>2011-05-16T11:35:40Z</time></trkpt>
<trkpt lat="42.274978" lon="3.243062"><ele>316.4</ele><time>2011-05-16T11:35:45Z</time></trkpt>
<trkpt lat="42.274948" lon="3.243060"><ele>317.1</ele><time>2011-05-16T11:35:50Z</time></trkpt>
<trkpt lat="42.274918" lon="3.243033"><ele>318</ele><time>2011-05-16T11:35:55Z</time></trkpt>
<trkpt lat="42.274880" lon="3.243020"><ele>318.9</ele><time>2011-05-16T11:36:00Z</time></trkpt>
<trkpt lat="42.274875" lon="3.243017"><ele>319.4</ele><time>2011-05-16T11:36:05Z</time></trkpt>
<trkpt lat="42.274830" lon="3.243038"><ele>319.8</ele><time>2011-05-16T11:36:10Z</time></trkpt>
<trkpt lat="42.274788" lon="3.243108"><ele>320.3</ele><time>2011-05-16T11:36:15Z</time></trkpt>
<trkpt lat="42.274730" lon="3.243220"><ele>320</ele><time>2011-05-16T11:36:20Z</time></trkpt>
<trkpt lat="42.274670" lon="3.243377"><ele>319.3</ele><time>2011-05-16T11:36:25Z</time></trkpt>
<trkpt lat="42.274655" lon="3.243548"><ele>318.6</ele><time>2011-05-16T11:36:30Z</time></trkpt>
<trkpt lat="42.274677" lon="3.243642"><ele>318.6</ele><time>2011-05-16T11:36:35Z</time></trkpt>
<trkpt lat="42.274727" lon="3.243748"><ele>318.5</ele><time>2011-05-16T11:36:40Z</time></trkpt>
<trkpt lat="42.274750" lon="3.243868"><ele>318.6</ele><time>2011-05-16T11:36:45Z</time></trkpt>
<trkpt lat="42.274730" lon="3.243982"><ele>318.9</ele><time>2011-05-16T11:36:50Z</time></trkpt>
<trkpt lat="42.274727" lon="3.244135"><ele>318.5</ele><time>2011-05-16T11:36:55Z</time></trkpt>
<trkpt lat="42.274730" lon="3.244275"><ele>318.6</ele><time>2011-05-16T11:37:00Z</time></trkpt>
<trkpt lat="42.274762" lon="3.244372"><ele>319.2</ele><time>2011-05-16T11:37:05Z</time></trkpt>
<trkpt lat="42.274777" lon="3.244407"><ele>319.6</ele><time>2011-05-16T11:37:10Z</time></trkpt>
<trkpt lat="42.274783" lon="3.244408"><ele>319.2</ele><time>2011-05-16T11:37:15Z</time></trkpt>
<trkpt lat="42.274788" lon="3.244412"><ele>319.6</ele><time>2011-05-16T11:37:20Z</time></trkpt>
<trkpt lat="42.274810" lon="3.244442"><ele>319.8</ele><time>2011-05-16T11:37:25Z</time></trkpt>
<trkpt lat="42.274830" lon="3.244485"><ele>320.3</ele><time>2011-05-16T11:37:30Z</time></trkpt>
<trkpt lat="42.274830" lon="3.244530"><ele>320.9</ele><time>2011-05-16T11:37:35Z</time></trkpt>
<trkpt lat="42.274827" lon="3.244550"><ele>321.6</ele><time>2011-05-16T11:37:40Z</time></trkpt>
<trkpt lat="42.274827" lon="3.244548"><ele>322</ele><time>2011-05-16T11:37:45Z</time></trkpt>
<trkpt lat="42.274830" lon="3.244570"><ele>322</ele><time>2011-05-16T11:37:50Z</time></trkpt>
<trkpt lat="42.274830" lon="3.244585"><ele>321.9</ele><time>2011-05-16T11:37:55Z</time></trkpt>
<trkpt lat="42.274833" lon="3.244617"><ele>321.9</ele><time>2011-05-16T11:38:00Z</time></trkpt>
<trkpt lat="42.274833" lon="3.244662"><ele>322.7</ele><time>2011-05-16T11:38:05Z</time></trkpt>
<trkpt lat="42.274830" lon="3.244697"><ele>322.7</ele><time>2011-05-16T11:38:10Z</time></trkpt>
<trkpt lat="42.274833" lon="3.244705"><ele>321.8</ele><time>2011-05-16T11:38:15Z</time></trkpt>
<trkpt lat="42.274833" lon="3.244708"><ele>320.9</ele><time>2011-05-16T11:38:20Z</time></trkpt>
<trkpt lat="42.274830" lon="3.244712"><ele>320.3</ele><time>2011-05-16T11:38:25Z</time></trkpt>
<trkpt lat="42.274833" lon="3.244712"><ele>320</ele><time>2011-05-16T11:38:30Z</time></trkpt>
<trkpt lat="42.274830" lon="3.244720"><ele>320.3</ele><time>2011-05-16T11:38:35Z</time></trkpt>
<trkpt lat="42.274827" lon="3.244752"><ele>321.2</ele><time>2011-05-16T11:38:40Z</time></trkpt>
<trkpt lat="42.274830" lon="3.244787"><ele>321.6</ele><time>2011-05-16T11:38:45Z</time></trkpt>
<trkpt lat="42.274822" lon="3.244813"><ele>321.5</ele><time>2011-05-16T11:38:50Z</time></trkpt>
<trkpt lat="42.274818" lon="3.244832"><ele>321</ele><time>2011-05-16T11:38:55Z</time></trkpt>
<trkpt lat="42.274788" lon="3.244865"><ele>320.6</ele><time>2011-05-16T11:39:00Z</time></trkpt>
<trkpt lat="42.274762" lon="3.244913"><ele>320.7</ele><time>2011-05-16T11:39:05Z</time></trkpt>
<trkpt lat="42.274715" lon="3.244947"><ele>320.2</ele><time>2011-05-16T11:39:10Z</time></trkpt>
<trkpt lat="42.274620" lon="3.245035"><ele>319.6</ele><time>2011-05-16T11:39:15Z</time></trkpt>
<trkpt lat="42.274563" lon="3.245123"><ele>319.8</ele><time>2011-05-16T11:39:20Z</time></trkpt>
<trkpt lat="42.274505" lon="3.245227"><ele>319.7</ele><time>2011-05-16T11:39:25Z</time></trkpt>
<trkpt lat="42.274472" lon="3.245348"><ele>319.4</ele><time>2011-05-16T11:39:30Z</time></trkpt>
<trkpt lat="42.274483" lon="3.245395"><ele>319.4</ele><time>2011-05-16T11:39:35Z</time></trkpt>
<trkpt lat="42.274483" lon="3.245437"><ele>320.2</ele><time>2011-05-16T11:39:40Z</time></trkpt>
<trkpt lat="42.274467" lon="3.245490"><ele>320.6</ele><time>2011-05-16T11:39:45Z</time></trkpt>
<trkpt lat="42.274440" lon="3.245527"><ele>320.6</ele><time>2011-05-16T11:39:50Z</time></trkpt>
<trkpt lat="42.274425" lon="3.245543"><ele>320.6</ele><time>2011-05-16T11:39:55Z</time></trkpt>
<trkpt lat="42.274383" lon="3.245575"><ele>321.1</ele><time>2011-05-16T11:40:00Z</time></trkpt>
<trkpt lat="42.274345" lon="3.245592"><ele>321.4</ele><time>2011-05-16T11:40:05Z</time></trkpt>
<trkpt lat="42.274273" lon="3.245673"><ele>321.5</ele><time>2011-05-16T11:40:10Z</time></trkpt>
<trkpt lat="42.274250" lon="3.245797"><ele>322.3</ele><time>2011-05-16T11:40:15Z</time></trkpt>
<trkpt lat="42.274292" lon="3.245877"><ele>323.4</ele><time>2011-05-16T11:40:20Z</time></trkpt>
<trkpt lat="42.274315" lon="3.245988"><ele>324.1</ele><time>2011-05-16T11:40:25Z</time></trkpt>
<trkpt lat="42.274323" lon="3.246097"><ele>325.3</ele><time>2011-05-16T11:40:30Z</time></trkpt>
<trkpt lat="42.274312" lon="3.246193"><ele>326.3</ele><time>2011-05-16T11:40:35Z</time></trkpt>
<trkpt lat="42.274323" lon="3.246305"><ele>327.1</ele><time>2011-05-16T11:40:40Z</time></trkpt>
<trkpt lat="42.274333" lon="3.246403"><ele>328</ele><time>2011-05-16T11:40:45Z</time></trkpt>
<trkpt lat="42.274338" lon="3.246520"><ele>328.7</ele><time>2011-05-16T11:40:50Z</time></trkpt>
<trkpt lat="42.274342" lon="3.246550"><ele>329.6</ele><time>2011-05-16T11:40:55Z</time></trkpt>
<trkpt lat="42.274338" lon="3.246573"><ele>330</ele><time>2011-05-16T11:41:00Z</time></trkpt>
<trkpt lat="42.274333" lon="3.246625"><ele>330.2</ele><time>2011-05-16T11:41:05Z</time></trkpt>
<trkpt lat="42.274315" lon="3.246718"><ele>330.4</ele><time>2011-05-16T11:41:10Z</time></trkpt>
<trkpt lat="42.274247" lon="3.246775"><ele>330.2</ele><time>2011-05-16T11:41:15Z</time></trkpt>
<trkpt lat="42.274205" lon="3.246883"><ele>329.9</ele><time>2011-05-16T11:41:20Z</time></trkpt>
<trkpt lat="42.274155" lon="3.247027"><ele>329.1</ele><time>2011-05-16T11:41:25Z</time></trkpt>
<trkpt lat="42.274117" lon="3.247163"><ele>328.2</ele><time>2011-05-16T11:41:30Z</time></trkpt>
<trkpt lat="42.274113" lon="3.247178"><ele>328.1</ele><time>2011-05-16T11:41:35Z</time></trkpt>
<trkpt lat="42.274113" lon="3.247182"><ele>328.2</ele><time>2011-05-16T11:41:40Z</time></trkpt>
<trkpt lat="42.274082" lon="3.247227"><ele>328.9</ele><time>2011-05-16T11:41:45Z</time></trkpt>
<trkpt lat="42.274043" lon="3.247267"><ele>329.6</ele><time>2011-05-16T11:41:50Z</time></trkpt>
<trkpt lat="42.273987" lon="3.247312"><ele>330</ele><time>2011-05-16T11:41:55Z</time></trkpt>
<trkpt lat="42.273880" lon="3.247350"><ele>329.8</ele><time>2011-05-16T11:42:00Z</time></trkpt>
<trkpt lat="42.273788" lon="3.247327"><ele>330.4</ele><time>2011-05-16T11:42:05Z</time></trkpt>
<trkpt lat="42.273712" lon="3.247338"><ele>329.9</ele><time>2011-05-16T11:42:10Z</time></trkpt>
<trkpt lat="42.273625" lon="3.247392"><ele>329.7</ele><time>2011-05-16T11:42:15Z</time></trkpt>
<trkpt lat="42.273537" lon="3.247465"><ele>329.4</ele><time>2011-05-16T11:42:20Z</time></trkpt>
<trkpt lat="42.273460" lon="3.247557"><ele>329.3</ele><time>2011-05-16T11:42:25Z</time></trkpt>
<trkpt lat="42.273407" lon="3.247673"><ele>329.4</ele><time>2011-05-16T11:42:30Z</time></trkpt>
<trkpt lat="42.273365" lon="3.247812"><ele>329</ele><time>2011-05-16T11:42:35Z</time></trkpt>
<trkpt lat="42.273335" lon="3.247922"><ele>328.9</ele><time>2011-05-16T11:42:40Z</time></trkpt>
<trkpt lat="42.273300" lon="3.248065"><ele>328.8</ele><time>2011-05-16T11:42:45Z</time></trkpt>
<trkpt lat="42.273270" lon="3.248197"><ele>328.5</ele><time>2011-05-16T11:42:50Z</time></trkpt>
<trkpt lat="42.273243" lon="3.248325"><ele>328.4</ele><time>2011-05-16T11:42:55Z</time></trkpt>
<trkpt lat="42.273205" lon="3.248455"><ele>328.5</ele><time>2011-05-16T11:43:00Z</time></trkpt>
<trkpt lat="42.273175" lon="3.248565"><ele>329.4</ele><time>2011-05-16T11:43:05Z</time></trkpt>
<trkpt lat="42.273143" lon="3.248675"><ele>329.6</ele><time>2011-05-16T11:43:10Z</time></trkpt>
<trkpt lat="42.273117" lon="3.248808"><ele>329.6</ele><time>2011-05-16T11:43:15Z</time></trkpt>
<trkpt lat="42.273095" lon="3.248932"><ele>330.8</ele><time>2011-05-16T11:43:20Z</time></trkpt>
<trkpt lat="42.273063" lon="3.249055"><ele>331.3</ele><time>2011-05-16T11:43:25Z</time></trkpt>
<trkpt lat="42.273045" lon="3.249155"><ele>331.5</ele><time>2011-05-16T11:43:30Z</time></trkpt>
<trkpt lat="42.273045" lon="3.249277"><ele>332.2</ele><time>2011-05-16T11:43:35Z</time></trkpt>
<trkpt lat="42.273040" lon="3.249422"><ele>332.7</ele><time>2011-05-16T11:43:40Z</time></trkpt>
<trkpt lat="42.273030" lon="3.249543"><ele>333.8</ele><time>2011-05-16T11:43:45Z</time></trkpt>
<trkpt lat="42.273003" lon="3.249650"><ele>334.1</ele><time>2011-05-16T11:43:50Z</time></trkpt>
<trkpt lat="42.272977" lon="3.249727"><ele>334.7</ele><time>2011-05-16T11:43:55Z</time></trkpt>
<trkpt lat="42.272950" lon="3.249785"><ele>334.7</ele><time>2011-05-16T11:44:00Z</time></trkpt>
<trkpt lat="42.272950" lon="3.249782"><ele>334.9</ele><time>2011-05-16T11:44:05Z</time></trkpt>
<trkpt lat="42.272942" lon="3.249792"><ele>334.6</ele><time>2011-05-16T11:44:10Z</time></trkpt>
<trkpt lat="42.272938" lon="3.249807"><ele>334.2</ele><time>2011-05-16T11:44:15Z</time></trkpt>
<trkpt lat="42.272923" lon="3.249837"><ele>334.3</ele><time>2011-05-16T11:44:20Z</time></trkpt>
<trkpt lat="42.272915" lon="3.249855"><ele>333.9</ele><time>2011-05-16T11:44:25Z</time></trkpt>
<trkpt lat="42.272892" lon="3.249900"><ele>333.9</ele><time>2011-05-16T11:44:30Z</time></trkpt>
<trkpt lat="42.272838" lon="3.250003"><ele>334.2</ele><time>2011-05-16T11:44:35Z</time></trkpt>
<trkpt lat="42.272755" lon="3.250087"><ele>334.4</ele><time>2011-05-16T11:44:40Z</time></trkpt>
<trkpt lat="42.272660" lon="3.250158"><ele>334.2</ele><time>2011-05-16T11:44:45Z</time></trkpt>
<trkpt lat="42.272575" lon="3.250252"><ele>334.4</ele><time>2011-05-16T11:44:50Z</time></trkpt>
<trkpt lat="42.272492" lon="3.250342"><ele>334.7</ele><time>2011-05-16T11:44:55Z</time></trkpt>
<trkpt lat="42.272380" lon="3.250423"><ele>334.9</ele><time>2011-05-16T11:45:00Z</time></trkpt>
<trkpt lat="42.272255" lon="3.250493"><ele>335.1</ele><time>2011-05-16T11:45:05Z</time></trkpt>
<trkpt lat="42.272113" lon="3.250585"><ele>335.2</ele><time>2011-05-16T11:45:10Z</time></trkpt>
<trkpt lat="42.271980" lon="3.250687"><ele>335.1</ele><time>2011-05-16T11:45:15Z</time></trkpt>
<trkpt lat="42.271847" lon="3.250805"><ele>334.8</ele><time>2011-05-16T11:45:20Z</time></trkpt>
<trkpt lat="42.271737" lon="3.250933"><ele>334.8</ele><time>2011-05-16T11:45:25Z</time></trkpt>
<trkpt lat="42.271613" lon="3.251097"><ele>333.6</ele><time>2011-05-16T11:45:30Z</time></trkpt>
<trkpt lat="42.271507" lon="3.251238"><ele>332.4</ele><time>2011-05-16T11:45:35Z</time></trkpt>
<trkpt lat="42.271362" lon="3.251432"><ele>330.4</ele><time>2011-05-16T11:45:40Z</time></trkpt>
<trkpt lat="42.271255" lon="3.251640"><ele>329.1</ele><time>2011-05-16T11:45:45Z</time></trkpt>
<trkpt lat="42.271157" lon="3.251865"><ele>328.5</ele><time>2011-05-16T11:45:50Z</time></trkpt>
<trkpt lat="42.271065" lon="3.252062"><ele>327.9</ele><time>2011-05-16T11:45:55Z</time></trkpt>
<trkpt lat="42.270970" lon="3.252237"><ele>327.5</ele><time>2011-05-16T11:46:00Z</time></trkpt>
<trkpt lat="42.270890" lon="3.252405"><ele>327.7</ele><time>2011-05-16T11:46:05Z</time></trkpt>
<trkpt lat="42.270820" lon="3.252578"><ele>328.7</ele><time>2011-05-16T11:46:10Z</time></trkpt>
<trkpt lat="42.270755" lon="3.252767"><ele>329.5</ele><time>2011-05-16T11:46:15Z</time></trkpt>
<trkpt lat="42.270698" lon="3.252958"><ele>330.4</ele><time>2011-05-16T11:46:20Z</time></trkpt>
<trkpt lat="42.270668" lon="3.253100"><ele>330.4</ele><time>2011-05-16T11:46:25Z</time></trkpt>
<trkpt lat="42.270665" lon="3.253252"><ele>329.9</ele><time>2011-05-16T11:46:30Z</time></trkpt>
<trkpt lat="42.270683" lon="3.253390"><ele>330</ele><time>2011-05-16T11:46:35Z</time></trkpt>
<trkpt lat="42.270687" lon="3.253490"><ele>330</ele><time>2011-05-16T11:46:40Z</time></trkpt>
<trkpt lat="42.270657" lon="3.253660"><ele>328.4</ele><time>2011-05-16T11:46:45Z</time></trkpt>
<trkpt lat="42.270580" lon="3.253923"><ele>327</ele><time>2011-05-16T11:46:50Z</time></trkpt>
<trkpt lat="42.270547" lon="3.254080"><ele>326.7</ele><time>2011-05-16T11:46:55Z</time></trkpt>
<trkpt lat="42.270520" lon="3.254208"><ele>326.4</ele><time>2011-05-16T11:47:00Z</time></trkpt>
<trkpt lat="42.270512" lon="3.254337"><ele>325.8</ele><time>2011-05-16T11:47:05Z</time></trkpt>
<trkpt lat="42.270493" lon="3.254523"><ele>324.2</ele><time>2011-05-16T11:47:10Z</time></trkpt>
<trkpt lat="42.270423" lon="3.254708"><ele>323.5</ele><time>2011-05-16T11:47:15Z</time></trkpt>
<trkpt lat="42.270290" lon="3.254783"><ele>322.9</ele><time>2011-05-16T11:47:20Z</time></trkpt>
<trkpt lat="42.270157" lon="3.254865"><ele>322.9</ele><time>2011-05-16T11:47:25Z</time></trkpt>
<trkpt lat="42.270035" lon="3.254988"><ele>322.5</ele><time>2011-05-16T11:47:30Z</time></trkpt>
<trkpt lat="42.269962" lon="3.255167"><ele>321.6</ele><time>2011-05-16T11:47:35Z</time></trkpt>
<trkpt lat="42.269902" lon="3.255318"><ele>320.2</ele><time>2011-05-16T11:47:40Z</time></trkpt>
<trkpt lat="42.269848" lon="3.255485"><ele>318.7</ele><time>2011-05-16T11:47:45Z</time></trkpt>
<trkpt lat="42.269748" lon="3.255660"><ele>318</ele><time>2011-05-16T11:47:50Z</time></trkpt>
<trkpt lat="42.269668" lon="3.255840"><ele>317.3</ele><time>2011-05-16T11:47:55Z</time></trkpt>
<trkpt lat="42.269585" lon="3.256055"><ele>316.2</ele><time>2011-05-16T11:48:00Z</time></trkpt>
<trkpt lat="42.269485" lon="3.256227"><ele>316.2</ele><time>2011-05-16T11:48:05Z</time></trkpt>
<trkpt lat="42.269382" lon="3.256348"><ele>314.9</ele><time>2011-05-16T11:48:10Z</time></trkpt>
<trkpt lat="42.269298" lon="3.256498"><ele>314</ele><time>2011-05-16T11:48:15Z</time></trkpt>
<trkpt lat="42.269210" lon="3.256658"><ele>313.3</ele><time>2011-05-16T11:48:20Z</time></trkpt>
<trkpt lat="42.269108" lon="3.256812"><ele>312.5</ele><time>2011-05-16T11:48:25Z</time></trkpt>
<trkpt lat="42.269012" lon="3.256918"><ele>313.3</ele><time>2011-05-16T11:48:30Z</time></trkpt>
<trkpt lat="42.268925" lon="3.257002"><ele>312.9</ele><time>2011-05-16T11:48:35Z</time></trkpt>
<trkpt lat="42.268898" lon="3.257033"><ele>312.3</ele><time>2011-05-16T11:48:40Z</time></trkpt>
<trkpt lat="42.268833" lon="3.257152"><ele>310.9</ele><time>2011-05-16T11:48:45Z</time></trkpt>
<trkpt lat="42.268727" lon="3.257303"><ele>309.1</ele><time>2011-05-16T11:48:50Z</time></trkpt>
<trkpt lat="42.268723" lon="3.257437"><ele>310</ele><time>2011-05-16T11:48:55Z</time></trkpt>
<trkpt lat="42.268772" lon="3.257515"><ele>310.1</ele><time>2011-05-16T11:49:00Z</time></trkpt>
<trkpt lat="42.268810" lon="3.257653"><ele>308.9</ele><time>2011-05-16T11:49:05Z</time></trkpt>
<trkpt lat="42.268813" lon="3.257688"><ele>308.4</ele><time>2011-05-16T11:49:10Z</time></trkpt>
<trkpt lat="42.268813" lon="3.257688"><ele>308.3</ele><time>2011-05-16T11:49:15Z</time></trkpt>
<trkpt lat="42.268818" lon="3.257688"><ele>308.3</ele><time>2011-05-16T11:49:20Z</time></trkpt>
<trkpt lat="42.268818" lon="3.257688"><ele>308.3</ele><time>2011-05-16T11:49:25Z</time></trkpt>
<trkpt lat="42.268818" lon="3.257687"><ele>308.1</ele><time>2011-05-16T11:49:30Z</time></trkpt>
<trkpt lat="42.268818" lon="3.257687"><ele>308.1</ele><time>2011-05-16T11:49:35Z</time></trkpt>
<trkpt lat="42.268822" lon="3.257687"><ele>308.1</ele><time>2011-05-16T11:49:40Z</time></trkpt>
<trkpt lat="42.268840" lon="3.257728"><ele>307.5</ele><time>2011-05-16T11:49:45Z</time></trkpt>
<trkpt lat="42.268872" lon="3.257790"><ele>305.9</ele><time>2011-05-16T11:49:50Z</time></trkpt>
<trkpt lat="42.268928" lon="3.257863"><ele>303.4</ele><time>2011-05-16T11:49:55Z</time></trkpt>
<trkpt lat="42.268958" lon="3.257940"><ele>301.6</ele><time>2011-05-16T11:50:00Z</time></trkpt>
<trkpt lat="42.269020" lon="3.258005"><ele>299.7</ele><time>2011-05-16T11:50:05Z</time></trkpt>
<trkpt lat="42.269073" lon="3.258033"><ele>298.5</ele><time>2011-05-16T11:50:10Z</time></trkpt>
<trkpt lat="42.269073" lon="3.258030"><ele>298.2</ele><time>2011-05-16T11:50:15Z</time></trkpt>
<trkpt lat="42.269073" lon="3.258067"><ele>297.7</ele><time>2011-05-16T11:50:20Z</time></trkpt>
<trkpt lat="42.269088" lon="3.258182"><ele>295.6</ele><time>2011-05-16T11:50:25Z</time></trkpt>
<trkpt lat="42.269153" lon="3.258283"><ele>293.4</ele><time>2011-05-16T11:50:30Z</time></trkpt>
<trkpt lat="42.269260" lon="3.258357"><ele>290.7</ele><time>2011-05-16T11:50:35Z</time></trkpt>
<trkpt lat="42.269355" lon="3.258435"><ele>288.8</ele><time>2011-05-16T11:50:40Z</time></trkpt>
<trkpt lat="42.269410" lon="3.258502"><ele>287.3</ele><time>2011-05-16T11:50:45Z</time></trkpt>
<trkpt lat="42.269417" lon="3.258593"><ele>285.3</ele><time>2011-05-16T11:50:50Z</time></trkpt>
<trkpt lat="42.269440" lon="3.258615"><ele>284</ele><time>2011-05-16T11:50:55Z</time></trkpt>
<trkpt lat="42.269493" lon="3.258695"><ele>281.9</ele><time>2011-05-16T11:51:00Z</time></trkpt>
<trkpt lat="42.269558" lon="3.258815"><ele>278.9</ele><time>2011-05-16T11:51:05Z</time></trkpt>
<trkpt lat="42.269615" lon="3.259017"><ele>275.4</ele><time>2011-05-16T11:51:10Z</time></trkpt>
<trkpt lat="42.269742" lon="3.259218"><ele>272.7</ele><time>2011-05-16T11:51:15Z</time></trkpt>
<trkpt lat="42.269870" lon="3.259382"><ele>270.1</ele><time>2011-05-16T11:51:20Z</time></trkpt>
<trkpt lat="42.269978" lon="3.259473"><ele>268.2</ele><time>2011-05-16T11:51:25Z</time></trkpt>
<trkpt lat="42.270065" lon="3.259538"><ele>266.8</ele><time>2011-05-16T11:51:30Z</time></trkpt>
<trkpt lat="42.270157" lon="3.259612"><ele>265.7</ele><time>2011-05-16T11:51:35Z</time></trkpt>
<trkpt lat="42.270263" lon="3.259698"><ele>264.8</ele><time>2011-05-16T11:51:40Z</time></trkpt>
<trkpt lat="42.270393" lon="3.259782"><ele>263.7</ele><time>2011-05-16T11:51:45Z</time></trkpt>
<trkpt lat="42.270438" lon="3.259960"><ele>262.6</ele><time>2011-05-16T11:51:50Z</time></trkpt>
<trkpt lat="42.270500" lon="3.260202"><ele>260.7</ele><time>2011-05-16T11:51:55Z</time></trkpt>
<trkpt lat="42.270592" lon="3.260397"><ele>258.9</ele><time>2011-05-16T11:52:00Z</time></trkpt>
<trkpt lat="42.270680" lon="3.260580"><ele>257</ele><time>2011-05-16T11:52:05Z</time></trkpt>
<trkpt lat="42.270763" lon="3.260795"><ele>254.7</ele><time>2011-05-16T11:52:10Z</time></trkpt>
<trkpt lat="42.270790" lon="3.261023"><ele>252.9</ele><time>2011-05-16T11:52:15Z</time></trkpt>
<trkpt lat="42.270787" lon="3.261262"><ele>250.6</ele><time>2011-05-16T11:52:20Z</time></trkpt>
<trkpt lat="42.270725" lon="3.261502"><ele>248.8</ele><time>2011-05-16T11:52:25Z</time></trkpt>
<trkpt lat="42.270622" lon="3.261842"><ele>245.1</ele><time>2011-05-16T11:52:30Z</time></trkpt>
<trkpt lat="42.270562" lon="3.262227"><ele>242</ele><time>2011-05-16T11:52:35Z</time></trkpt>
<trkpt lat="42.270482" lon="3.262560"><ele>241.5</ele><time>2011-05-16T11:52:40Z</time></trkpt>
<trkpt lat="42.270375" lon="3.262668"><ele>242.5</ele><time>2011-05-16T11:52:45Z</time></trkpt>
<trkpt lat="42.270278" lon="3.262787"><ele>243.3</ele><time>2011-05-16T11:52:50Z</time></trkpt>
<trkpt lat="42.270195" lon="3.262942"><ele>243.4</ele><time>2011-05-16T11:52:55Z</time></trkpt>
<trkpt lat="42.270103" lon="3.263097"><ele>243.1</ele><time>2011-05-16T11:53:00Z</time></trkpt>
<trkpt lat="42.269985" lon="3.263335"><ele>242</ele><time>2011-05-16T11:53:05Z</time></trkpt>
<trkpt lat="42.269840" lon="3.263590"><ele>241.3</ele><time>2011-05-16T11:53:10Z</time></trkpt>
<trkpt lat="42.269657" lon="3.263790"><ele>241.8</ele><time>2011-05-16T11:53:15Z</time></trkpt>
<trkpt lat="42.269505" lon="3.263992"><ele>242.1</ele><time>2011-05-16T11:53:20Z</time></trkpt>
<trkpt lat="42.269417" lon="3.264165"><ele>241.1</ele><time>2011-05-16T11:53:25Z</time></trkpt>
<trkpt lat="42.269375" lon="3.264237"><ele>240.6</ele><time>2011-05-16T11:53:30Z</time></trkpt>
<trkpt lat="42.269378" lon="3.264240"><ele>240.6</ele><time>2011-05-16T11:53:35Z</time></trkpt>
<trkpt lat="42.269378" lon="3.264238"><ele>240.8</ele><time>2011-05-16T11:53:40Z</time></trkpt>
<trkpt lat="42.269382" lon="3.264237"><ele>241</ele><time>2011-05-16T11:53:45Z</time></trkpt>
<trkpt lat="42.269382" lon="3.264235"><ele>241.2</ele><time>2011-05-16T11:53:50Z</time></trkpt>
<trkpt lat="42.269382" lon="3.264233"><ele>241.4</ele><time>2011-05-16T11:53:55Z</time></trkpt>
<trkpt lat="42.269382" lon="3.264232"><ele>241.7</ele><time>2011-05-16T11:54:00Z</time></trkpt>
<trkpt lat="42.269382" lon="3.264230"><ele>241.9</ele><time>2011-05-16T11:54:05Z</time></trkpt>
<trkpt lat="42.269382" lon="3.264230"><ele>242</ele><time>2011-05-16T11:54:10Z</time></trkpt>
<trkpt lat="42.269382" lon="3.264228"><ele>242.2</ele><time>2011-05-16T11:54:15Z</time></trkpt>
<trkpt lat="42.269378" lon="3.264233"><ele>241.9</ele><time>2011-05-16T11:54:20Z</time></trkpt>
<trkpt lat="42.269355" lon="3.264235"><ele>241.7</ele><time>2011-05-16T11:54:25Z</time></trkpt>
<trkpt lat="42.269238" lon="3.264367"><ele>240.1</ele><time>2011-05-16T11:54:30Z</time></trkpt>
<trkpt lat="42.269103" lon="3.264630"><ele>236.9</ele><time>2011-05-16T11:54:35Z</time></trkpt>
<trkpt lat="42.268985" lon="3.264922"><ele>233.3</ele><time>2011-05-16T11:54:40Z</time></trkpt>
<trkpt lat="42.268867" lon="3.265177"><ele>229.2</ele><time>2011-05-16T11:54:45Z</time></trkpt>
<trkpt lat="42.268783" lon="3.265415"><ele>225.4</ele><time>2011-05-16T11:54:50Z</time></trkpt>
<trkpt lat="42.268688" lon="3.265648"><ele>222.3</ele><time>2011-05-16T11:54:55Z</time></trkpt>
<trkpt lat="42.268757" lon="3.265885"><ele>220.1</ele><time>2011-05-16T11:55:00Z</time></trkpt>
<trkpt lat="42.268780" lon="3.266133"><ele>220.9</ele><time>2011-05-16T11:55:05Z</time></trkpt>
<trkpt lat="42.268658" lon="3.266345"><ele>221.2</ele><time>2011-05-16T11:55:10Z</time></trkpt>
<trkpt lat="42.268558" lon="3.266655"><ele>219.6</ele><time>2011-05-16T11:55:15Z</time></trkpt>
<trkpt lat="42.268440" lon="3.267070"><ele>217.2</ele><time>2011-05-16T11:55:20Z</time></trkpt>
<trkpt lat="42.268307" lon="3.267488"><ele>214.5</ele><time>2011-05-16T11:55:25Z</time></trkpt>
<trkpt lat="42.268372" lon="3.267797"><ele>212.5</ele><time>2011-05-16T11:55:30Z</time></trkpt>
<trkpt lat="42.268612" lon="3.267858"><ele>209.8</ele><time>2011-05-16T11:55:35Z</time></trkpt>
<trkpt lat="42.268822" lon="3.267847"><ele>208.1</ele><time>2011-05-16T11:55:40Z</time></trkpt>
<trkpt lat="42.269023" lon="3.267755"><ele>205.9</ele><time>2011-05-16T11:55:45Z</time></trkpt>
<trkpt lat="42.269248" lon="3.267675"><ele>203.8</ele><time>2011-05-16T11:55:50Z</time></trkpt>
<trkpt lat="42.269482" lon="3.267633"><ele>202</ele><time>2011-05-16T11:55:55Z</time></trkpt>
<trkpt lat="42.269737" lon="3.267618"><ele>199.9</ele><time>2011-05-16T11:56:00Z</time></trkpt>
<trkpt lat="42.270008" lon="3.267688"><ele>197.7</ele><time>2011-05-16T11:56:05Z</time></trkpt>
<trkpt lat="42.269997" lon="3.268013"><ele>197.4</ele><time>2011-05-16T11:56:10Z</time></trkpt>
<trkpt lat="42.269928" lon="3.268252"><ele>198.5</ele><time>2011-05-16T11:56:15Z</time></trkpt>
<trkpt lat="42.270088" lon="3.268398"><ele>198.7</ele><time>2011-05-16T11:56:20Z</time></trkpt>
<trkpt lat="42.270290" lon="3.268320"><ele>198.8</ele><time>2011-05-16T11:56:25Z</time></trkpt>
<trkpt lat="42.270488" lon="3.268222"><ele>198.6</ele><time>2011-05-16T11:56:30Z</time></trkpt>
<trkpt lat="42.270698" lon="3.268135"><ele>198.2</ele><time>2011-05-16T11:56:35Z</time></trkpt>
<trkpt lat="42.270893" lon="3.268073"><ele>197.9</ele><time>2011-05-16T11:56:40Z</time></trkpt>
<trkpt lat="42.271110" lon="3.268012"><ele>197.5</ele><time>2011-05-16T11:56:45Z</time></trkpt>
<trkpt lat="42.271332" lon="3.267870"><ele>195.7</ele><time>2011-05-16T11:56:50Z</time></trkpt>
<trkpt lat="42.271568" lon="3.267698"><ele>194</ele><time>2011-05-16T11:56:55Z</time></trkpt>
<trkpt lat="42.271763" lon="3.267463"><ele>192.8</ele><time>2011-05-16T11:57:00Z</time></trkpt>
<trkpt lat="42.271912" lon="3.267192"><ele>192.4</ele><time>2011-05-16T11:57:05Z</time></trkpt>
<trkpt lat="42.272107" lon="3.267005"><ele>191.8</ele><time>2011-05-16T11:57:10Z</time></trkpt>
<trkpt lat="42.272323" lon="3.266875"><ele>190.7</ele><time>2011-05-16T11:57:15Z</time></trkpt>
<trkpt lat="42.272472" lon="3.266587"><ele>188.6</ele><time>2011-05-16T11:57:20Z</time></trkpt>
<trkpt lat="42.272515" lon="3.266188"><ele>187.2</ele><time>2011-05-16T11:57:25Z</time></trkpt>
<trkpt lat="42.272613" lon="3.265820"><ele>185.5</ele><time>2011-05-16T11:57:30Z</time></trkpt>
<trkpt lat="42.272663" lon="3.265395"><ele>183.5</ele><time>2011-05-16T11:57:35Z</time></trkpt>
<trkpt lat="42.272832" lon="3.265328"><ele>184</ele><time>2011-05-16T11:57:40Z</time></trkpt>
<trkpt lat="42.272957" lon="3.265600"><ele>183.7</ele><time>2011-05-16T11:57:45Z</time></trkpt>
<trkpt lat="42.273170" lon="3.265768"><ele>183.1</ele><time>2011-05-16T11:57:50Z</time></trkpt>
<trkpt lat="42.273392" lon="3.266008"><ele>182</ele><time>2011-05-16T11:57:55Z</time></trkpt>
<trkpt lat="42.273625" lon="3.266168"><ele>181.8</ele><time>2011-05-16T11:58:00Z</time></trkpt>
<trkpt lat="42.273872" lon="3.266100"><ele>181.7</ele><time>2011-05-16T11:58:05Z</time></trkpt>
<trkpt lat="42.274060" lon="3.265897"><ele>181.3</ele><time>2011-05-16T11:58:10Z</time></trkpt>
<trkpt lat="42.274235" lon="3.265970"><ele>180.2</ele><time>2011-05-16T11:58:15Z</time></trkpt>
<trkpt lat="42.274407" lon="3.266175"><ele>178.2</ele><time>2011-05-16T11:58:20Z</time></trkpt>
<trkpt lat="42.274670" lon="3.266302"><ele>176.2</ele><time>2011-05-16T11:58:25Z</time></trkpt>
<trkpt lat="42.274940" lon="3.266468"><ele>173.1</ele><time>2011-05-16T11:58:30Z</time></trkpt>
<trkpt lat="42.275127" lon="3.266687"><ele>170</ele><time>2011-05-16T11:58:35Z</time></trkpt>
<trkpt lat="42.275040" lon="3.267080"><ele>166.9</ele><time>2011-05-16T11:58:40Z</time></trkpt>
<trkpt lat="42.274972" lon="3.267487"><ele>164.3</ele><time>2011-05-16T11:58:45Z</time></trkpt>
<trkpt lat="42.275188" lon="3.267652"><ele>161.1</ele><time>2011-05-16T11:58:50Z</time></trkpt>
<trkpt lat="42.275398" lon="3.267400"><ele>158.6</ele><time>2011-05-16T11:58:55Z</time></trkpt>
<trkpt lat="42.275605" lon="3.267158"><ele>156.2</ele><time>2011-05-16T11:59:00Z</time></trkpt>
<trkpt lat="42.275798" lon="3.267077"><ele>154.6</ele><time>2011-05-16T11:59:05Z</time></trkpt>
<trkpt lat="42.276008" lon="3.266988"><ele>152.8</ele><time>2011-05-16T11:59:10Z</time></trkpt>
<trkpt lat="42.276047" lon="3.266595"><ele>149.9</ele><time>2011-05-16T11:59:15Z</time></trkpt>
<trkpt lat="42.276127" lon="3.266362"><ele>147.5</ele><time>2011-05-16T11:59:20Z</time></trkpt>
<trkpt lat="42.276333" lon="3.266608"><ele>145</ele><time>2011-05-16T11:59:25Z</time></trkpt>
<trkpt lat="42.276402" lon="3.267027"><ele>141.8</ele><time>2011-05-16T11:59:30Z</time></trkpt>
<trkpt lat="42.276402" lon="3.267420"><ele>139.1</ele><time>2011-05-16T11:59:35Z</time></trkpt>
<trkpt lat="42.276543" lon="3.267592"><ele>136.4</ele><time>2011-05-16T11:59:40Z</time></trkpt>
<trkpt lat="42.276768" lon="3.267338"><ele>134.7</ele><time>2011-05-16T11:59:45Z</time></trkpt>
<trkpt lat="42.276943" lon="3.267050"><ele>133.1</ele><time>2011-05-16T11:59:50Z</time></trkpt>
<trkpt lat="42.277118" lon="3.266843"><ele>130.4</ele><time>2011-05-16T11:59:55Z</time></trkpt>
<trkpt lat="42.277283" lon="3.267075"><ele>128.2</ele><time>2011-05-16T12:00:00Z</time></trkpt>
<trkpt lat="42.277230" lon="3.267423"><ele>126</ele><time>2011-05-16T12:00:05Z</time></trkpt>
<trkpt lat="42.277168" lon="3.267802"><ele>124.3</ele><time>2011-05-16T12:00:10Z</time></trkpt>
<trkpt lat="42.277092" lon="3.268182"><ele>123.1</ele><time>2011-05-16T12:00:15Z</time></trkpt>
<trkpt lat="42.276962" lon="3.268497"><ele>120.7</ele><time>2011-05-16T12:00:20Z</time></trkpt>
<trkpt lat="42.276817" lon="3.268755"><ele>117.5</ele><time>2011-05-16T12:00:25Z</time></trkpt>
<trkpt lat="42.276813" lon="3.269043"><ele>114</ele><time>2011-05-16T12:00:30Z</time></trkpt>
<trkpt lat="42.276993" lon="3.269342"><ele>110</ele><time>2011-05-16T12:00:35Z</time></trkpt>
<trkpt lat="42.277252" lon="3.269467"><ele>108.2</ele><time>2011-05-16T12:00:40Z</time></trkpt>
<trkpt lat="42.277428" lon="3.269577"><ele>107</ele><time>2011-05-16T12:00:45Z</time></trkpt>
<trkpt lat="42.277523" lon="3.269838"><ele>105.6</ele><time>2011-05-16T12:00:50Z</time></trkpt>
<trkpt lat="42.277660" lon="3.270035"><ele>104.5</ele><time>2011-05-16T12:00:55Z</time></trkpt>
<trkpt lat="42.277802" lon="3.270197"><ele>103</ele><time>2011-05-16T12:01:00Z</time></trkpt>
<trkpt lat="42.277885" lon="3.270432"><ele>101.3</ele><time>2011-05-16T12:01:05Z</time></trkpt>
<trkpt lat="42.277840" lon="3.270773"><ele>99</ele><time>2011-05-16T12:01:10Z</time></trkpt>
<trkpt lat="42.278000" lon="3.270933"><ele>97.1</ele><time>2011-05-16T12:01:15Z</time></trkpt>
<trkpt lat="42.278057" lon="3.270615"><ele>94.7</ele><time>2011-05-16T12:01:20Z</time></trkpt>
<trkpt lat="42.278243" lon="3.270380"><ele>92.3</ele><time>2011-05-16T12:01:25Z</time></trkpt>
<trkpt lat="42.278468" lon="3.270200"><ele>89.8</ele><time>2011-05-16T12:01:30Z</time></trkpt>
<trkpt lat="42.278610" lon="3.270495"><ele>87.5</ele><time>2011-05-16T12:01:35Z</time></trkpt>
<trkpt lat="42.278828" lon="3.270443"><ele>86.8</ele><time>2011-05-16T12:01:40Z</time></trkpt>
<trkpt lat="42.278988" lon="3.270527"><ele>84</ele><time>2011-05-16T12:01:45Z</time></trkpt>
<trkpt lat="42.278968" lon="3.270862"><ele>81.1</ele><time>2011-05-16T12:01:50Z</time></trkpt>
<trkpt lat="42.278912" lon="3.271135"><ele>78.5</ele><time>2011-05-16T12:01:55Z</time></trkpt>
<trkpt lat="42.278817" lon="3.271315"><ele>77.2</ele><time>2011-05-16T12:02:00Z</time></trkpt>
<trkpt lat="42.278812" lon="3.271313"><ele>77.2</ele><time>2011-05-16T12:02:05Z</time></trkpt>
<trkpt lat="42.278812" lon="3.271313"><ele>77</ele><time>2011-05-16T12:02:10Z</time></trkpt>
<trkpt lat="42.278812" lon="3.271333"><ele>76.9</ele><time>2011-05-16T12:02:15Z</time></trkpt>
<trkpt lat="42.278858" lon="3.271490"><ele>76.2</ele><time>2011-05-16T12:02:20Z</time></trkpt>
<trkpt lat="42.279010" lon="3.271650"><ele>74.4</ele><time>2011-05-16T12:02:25Z</time></trkpt>
<trkpt lat="42.279133" lon="3.271942"><ele>71.6</ele><time>2011-05-16T12:02:30Z</time></trkpt>
<trkpt lat="42.279285" lon="3.272265"><ele>68</ele><time>2011-05-16T12:02:35Z</time></trkpt>
<trkpt lat="42.279365" lon="3.272643"><ele>64.2</ele><time>2011-05-16T12:02:40Z</time></trkpt>
<trkpt lat="42.279530" lon="3.272923"><ele>61.8</ele><time>2011-05-16T12:02:45Z</time></trkpt>
<trkpt lat="42.279717" lon="3.273065"><ele>59.6</ele><time>2011-05-16T12:02:50Z</time></trkpt>
<trkpt lat="42.279805" lon="3.273348"><ele>56.9</ele><time>2011-05-16T12:02:55Z</time></trkpt>
<trkpt lat="42.279915" lon="3.273668"><ele>54.3</ele><time>2011-05-16T12:03:00Z</time></trkpt>
<trkpt lat="42.279885" lon="3.274087"><ele>52.1</ele><time>2011-05-16T12:03:05Z</time></trkpt>
<trkpt lat="42.279735" lon="3.274482"><ele>49</ele><time>2011-05-16T12:03:10Z</time></trkpt>
<trkpt lat="42.279702" lon="3.274835"><ele>45.7</ele><time>2011-05-16T12:03:15Z</time></trkpt>
<trkpt lat="42.279945" lon="3.274822"><ele>43.8</ele><time>2011-05-16T12:03:20Z</time></trkpt>
<trkpt lat="42.280197" lon="3.274638"><ele>41.7</ele><time>2011-05-16T12:03:25Z</time></trkpt>
<trkpt lat="42.280460" lon="3.274467"><ele>39.2</ele><time>2011-05-16T12:03:30Z</time></trkpt>
<trkpt lat="42.280617" lon="3.274192"><ele>37.2</ele><time>2011-05-16T12:03:35Z</time></trkpt>
<trkpt lat="42.280643" lon="3.273920"><ele>35.4</ele><time>2011-05-16T12:03:40Z</time></trkpt>
<trkpt lat="42.280812" lon="3.273973"><ele>32.1</ele><time>2011-05-16T12:03:45Z</time></trkpt>
<trkpt lat="42.281025" lon="3.274075"><ele>28.8</ele><time>2011-05-16T12:03:50Z</time></trkpt>
<trkpt lat="42.281162" lon="3.274347"><ele>25.5</ele><time>2011-05-16T12:03:55Z</time></trkpt>
<trkpt lat="42.281143" lon="3.274717"><ele>22.7</ele><time>2011-05-16T12:04:00Z</time></trkpt>
<trkpt lat="42.281185" lon="3.275090"><ele>19.2</ele><time>2011-05-16T12:04:05Z</time></trkpt>
<trkpt lat="42.281280" lon="3.275353"><ele>16</ele><time>2011-05-16T12:04:10Z</time></trkpt>
<trkpt lat="42.281510" lon="3.275455"><ele>12.8</ele><time>2011-05-16T12:04:15Z</time></trkpt>
<trkpt lat="42.281773" lon="3.275587"><ele>10.4</ele><time>2011-05-16T12:04:20Z</time></trkpt>
<trkpt lat="42.282108" lon="3.275660"><ele>6.9</ele><time>2011-05-16T12:04:25Z</time></trkpt>
<trkpt lat="42.282422" lon="3.275562"><ele>3.7</ele><time>2011-05-16T12:04:30Z</time></trkpt>
<trkpt lat="42.282695" lon="3.275512"><ele>2.7</ele><time>2011-05-16T12:04:35Z</time></trkpt>
<trkpt lat="42.282943" lon="3.275592"><ele>0.9</ele><time>2011-05-16T12:04:40Z</time></trkpt>
<trkpt lat="42.283092" lon="3.275758"><ele>0.2</ele><time>2011-05-16T12:04:45Z</time></trkpt>
<trkpt lat="42.283253" lon="3.275860"><ele>-0.2</ele><time>2011-05-16T12:04:50Z</time></trkpt>
<trkpt lat="42.283428" lon="3.275817"><ele>-0</ele><time>2011-05-16T12:04:55Z</time></trkpt>
<trkpt lat="42.283600" lon="3.275725"><ele>0.3</ele><time>2011-05-16T12:05:00Z</time></trkpt>
<trkpt lat="42.283763" lon="3.275640"><ele>0.7</ele><time>2011-05-16T12:05:05Z</time></trkpt>
<trkpt lat="42.283923" lon="3.275528"><ele>0.6</ele><time>2011-05-16T12:05:10Z</time></trkpt>
<trkpt lat="42.284068" lon="3.275385"><ele>0.5</ele><time>2011-05-16T12:05:15Z</time></trkpt>
<trkpt lat="42.284225" lon="3.275303"><ele>0.9</ele><time>2011-05-16T12:05:20Z</time></trkpt>
<trkpt lat="42.284385" lon="3.275287"><ele>1.3</ele><time>2011-05-16T12:05:25Z</time></trkpt>
<trkpt lat="42.284550" lon="3.275300"><ele>1.7</ele><time>2011-05-16T12:05:30Z</time></trkpt>
<trkpt lat="42.284713" lon="3.275370"><ele>2.3</ele><time>2011-05-16T12:05:35Z</time></trkpt>
<trkpt lat="42.284863" lon="3.275470"><ele>4.3</ele><time>2011-05-16T12:05:40Z</time></trkpt>
<trkpt lat="42.284935" lon="3.275625"><ele>5.4</ele><time>2011-05-16T12:05:45Z</time></trkpt>
<trkpt lat="42.285015" lon="3.275710"><ele>5</ele><time>2011-05-16T12:05:50Z</time></trkpt>
<trkpt lat="42.285160" lon="3.275727"><ele>5.2</ele><time>2011-05-16T12:05:55Z</time></trkpt>
<trkpt lat="42.285278" lon="3.275647"><ele>5.8</ele><time>2011-05-16T12:06:00Z</time></trkpt>
<trkpt lat="42.285320" lon="3.275528"><ele>7.9</ele><time>2011-05-16T12:06:05Z</time></trkpt>
<trkpt lat="42.285332" lon="3.275428"><ele>10.4</ele><time>2011-05-16T12:06:10Z</time></trkpt>
<trkpt lat="42.285335" lon="3.275338"><ele>12.7</ele><time>2011-05-16T12:06:15Z</time></trkpt>
<trkpt lat="42.285335" lon="3.275247"><ele>15.2</ele><time>2011-05-16T12:06:20Z</time></trkpt>
<trkpt lat="42.285388" lon="3.275160"><ele>17.6</ele><time>2011-05-16T12:06:25Z</time></trkpt>
<trkpt lat="42.285447" lon="3.275080"><ele>18.7</ele><time>2011-05-16T12:06:30Z</time></trkpt>
<trkpt lat="42.285488" lon="3.274998"><ele>19</ele><time>2011-05-16T12:06:35Z</time></trkpt>
<trkpt lat="42.285542" lon="3.274905"><ele>19.6</ele><time>2011-05-16T12:06:40Z</time></trkpt>
<trkpt lat="42.285587" lon="3.274800"><ele>20.1</ele><time>2011-05-16T12:06:45Z</time></trkpt>
<trkpt lat="42.285678" lon="3.274827"><ele>19.3</ele><time>2011-05-16T12:06:50Z</time></trkpt>
<trkpt lat="42.285812" lon="3.274985"><ele>18.3</ele><time>2011-05-16T12:06:55Z</time></trkpt>
<trkpt lat="42.285908" lon="3.275107"><ele>18.2</ele><time>2011-05-16T12:07:00Z</time></trkpt>
<trkpt lat="42.285992" lon="3.275205"><ele>18.1</ele><time>2011-05-16T12:07:05Z</time></trkpt>
<trkpt lat="42.286072" lon="3.275327"><ele>18.1</ele><time>2011-05-16T12:07:10Z</time></trkpt>
<trkpt lat="42.286167" lon="3.275390"><ele>18.3</ele><time>2011-05-16T12:07:15Z</time></trkpt>
<trkpt lat="42.286240" lon="3.275282"><ele>19.8</ele><time>2011-05-16T12:07:20Z</time></trkpt>
<trkpt lat="42.286300" lon="3.275185"><ele>21.2</ele><time>2011-05-16T12:07:25Z</time></trkpt>
<trkpt lat="42.286370" lon="3.275087"><ele>22.7</ele><time>2011-05-16T12:07:30Z</time></trkpt>
<trkpt lat="42.286415" lon="3.274972"><ele>24.1</ele><time>2011-05-16T12:07:35Z</time></trkpt>
<trkpt lat="42.286468" lon="3.274858"><ele>25.5</ele><time>2011-05-16T12:07:40Z</time></trkpt>
<trkpt lat="42.286560" lon="3.274792"><ele>26.2</ele><time>2011-05-16T12:07:45Z</time></trkpt>
<trkpt lat="42.286747" lon="3.274907"><ele>23</ele><time>2011-05-16T12:07:50Z</time></trkpt>
<trkpt lat="42.286922" lon="3.275062"><ele>19.3</ele><time>2011-05-16T12:07:55Z</time></trkpt>
<trkpt lat="42.287037" lon="3.275077"><ele>17</ele><time>2011-05-16T12:08:00Z</time></trkpt>
<trkpt lat="42.287158" lon="3.274920"><ele>16.5</ele><time>2011-05-16T12:08:05Z</time></trkpt>
<trkpt lat="42.287288" lon="3.274770"><ele>15.8</ele><time>2011-05-16T12:08:10Z</time></trkpt>
<trkpt lat="42.287442" lon="3.274607"><ele>15.6</ele><time>2011-05-16T12:08:15Z</time></trkpt>
<trkpt lat="42.287598" lon="3.274427"><ele>18.3</ele><time>2011-05-16T12:08:20Z</time></trkpt>
<trkpt lat="42.287758" lon="3.274260"><ele>20.8</ele><time>2011-05-16T12:08:25Z</time></trkpt>
<trkpt lat="42.287918" lon="3.274097"><ele>23.1</ele><time>2011-05-16T12:08:30Z</time></trkpt>
<trkpt lat="42.288097" lon="3.273973"><ele>22.3</ele><time>2011-05-16T12:08:35Z</time></trkpt>
<trkpt lat="42.288318" lon="3.273835"><ele>24.7</ele><time>2011-05-16T12:08:40Z</time></trkpt>
<trkpt lat="42.288505" lon="3.273748"><ele>21</ele><time>2011-05-16T12:08:45Z</time></trkpt>
<trkpt lat="42.288703" lon="3.273883"><ele>16.5</ele><time>2011-05-16T12:08:50Z</time></trkpt>
<trkpt lat="42.288762" lon="3.274077"><ele>11.2</ele><time>2011-05-16T12:08:55Z</time></trkpt>
<trkpt lat="42.288868" lon="3.274257"><ele>7.7</ele><time>2011-05-16T12:09:00Z</time></trkpt>
<trkpt lat="42.289067" lon="3.274280"><ele>5.7</ele><time>2011-05-16T12:09:05Z</time></trkpt>
<trkpt lat="42.289272" lon="3.274278"><ele>5</ele><time>2011-05-16T12:09:10Z</time></trkpt>
<trkpt lat="42.289493" lon="3.274288"><ele>3.1</ele><time>2011-05-16T12:09:15Z</time></trkpt>
<trkpt lat="42.289757" lon="3.274298"><ele>2</ele><time>2011-05-16T12:09:20Z</time></trkpt>
<trkpt lat="42.289943" lon="3.274292"><ele>3.1</ele><time>2011-05-16T12:09:25Z</time></trkpt>
<trkpt lat="42.289982" lon="3.274527"><ele>2.9</ele><time>2011-05-16T12:09:30Z</time></trkpt>
<trkpt lat="42.290032" lon="3.274870"><ele>2.1</ele><time>2011-05-16T12:09:35Z</time></trkpt>
<trkpt lat="42.290073" lon="3.275218"><ele>2.3</ele><time>2011-05-16T12:09:40Z</time></trkpt>
<trkpt lat="42.290032" lon="3.275527"><ele>2.7</ele><time>2011-05-16T12:09:45Z</time></trkpt>
<trkpt lat="42.289985" lon="3.275767"><ele>6.4</ele><time>2011-05-16T12:09:50Z</time></trkpt>
<trkpt lat="42.290020" lon="3.275947"><ele>4.6</ele><time>2011-05-16T12:09:55Z</time></trkpt>
<trkpt lat="42.290092" lon="3.276058"><ele>4.9</ele><time>2011-05-16T12:10:00Z</time></trkpt>
<trkpt lat="42.290127" lon="3.276172"><ele>5.7</ele><time>2011-05-16T12:10:05Z</time></trkpt>
<trkpt lat="42.290150" lon="3.276282"><ele>7.9</ele><time>2011-05-16T12:10:10Z</time></trkpt>
<trkpt lat="42.290173" lon="3.276395"><ele>9.6</ele><time>2011-05-16T12:10:15Z</time></trkpt>
<trkpt lat="42.290195" lon="3.276513"><ele>11.1</ele><time>2011-05-16T12:10:20Z</time></trkpt>
<trkpt lat="42.290183" lon="3.276628"><ele>13.8</ele><time>2011-05-16T12:10:25Z</time></trkpt>
<trkpt lat="42.290168" lon="3.276745"><ele>16.3</ele><time>2011-05-16T12:10:30Z</time></trkpt>
<trkpt lat="42.290162" lon="3.276870"><ele>18.2</ele><time>2011-05-16T12:10:35Z</time></trkpt>
<trkpt lat="42.290180" lon="3.277012"><ele>17.7</ele><time>2011-05-16T12:10:40Z</time></trkpt>
<trkpt lat="42.290218" lon="3.277160"><ele>17.2</ele><time>2011-05-16T12:10:45Z</time></trkpt>
<trkpt lat="42.290260" lon="3.277323"><ele>16.9</ele><time>2011-05-16T12:10:50Z</time></trkpt>
<trkpt lat="42.290307" lon="3.277465"><ele>16.7</ele><time>2011-05-16T12:10:55Z</time></trkpt>
<trkpt lat="42.290363" lon="3.277623"><ele>16.5</ele><time>2011-05-16T12:11:00Z</time></trkpt>
<trkpt lat="42.290443" lon="3.277830"><ele>16.1</ele><time>2011-05-16T12:11:05Z</time></trkpt>
<trkpt lat="42.290573" lon="3.278067"><ele>14</ele><time>2011-05-16T12:11:10Z</time></trkpt>
<trkpt lat="42.290748" lon="3.278362"><ele>8.8</ele><time>2011-05-16T12:11:15Z</time></trkpt>
<trkpt lat="42.290843" lon="3.278632"><ele>8.1</ele><time>2011-05-16T12:11:20Z</time></trkpt>
<trkpt lat="42.290737" lon="3.278762"><ele>9</ele><time>2011-05-16T12:11:25Z</time></trkpt>
<trkpt lat="42.290588" lon="3.278820"><ele>12.1</ele><time>2011-05-16T12:11:30Z</time></trkpt>
<trkpt lat="42.290493" lon="3.278912"><ele>15.4</ele><time>2011-05-16T12:11:35Z</time></trkpt>
<trkpt lat="42.290402" lon="3.279002"><ele>18.3</ele><time>2011-05-16T12:11:40Z</time></trkpt>
<trkpt lat="42.290313" lon="3.279088"><ele>22.1</ele><time>2011-05-16T12:11:45Z</time></trkpt>
<trkpt lat="42.290203" lon="3.279158"><ele>27.1</ele><time>2011-05-16T12:11:50Z</time></trkpt>
<trkpt lat="42.290100" lon="3.279228"><ele>27.8</ele><time>2011-05-16T12:11:55Z</time></trkpt>
<trkpt lat="42.290012" lon="3.279273"><ele>30.2</ele><time>2011-05-16T12:12:00Z</time></trkpt>
<trkpt lat="42.289867" lon="3.279363"><ele>29.5</ele><time>2011-05-16T12:12:05Z</time></trkpt>
<trkpt lat="42.289787" lon="3.279408"><ele>29.1</ele><time>2011-05-16T12:12:10Z</time></trkpt>
<trkpt lat="42.289795" lon="3.279438"><ele>26.6</ele><time>2011-05-16T12:12:15Z</time></trkpt>
<trkpt lat="42.289798" lon="3.279447"><ele>23.9</ele><time>2011-05-16T12:12:20Z</time></trkpt>
<trkpt lat="42.289830" lon="3.279442"><ele>30.4</ele><time>2011-05-16T12:12:25Z</time></trkpt>
<trkpt lat="42.289792" lon="3.279458"><ele>27.9</ele><time>2011-05-16T12:12:30Z</time></trkpt>
<trkpt lat="42.289765" lon="3.279448"><ele>30.3</ele><time>2011-05-16T12:12:35Z</time></trkpt>
</trkseg></trk></gpx>